GFSNGP_con_sbcape_000.txt.gz
CAPE
0 0 0 0 0 0 0 0 3 0 8 11 1 0 0 0 4 238 865 967 1321 1500 2493 2777 2740 2870 2583 2360 2402 2460 2670 2713 3018 3048 2663 1991 1267 321 165 152 438 7 33 0
35 8 7 4 0 0 0 0 0 0 0 0 0 0 0 0 0 289 1017 1103 1419 1670 1938 2312 2362 2491 2564 2594 2495 2641 2819 2892 3026 3421 2400 1304 960 778 897 745 392 32 2 10
216 111 66 63 11 3 0 0 0 0 0 0 0 0 0 1 123 332 960 1135 1298 1635 1849 2315 2444 2685 2635 2645 2599 2681 2893 3024 3223 3019 1968 1223 889 856 794 568 327 197 134 133
342 289 247 1 1 0 0 0 0 0 0 0 0 0 15 153 81 349 966 1149 1281 1389 1751 2013 1974 2102 2180 2333 2541 2734 2980 2999 3004 2649 1727 1612 1240 1160 911 461 227 364 304 191
204 290 134 31 196 28 3 0 0 0 0 0 0 3 294 192 181 516 1033 1355 1392 1329 1605 1842 1565 1804 1903 2096 2360 2557 2764 2824 2508 2075 1479 1216 1242 1149 1114 838 562 644 657 555
298 197 174 566 323 222 315 80 0 0 0 0 9 42 1 361 125 246 755 984 1177 1086 1399 1362 1377 1506 1874 2058 2385 2624 2728 2656 2085 1747 1680 1367 1426 1312 1146 1160 826 471 598 664
271 310 301 444 265 400 352 51 4 44 117 160 243 406 538 417 490 691 1052 1164 1246 1161 1102 1333 1373 1626 1856 2080 2341 2514 2695 2494 1929 1905 2116 2034 1818 1347 1103 959 855 931 781 1051
303 362 331 165 440 665 658 457 448 455 522 528 495 737 849 873 1058 1126 1058 896 820 1307 1703 1716 1748 2005 2283 2430 2671 2805 2776 2120 1980 1880 1787 1831 1631 1180 948 1081 1069 887 1445 1245
284 208 218 80 275 457 589 615 600 605 564 577 534 632 720 734 735 767 728 742 870 1433 1904 2162 2370 2381 2698 3294 3053 2911 2231 1949 1986 1810 1535 1528 1469 949 815 912 871 1157 1285 1039
510 243 70 38 66 185 323 374 360 374 330 384 366 413 473 580 819 1125 1291 1141 1137 1312 1791 2409 2530 2653 3047 2568 2637 2721 2174 2059 1673 1902 1623 1440 1289 1140 1346 1327 1077 1644 1347 1028
280 105 17 6 0 1 27 105 206 253 275 313 617 833 1116 1288 1270 1295 1391 1323 1247 1437 2031 2337 2405 2426 2318 2245 2191 2190 1987 1741 1675 1411 1283 1677 851 257 1249 166 177 602 474 253
137 123 46 0 0 0 0 0 2 37 34 50 163 264 516 960 1295 1478 1765 1802 1869 1966 2300 2401 2416 2400 2419 2133 2181 2062 1414 1410 1395 1409 1682 1513 756 119 0 0 1 1 1 56
79 1 0 0 0 0 0 0 0 0 0 0 0 0 1 31 86 155 767 1023 1948 1849 2070 2163 2298 2304 2288 2302 2046 1813 1699 1650 1455 984 1008 1027 975 582 195 0 0 0 0 0
0 0 0 0 0 0 0 0 0 0 0 0 0 0 0 0 0 0 45 334 613 1611 1849 1916 1938 2052 1960 1742 1803 1724 1374 692 972 882 838 662 622 648 621 528 226 3 0 0
0 0 0 0 0 0 0 0 0 0 0 0 0 0 0 0 0 0 0 0 64 350 1017 1873 1815 1812 1511 1267 1140 829 484 511 526 353 257 140 281 322 451 468 327 197 0 0
2 0 0 0 6 0 0 0 0 0 0 0 0 0 0 0 0 0 0 0 0 77 471 1115 1811 1532 1208 618 281 164 210 14 66 287 446 481 589 511 500 451 472 415 121 35
0 0 0 6 0 0 0 0 0 0 0 0 0 0 0 0 3 6 14 16 254 381 568 1186 1472 1349 818 404 360 336 369 421 175 451 418 315 216 192 189 262 303 253 247 103
80 50 2 0 0 0 0 0 0 0 0 0 0 0 0 16 44 115 240 399 619 799 941 1164 1252 1174 900 746 437 456 381 203 109 24 73 184 215 299 336 319 268 258 213 0
58 31 4 0 0 0 0 0 0 0 0 0 0 3 13 45 190 233 267 269 566 590 427 883 130 638 930 408 293 181 103 84 162 333 306 58 308 352 401 383 345 252 248 167
14 3 1 0 0 0 0 0 0 1 7 16 20 24 41 54 75 108 281 338 274 359 415 266 478 489 263 34 1 106 224 230 197 153 108 100 128 232 308 69 215 136 124 85
2 5 1 2 1 4 11 4 8 17 35 39 40 44 48 48 55 66 75 85 145 110 201 34 305 280 132 33 62 123 120 110 100 90 73 73 130 104 98 72 22 57 55 26
41 19 15 14 11 14 41 62 47 54 75 78 66 61 42 33 85 110 92 64 142 0 132 110 64 1 7 0 24 2 1 0 0 0 0 2 3 7 10 11 10 11 16 22
74 50 25 26 42 54 52 53 91 117 97 113 99 57 18 15 10 47 107 77 130 10 98 36 0 0 0 0 0 0 0 0 0 0 0 0 0 0 2 3 4 2 2 4
172 134 165 89 58 46 51 58 40 52 83 81 65 57 4 0 29 26 57 0 0 2 35 3 0 0 0 1 0 0 0 0 0 0 0 0 0 0 0 1 6 9 6 3
213 130 106 102 38 34 41 56 38 14 29 85 58 36 23 23 12 17 43 47 3 23 132 0 0 0 1 25 39 32 27 21 19 16 11 10 4 0 0 0 9 16 13 5
17 32 41 43 46 41 38 41 46 43 20 38 44 52 41 37 43 26 39 11 23 31 23 77 118 71 83 73 59 62 48 41 25 20 3 8 13 4 0 0 0 0 1 0
0 0 1 3 1 6 11 21 31 41 20 6 13 41 20 20 17 3 1 27 50 52 61 68 71 55 65 52 55 63 51 45 17 22 26 18 17 11 5 0 0 0 1 1

GFSNGP_con_sbcape_003.txt.gz
CAPE
0 0 3 0 0 0 0 0 1 4 40 37 83 70 15 3 0 0 1 369 968 1201 2285 2469 2198 2452 2362 1978 2363 2186 3204 3068 4028 4453 4081 3903 3977 3938 3153 2614 2010 1180 919 703
0 0 0 2 3 0 0 0 0 0 1 18 17 86 34 0 0 0 0 15 937 1442 1821 3052 2824 3157 3048 2942 3022 3070 3899 3782 4362 4646 4294 3901 3835 3346 2302 2179 1548 999 443 424
161 66 93 72 0 0 1 1 0 0 0 0 15 64 97 16 0 2 64 94 478 1373 1834 2511 2507 3440 3417 3635 3390 3787 4306 4408 4780 4821 4254 3346 3105 2694 2159 1819 1510 1108 483 522
143 330 239 0 99 58 30 22 13 8 0 0 15 33 50 13 1 66 174 171 229 1086 1823 2730 2288 2308 2919 3085 4095 4370 4529 4541 4758 4618 3683 2660 2195 2057 1955 2025 1846 1286 662 862
281 406 273 221 541 440 500 195 29 24 1 0 1 2 16 0 0 2 27 224 432 1392 1839 3427 3038 3569 3734 3439 3895 4181 4002 4551 4685 4048 3286 2443 1826 1785 2185 2130 2330 1209 584 743
450 266 326 171 700 508 402 211 15 45 49 0 3 65 11 1 30 408 462 246 860 1648 2098 2744 3289 2763 3344 2911 3469 3936 4035 4265 4573 3732 2984 2198 1835 1891 2193 2286 1915 875 610 885
78 216 179 845 502 547 429 417 1114 844 628 308 20 61 685 640 432 523 565 1380 2020 2028 2883 3243 3132 2538 3197 3071 3062 3100 3221 3339 3536 2930 2524 1943 2056 2288 2019 1883 1455 857 718 1104
90 142 183 549 556 575 1070 886 1008 993 864 1062 48 631 747 858 939 1010 1215 1600 1712 2228 2590 2520 2879 3082 3368 3566 3724 3908 3752 3447 2907 2458 2165 2157 2361 1828 1552 1575 1410 1335 1627 1471
101 268 916 714 891 840 831 892 1002 1071 962 895 1028 938 1059 1290 1534 1626 1624 1671 1537 1503 2454 2458 3096 3318 3693 4535 4370 4062 3919 3065 2549 2480 2395 2533 2292 2048 1733 1558 1211 1285 1354 1055
552 662 586 672 599 591 621 705 759 1003 1079 1138 1215 1152 1050 931 891 844 965 1290 1339 1598 2156 2697 3180 2822 3591 3528 3599 3661 2900 2466 2345 2275 2199 2173 2145 1437 1109 885 1051 1250 1250 1432
767 533 331 182 231 230 309 432 419 609 830 1245 1144 1099 1195 1517 1596 1197 1141 1161 1419 1705 2136 2440 2832 3240 2973 3261 3388 2756 2429 2309 2740 2313 2127 2020 997 831 1622 1355 1059 1156 1133 1234
521 560 298 0 0 2 0 0 1 21 105 265 634 718 1122 1378 1399 1370 1375 1458 1773 1733 2224 2559 2762 2890 2829 2892 2940 3071 2564 2560 2299 2029 2250 1595 444 4 0 0 1 0 0 50
74 60 0 0 0 0 0 0 0 0 0 0 0 9 32 123 277 309 1068 1251 1475 1606 1940 2358 2606 2899 2679 3067 2940 2678 2513 2362 2170 1792 1928 1711 1529 1360 728 0 0 0 0 0
8 10 8 3 0 0 0 0 0 0 0 0 0 0 0 0 0 88 328 653 1192 1377 2022 2278 2390 2684 2767 2947 3048 2596 2186 1422 1723 1799 1346 1332 1211 931 597 344 150 18 0 0
7 13 8 6 4 0 0 0 0 0 0 0 0 0 0 0 0 0 0 0 37 418 1315 1481 2143 2046 2043 2197 2238 2133 1592 1209 1291 1015 881 555 600 455 452 548 412 118 0 0
8 12 12 7 1 0 0 0 0 0 0 0 0 0 0 0 3 0 0 0 0 74 306 1004 1735 1855 1768 1752 1586 1101 823 271 632 591 436 349 355 302 307 300 244 189 132 23
0 0 0 2 1 16 0 0 0 0 1 0 0 14 2 18 20 101 83 31 36 29 172 635 1612 2230 1586 1095 707 419 293 373 126 521 267 310 289 236 177 168 168 163 229 51
1 0 0 0 41 76 23 14 20 46 34 11 16 63 82 93 201 100 66 49 460 189 392 867 1611 1491 1518 948 795 447 376 347 343 303 165 71 104 125 122 133 153 166 32 1
19 23 33 44 40 51 55 30 25 46 31 17 29 67 80 123 110 131 222 252 430 683 868 1344 553 1048 1419 836 436 471 287 198 157 63 100 40 146 172 160 192 206 302 157 214
28 8 6 17 21 36 49 24 33 42 59 63 63 90 158 22 128 282 372 430 575 686 689 689 690 922 964 377 34 209 160 177 168 257 216 208 139 87 78 22 121 90 78 178
42 24 20 35 20 25 23 42 17 79 119 48 220 227 177 177 30 154 267 175 364 405 313 168 391 387 328 106 108 254 225 158 131 165 172 113 74 56 71 79 27 20 40 58
61 35 30 34 32 36 104 60 103 120 92 133 108 78 149 54 253 175 178 291 197 19 99 236 62 0 62 3 153 153 104 83 77 72 52 24 18 22 33 37 44 48 30 33
59 44 43 35 48 68 58 46 84 100 122 108 129 29 16 24 80 210 182 133 162 6 10 0 0 0 0 10 24 18 14 5 5 3 2 0 0 1 1 2 3 4 3 1
113 149 158 84 65 100 130 28 39 38 23 194 23 4 0 8 77 41 57 4 0 0 0 0 0 0 0 14 14 10 6 1 0 0 0 0 0 0 0 0 0 5 5 0
159 244 176 284 228 240 131 87 275 72 116 226 199 146 67 78 37 36 23 63 4 0 13 0 0 0 0 1 31 43 37 29 22 19 16 11 8 7 2 0 1 7 9 10
198 141 119 112 89 76 61 73 58 56 48 72 78 81 89 79 76 66 190 52 60 49 34 93 79 40 37 28 41 58 61 72 41 29 12 9 6 13 16 9 5 4 2 0
18 5 26 23 26 18 19 20 45 34 38 23 8 35 68 63 49 48 28 50 37 50 52 67 78 93 55 74 65 59 58 74 24 39 36 36 38 32 27 26 19 7 5 4

GFSNGP_con_sbcape_006.txt.gz
CAPE
0 0 0 0 0 0 0 0 0 0 0 130 165 325 149 130 183 246 467 1167 1395 1697 1867 1603 1677 1655 1628 1692 1851 2084 2980 3479 3617 3873 3699 3673 3651 3695 3545 3754 3581 3256 2284 1796
0 0 0 5 0 0 0 0 0 0 0 0 48 80 458 191 185 240 269 323 1473 1756 2678 3069 2035 1862 1623 1580 1666 1956 2497 2932 3372 3777 3991 3843 3676 3868 3780 3965 3474 3008 1751 1312
0 0 1 22 0 2 0 0 0 0 0 0 24 149 386 657 294 268 212 306 749 2044 2196 2485 2677 2102 1747 1701 1914 1966 2718 2983 3205 3856 4180 3919 3848 3902 4051 3750 3062 2374 1402 833
32 160 82 0 0 1 1 1 0 0 0 0 0 7 19 20 89 135 325 157 251 24 2129 2803 2820 2269 2257 2127 2416 2374 3885 3379 3603 4259 4287 4050 3961 3915 3938 3077 2521 2206 1381 483
234 273 48 36 44 96 42 16 6 4 45 4 0 0 1 0 0 22 6 698 388 54 662 2759 2845 2786 3152 2704 2547 3865 3544 4180 4254 4794 4511 4336 3990 3665 3252 2494 2239 1995 1191 592
179 82 177 262 460 351 331 238 821 773 632 427 123 34 0 13 65 30 4 61 1062 1165 1337 3201 3335 2997 3180 3471 3238 3121 4110 4405 4825 4808 4412 3628 3215 2622 2115 2311 2333 2279 1347 975
65 44 0 457 380 216 417 469 883 825 841 801 618 813 1087 1189 1930 1538 264 578 952 2823 3010 3586 3637 3414 3398 3566 3765 3715 4535 4557 4951 4665 3946 2878 2285 2092 2098 2392 2648 1797 844 736
204 395 330 523 111 213 892 800 707 675 779 870 1143 1125 1009 854 1228 1365 1277 686 2009 4164 4416 4217 4052 4062 4215 4253 4459 4620 4556 4704 4758 3749 2548 2233 2207 2302 2334 2083 1613 1386 1220 1029
22 23 260 942 1179 856 759 770 1149 1435 1053 702 668 828 1106 1146 1351 1530 1297 2249 2325 3604 4212 4361 4474 3991 4091 4425 4265 4164 4194 4476 3869 2873 2343 2208 2583 1893 1625 1970 1631 1433 1405 1843
158 324 908 803 582 530 697 1119 1149 1185 1309 1536 1516 1206 1288 1433 1691 2162 2513 2826 2777 2934 3252 3783 3856 4089 4332 4276 4228 4115 4068 3337 2779 2562 2882 2908 2419 2123 1851 1792 1691 1435 2028 1699
269 1421 863 694 600 615 604 744 687 366 305 479 982 1053 1533 2102 2295 2519 2616 2831 3295 3511 3829 4095 4517 4167 4229 4437 4300 3549 2942 2526 2253 2136 2235 2169 542 789 1244 0 278 1838 2014 1698
770 867 778 487 238 30 30 127 42 17 13 108 228 265 360 1107 1160 1477 1889 2115 2509 3281 3441 3136 3485 3866 4068 4046 3478 2982 2551 2344 2456 1990 1854 712 64 0 0 0 0 0 0 161
4 11 0 0 0 0 0 0 0 0 0 0 3 221 31 212 155 717 1417 2372 2902 3127 3394 3436 3336 3230 3548 3707 3156 3013 2652 2650 1850 1873 1837 1330 888 405 0 0 0 0 0 0
0 9 4 2 1 0 0 0 0 0 0 0 0 0 0 0 16 308 862 1892 2248 2528 2692 2942 2930 3006 3164 3021 2926 2799 2702 1902 2204 1975 2197 2114 1970 1496 1014 32 0 0 0 0
34 13 8 14 3 0 0 0 0 0 0 0 0 0 2 23 1 89 232 228 929 1810 2399 2671 3033 3255 3045 3018 3141 3340 2369 2170 1848 1968 2234 1713 1569 1143 1118 389 367 0 0 0
1 0 8 4 0 0 0 0 0 0 0 0 0 24 8 0 103 383 452 389 901 1516 2215 2011 2262 2669 2691 2428 2555 2214 2111 1369 1510 674 681 1089 911 755 610 412 12 0 0 0
8 1 0 0 4 1 0 0 0 0 0 0 0 13 38 126 187 59 66 260 738 1051 1353 1987 1794 2288 2520 2226 2053 1619 1057 1019 130 428 740 612 490 327 343 307 359 262 72 0
9 10 0 0 0 0 0 0 0 0 0 0 16 110 157 151 267 359 400 970 896 1045 917 1800 1925 1982 1401 1553 1687 850 544 652 777 490 248 507 455 297 157 81 103 160 96 0
5 19 21 28 29 0 0 6 11 64 68 57 112 180 164 254 182 646 743 883 744 868 1062 1565 615 1088 1198 454 337 187 129 214 430 15 59 48 92 165 164 149 154 125 0 0
17 3 12 31 2 0 19 71 66 111 51 106 150 178 210 152 190 292 395 491 612 899 1167 770 1271 1288 1096 732 77 415 247 63 56 156 10 145 105 204 204 21 99 90 133 158
58 42 40 64 16 47 52 45 91 73 200 172 252 258 282 239 351 350 320 305 265 60 150 82 598 801 769 345 92 296 0 172 95 95 151 17 54 53 93 87 41 86 78 99
109 118 102 121 149 142 130 75 81 115 179 189 211 129 267 184 253 306 293 188 42 0 0 29 0 0 0 0 141 25 161 102 13 53 64 52 59 55 56 30 28 90 60 49
181 188 257 177 151 176 96 159 111 156 282 59 60 131 113 50 95 73 69 34 0 0 0 0 0 0 0 1 8 80 83 40 46 35 5 1 1 0 0 0 0 10 44 26
240 169 34 249 141 290 307 301 48 173 185 71 89 51 81 11 43 84 57 0 0 0 0 0 0 0 0 0 3 12 4 3 0 0 0 0 0 0 0 0 0 0 5 0
42 167 220 248 39 5 36 12 9 39 134 111 94 87 172 108 82 41 46 11 0 3 18 0 0 0 0 0 2 2 33 27 23 26 22 12 1 5 13 4 0 6 8 13
144 25 27 155 23 0 5 11 13 1 0 66 4 9 19 62 2 51 76 40 32 12 34 103 90 17 19 23 14 15 24 31 33 50 27 35 12 4 0 27 9 7 9 2
11 1 12 1 0 0 0 0 0 0 0 0 0 0 16 15 8 6 0 13 14 16 8 20 8 37 9 16 17 22 56 58 12 20 37 25 40 32 38 37 57 49 18 5

GFSNGP_con_sbcape_009.txt.gz
CAPE
0 0 0 0 0 0 0 0 0 0 0 0 0 101 65 97 92 53 140 463 389 591 582 1040 1203 1285 1380 1585 1922 2886 3182 3250 3052 3054 3060 3115 3052 3002 2375 2356 2130 1888 1248 1209
0 0 0 0 0 0 0 0 0 0 0 0 0 0 303 167 23 1 424 887 645 663 597 644 931 1062 1298 1549 1885 2245 2912 3068 2909 2981 2954 3076 3027 2996 2879 2456 2384 2145 1681 1268
0 0 0 0 0 0 0 0 0 0 0 0 0 0 41 82 149 2 8 595 714 827 1485 717 891 1056 1287 1502 1638 2030 2511 2881 2869 2737 2926 2875 2937 2844 2944 2827 2838 2592 1728 1143
0 0 11 0 0 0 0 0 0 0 0 0 0 0 7 0 0 0 0 27 342 700 1060 1836 1073 1045 1247 1366 1630 1828 1983 2603 2714 2934 2842 3088 3036 2962 3146 2993 2828 2218 1426 796
0 0 0 0 0 0 0 0 36 286 158 2 0 0 0 0 0 0 0 0 0 209 951 1427 1614 1245 1067 1148 1416 1489 1637 1983 2548 2682 3057 3269 3169 3067 3221 2996 2263 1931 1173 485
0 0 0 0 52 187 147 206 730 560 487 372 264 82 20 433 921 72 5 0 0 47 28 1556 1612 1495 1238 1144 1264 1250 1391 1889 2373 2558 3046 3467 3238 3045 2603 1972 1653 1554 1031 288
25 0 0 76 257 177 92 467 489 398 439 545 460 479 466 476 1084 1221 936 491 0 247 626 1659 1896 1764 1526 1382 1257 1629 1353 2766 3153 3618 3634 3049 2429 1754 1483 1564 1625 1673 1291 342
86 91 69 436 336 413 658 856 1193 1180 1401 654 497 392 518 802 1022 1226 991 871 3022 1358 1945 2357 2324 2429 2325 1759 1827 3109 3429 4129 3858 2973 2584 1955 1520 1474 1502 1582 1404 886 573 380
0 47 366 440 222 483 511 924 1001 1067 1463 1228 1099 1475 1588 1385 1358 1576 2108 2964 3059 3538 3725 3716 3013 3010 3591 3878 3781 3786 4066 3429 2449 2071 1820 1424 1279 1402 1419 1037 853 689 571 519
127 0 176 101 181 859 565 331 120 582 721 489 446 391 363 578 1410 2273 2303 2681 2871 3086 3111 3307 3457 3587 3701 3648 3692 3870 3172 2399 1816 1604 1603 1457 1155 1090 1168 1141 970 677 682 735
142 549 528 454 314 417 300 53 0 15 44 37 14 7 10 1 35 461 1630 2742 2990 3102 3573 3476 3427 3473 3363 3431 3381 2667 2178 1705 1593 1567 1575 127 0 161 77 0 396 883 984 665
186 77 28 113 4 12 4 4 0 0 21 0 0 0 0 0 0 0 3 301 2496 2941 3157 3273 3402 3226 2832 2421 2102 1989 1750 1541 1678 1369 59 0 0 0 0 0 0 0 4 144
35 0 0 0 0 0 0 0 0 0 0 0 0 0 0 0 0 0 0 0 763 2095 2600 2750 3104 2894 2613 2288 2041 1846 1750 1653 1621 742 262 37 0 0 0 0 0 0 0 0
0 0 0 0 0 0 0 0 0 0 0 0 0 0 0 0 0 0 0 0 545 2031 2116 2106 2311 2805 2594 2399 2142 2095 2084 1745 1622 1135 675 340 106 0 0 0 0 0 0 0
12 1 0 8 0 0 0 0 0 0 0 0 0 0 0 0 0 0 20 17 423 1577 2534 2627 2581 2584 2480 2316 2216 1969 1796 1702 1692 1577 1197 710 465 297 0 0 0 0 0 0
64 9 0 0 0 0 0 0 0 0 0 0 0 0 1 0 0 0 7 78 452 593 904 2028 2562 2544 2546 2466 2451 2149 1816 1717 1573 1464 917 1015 857 821 82 0 0 0 0 0
2 0 1 0 0 0 0 0 0 0 0 0 0 0 0 0 0 55 48 183 226 525 659 874 1039 1229 1319 1236 970 916 319 72 215 527 720 640 524 120 113 1 0 0 0 0
0 0 0 0 0 0 0 0 0 0 0 0 0 0 0 1 0 0 50 46 107 355 482 284 269 381 1 1 0 299 264 0 42 43 32 6 0 0 2 8 0 2 0 0
24 15 0 0 0 0 0 0 0 0 0 0 26 8 17 28 7 14 2 5 18 11 63 288 634 675 39 4 52 41 24 11 20 11 0 0 0 0 0 3 7 0 0 0
33 30 7 22 23 34 19 31 33 46 64 22 16 14 26 64 113 109 131 98 75 116 108 148 432 419 0 2 50 41 52 14 8 6 0 1 0 0 0 0 0 0 0 0
11 44 37 58 66 52 69 54 66 21 57 112 61 77 88 105 83 69 51 27 19 8 48 3 0 44 61 40 43 36 14 4 26 23 18 2 0 0 0 0 0 10 1 0
70 49 87 91 78 40 21 54 62 86 19 32 96 70 94 105 95 40 17 0 0 0 0 0 0 0 0 1 0 0 3 4 0 0 0 0 0 0 0 0 0 1 16 14
39 116 119 35 129 89 63 61 17 99 116 119 22 14 29 77 82 45 0 0 0 0 0 0 0 0 0 0 0 31 21 14 0 0 0 0 0 0 0 0 0 0 0 0
1 6 13 0 8 7 0 8 1 11 7 1 0 2 6 11 34 51 14 0 0 0 0 0 0 0 0 0 0 0 43 29 0 0 0 0 0 0 0 0 0 0 0 0
14 7 0 0 0 0 2 18 0 0 5 1 0 0 3 14 5 12 46 6 3 1 18 0 0 0 0 0 0 0 0 0 0 1 0 0 0 0 0 0 0 0 0 0
5 0 0 0 0 0 0 0 0 0 0 0 0 0 0 0 0 0 0 0 3 5 47 35 6 0 0 0 0 0 0 0 0 0 0 0 6 0 0 0 0 0 0 0
0 0 0 0 0 0 0 0 0 0 0 0 0 0 0 0 0 0 0 0 0 0 0 0 0 0 0 0 0 0 0 0 0 0 0 0 0 0 0 0 0 0 0 0

GFSNGP_con_sbcape_012.txt.gz
CAPE
0 0 0 0 0 0 0 0 0 0 0 0 0 0 0 0 0 4 60 2 2 58 181 561 827 870 1216 1703 1983 2322 2487 2667 2618 2607 2560 2543 2338 2043 1773 2066 1292 939 604 784
0 0 0 0 0 0 0 0 0 0 0 0 0 0 0 0 0 0 0 6 76 128 332 610 875 930 1087 1562 2252 2363 2615 2699 2723 2782 2703 2679 2718 2566 2037 1957 1990 1072 724 524
0 0 0 0 0 0 0 0 0 0 0 0 0 0 0 0 0 0 0 137 190 266 517 613 906 1025 1017 1515 2088 2550 2707 2873 2898 2776 2725 2687 2723 2700 2599 2070 1733 1514 923 773
0 0 0 0 0 0 0 0 0 0 0 0 0 0 0 0 0 0 0 1 298 308 446 688 922 1103 1195 1310 1815 2442 2608 2833 3023 2910 2750 2690 2729 2768 2642 2575 2044 1885 1328 1006
0 0 0 0 0 0 0 0 0 0 0 0 0 0 0 0 0 0 0 0 3 240 457 487 675 965 1217 1317 1559 1861 2292 2589 2795 2828 2622 2684 2611 2764 2582 2648 2413 2250 1564 1119
0 0 0 0 0 3 0 227 179 0 0 0 0 0 0 0 404 0 0 0 0 0 336 1096 541 790 989 1192 1481 1653 1921 2250 2648 2694 2543 2547 2669 2688 2700 2665 2610 1848 1352 1059
0 0 0 14 14 54 51 37 57 6 0 0 5 0 0 9 589 508 281 35 0 0 0 347 1211 714 742 941 1232 1541 1808 1996 2208 2543 2563 2540 2745 2738 2842 2455 2189 1713 987 297
0 2 151 0 30 47 109 931 882 968 551 814 892 1028 955 444 400 737 443 438 1579 28 0 0 576 1004 799 782 937 1269 1482 1595 1609 2221 2421 2772 2735 2540 2252 1850 1689 1281 673 340
0 0 0 0 177 414 440 500 499 511 487 471 604 501 654 1146 1494 1731 1775 1857 2025 2077 992 2197 900 1287 1114 939 941 954 1046 1537 1995 2462 2721 2584 2266 1934 1502 1353 1169 749 618 220
0 0 0 421 526 199 42 155 64 27 9 11 87 14 0 0 67 151 72 159 101 532 1898 2727 2420 1771 1290 1148 1218 1571 2567 3015 2721 2367 2034 1805 1371 1334 982 812 681 482 461 334
0 0 0 11 124 99 0 0 0 0 0 0 0 0 0 0 0 0 0 0 0 0 0 0 1927 3123 3036 2839 3199 3060 2640 2381 1990 1381 1418 357 0 323 389 246 397 438 257 253
107 1 2 1 2 2 0 0 0 0 0 0 0 0 0 0 0 0 0 0 0 0 0 0 0 423 3267 3154 2693 2210 1829 1749 1351 145 1 1 1 1 0 0 2 306 334 201
42 0 0 0 0 0 0 0 0 0 0 0 0 0 0 0 0 0 0 0 10 1 0 0 50 4 1309 1947 1891 2020 1831 1274 448 101 0 0 0 0 0 0 0 0 0 1
7 1 0 0 0 0 0 0 0 0 0 0 0 0 0 0 0 0 0 25 327 249 235 399 79 145 584 722 825 1292 972 400 209 91 4 1 14 0 0 0 0 0 0 0
12 0 0 0 0 0 0 0 0 0 0 0 0 0 0 0 0 0 15 78 185 336 643 1097 834 829 924 888 983 1012 1029 750 449 185 58 0 0 0 0 0 0 0 0 0
0 0 0 0 0 0 0 0 0 0 0 0 0 0 0 0 0 0 0 4 82 106 46 216 447 460 827 1134 1032 1014 936 872 800 457 144 64 0 0 0 0 0 0 0 0
0 0 0 0 0 0 0 0 0 0 0 0 0 0 0 0 0 0 0 0 0 0 0 2 0 2 13 35 221 124 199 575 589 607 664 509 428 25 0 0 0 0 0 0
0 0 0 0 0 0 0 0 0 0 0 0 0 0 0 0 0 0 0 0 0 0 0 0 0 0 0 0 35 49 30 132 82 219 204 188 156 69 28 0 0 0 0 0
3 6 5 0 0 0 0 0 3 2 0 6 0 0 1 0 2 0 0 0 0 0 0 0 0 0 0 0 1 16 11 1 0 0 0 0 0 0 28 5 0 0 0 0
9 7 23 42 11 0 30 41 58 33 10 12 3 22 2 1 5 2 0 0 0 2 4 0 0 0 0 0 2 0 0 0 0 0 0 0 0 0 0 14 2 0 0 0
45 82 42 19 31 56 74 34 11 12 21 4 40 32 2 2 0 0 0 0 0 0 0 0 0 0 0 0 17 14 3 0 0 0 0 0 0 0 0 0 0 0 0 0
19 20 50 21 21 10 10 16 5 15 2 0 0 19 7 0 0 0 0 0 0 0 0 0 0 0 0 0 0 0 0 4 0 0 0 0 0 0 0 0 0 0 0 0
1 0 0 0 0 0 0 0 0 0 0 0 0 0 0 0 0 0 0 0 0 0 0 0 0 0 0 0 0 2 5 2 0 0 0 0 0 0 0 0 0 0 0 0
0 0 0 0 0 0 0 0 0 0 0 0 0 0 0 0 0 0 0 0 0 0 0 0 0 0 0 0 0 0 0 0 0 0 0 0 0 0 0 0 0 0 0 0
0 0 0 0 0 0 0 0 0 0 0 0 0 0 0 0 0 0 0 0 0 0 0 0 0 0 0 0 0 0 0 0 0 0 0 0 0 0 0 0 0 0 0 0
0 0 0 0 0 0 0 0 0 0 0 0 0 0 0 0 0 0 0 0 0 0 0 0 0 0 0 0 0 0 0 0 0 0 0 0 0 0 0 0 0 0 0 0
0 0 0 0 0 0 0 0 0 0 0 0 0 0 0 0 0 0 0 0 0 0 0 0 0 0 0 0 0 0 0 0 0 0 0 0 0 0 0 0 0 0 0 0

GFSNGP_con_sbcape_015.txt.gz
CAPE
0 0 0 0 0 0 0 0 0 0 0 0 0 0 0 0 0 0 0 0 0 0 0 1 18 224 568 779 1168 1161 1279 1540 1607 1604 1673 1650 1509 1285 1211 1185 1089 816 566 617
0 0 0 0 0 0 0 0 0 0 0 0 0 0 0 0 0 0 0 0 0 0 0 2 54 305 528 985 1228 1441 1511 1631 1738 1851 1923 1906 1860 1642 1367 1270 1287 801 740 590
0 0 0 0 0 0 0 0 0 0 0 0 0 0 0 0 0 0 0 0 0 0 0 3 164 401 556 1064 1194 1753 1754 1855 1935 1924 2109 2144 2077 1955 1703 1428 1514 942 742 624
0 0 0 0 0 0 0 0 0 0 0 0 0 0 0 0 0 0 0 0 0 0 0 72 338 594 686 1003 1373 1738 1954 1984 2147 2203 2178 2261 2305 2233 2070 1689 1784 1139 879 545
0 0 0 0 0 0 0 0 0 0 0 0 0 0 0 0 0 0 0 0 0 0 9 170 444 714 847 927 1366 1879 2017 2140 2277 2414 2379 2439 2427 2483 2407 2156 1729 1669 1193 953
0 0 0 0 0 0 0 0 0 0 0 0 0 0 0 0 0 0 0 0 0 0 35 177 475 891 974 981 1366 1928 2220 2284 2442 2588 2525 2489 2527 2485 2548 2563 2141 1833 1666 1402
0 0 0 0 0 0 0 0 0 0 0 0 0 0 0 0 2 35 2 64 2 0 7 169 348 812 1033 1088 1163 1605 2059 2380 2413 2613 2692 2574 2480 2479 2602 2619 2399 2174 2049 1680
0 2 0 21 39 100 60 1 212 88 168 166 256 435 642 721 799 590 485 814 1564 1478 946 483 0 368 876 1088 1231 1314 1597 1798 2182 2376 2669 2512 2475 2439 2532 2654 2513 2435 2099 872
1 0 0 0 1 101 51 96 77 286 396 401 441 142 39 52 2 0 0 0 0 3 46 11 1270 843 438 629 1049 1297 1417 1522 1591 2096 2414 2332 2420 2552 2672 2710 2543 1992 1107 659
61 10 25 108 8 16 10 23 13 7 0 0 0 0 0 0 0 0 0 0 0 0 0 0 0 100 304 938 720 856 1159 1392 1506 1872 2275 2342 2534 2698 2672 2423 2188 1436 922 554
95 27 20 76 0 0 0 0 0 0 0 0 0 0 0 0 0 0 0 0 0 0 0 0 0 0 0 0 19 641 838 1114 1370 1776 2354 1953 1042 1629 2243 1177 1354 819 556 300
18 58 4 1 0 0 0 0 0 0 0 0 0 0 0 0 0 0 0 0 0 0 0 0 0 292 162 0 0 500 1693 2120 2125 2067 105 1 0 0 1 1 322 260 200 149
307 9 0 0 0 0 0 0 0 0 0 0 0 0 0 0 0 0 0 8 41 61 75 0 164 266 3 0 0 0 1202 2045 864 125 157 391 581 283 0 1 0 2 2 0
139 4 1 0 0 0 0 0 0 0 0 0 0 0 0 0 0 0 1 1 15 97 245 503 616 24 0 0 2 0 0 26 280 285 391 336 269 65 0 0 0 1 2 0
26 12 0 0 0 1 0 0 0 0 0 0 0 0 0 0 0 0 0 0 2 28 13 35 76 208 0 25 127 93 7 11 51 53 47 0 0 0 0 0 0 0 0 0
1 0 0 0 0 0 0 0 0 0 0 0 0 0 0 0 0 0 0 0 0 2 1 0 0 0 46 117 143 16 82 77 102 2 0 0 0 0 0 0 0 0 0 0
0 0 0 0 0 0 0 0 0 0 0 0 0 0 0 0 0 0 0 0 0 0 1 1 0 0 0 0 0 152 178 68 35 22 1 0 0 0 0 0 0 0 0 0
0 0 0 0 0 0 0 0 0 0 0 0 0 0 0 0 0 0 0 0 0 0 0 0 0 0 0 0 0 0 21 79 97 86 56 19 0 0 0 0 0 0 0 0
0 0 0 0 0 0 0 0 0 0 0 0 0 0 0 0 0 0 0 0 0 0 0 0 0 0 0 0 0 0 0 0 0 11 0 0 1 4 0 0 0 0 0 0
36 4 0 0 3 0 8 9 0 1 1 14 0 0 0 0 0 0 0 0 0 0 0 0 0 0 0 0 0 0 0 0 0 0 0 0 0 0 0 0 0 0 0 0
23 16 8 8 15 7 0 0 0 0 0 15 0 0 0 0 0 0 0 0 0 0 0 0 0 0 0 0 0 0 0 0 0 0 0 0 0 0 0 0 0 0 0 0
0 0 0 0 0 0 0 0 0 0 0 0 2 0 0 0 0 0 0 0 0 0 0 0 0 0 0 0 0 0 0 0 0 0 0 0 0 0 0 0 0 0 0 0
0 0 0 0 0 0 0 0 0 0 0 0 0 0 0 0 0 0 0 0 0 0 0 0 0 0 0 0 0 0 0 0 0 0 0 0 0 0 0 0 0 0 0 0
0 0 0 0 0 0 0 0 0 0 0 0 0 0 0 0 0 0 0 0 0 0 0 0 0 0 0 0 0 0 0 0 0 0 0 0 0 0 0 0 0 0 0 0
0 0 0 0 0 0 0 0 0 0 0 0 0 0 0 0 0 0 0 0 0 0 0 0 0 0 0 0 0 0 0 0 0 0 0 0 0 0 0 0 0 0 0 0
0 0 0 0 0 0 0 0 0 0 0 0 0 0 0 0 0 0 0 0 0 0 0 0 0 0 0 0 0 0 0 0 0 0 0 0 0 0 0 0 0 0 0 0
0 0 0 0 0 0 0 0 0 0 0 0 0 0 0 0 0 0 0 0 0 0 0 0 0 0 0 0 0 0 0 0 0 0 0 0 0 0 0 0 0 0 0 0

GFSNGP_con_sbcape_018.txt.gz
CAPE
0 0 0 0 0 0 0 0 0 0 0 0 0 0 0 0 0 0 0 0 0 0 0 0 0 13 60 145 377 629 735 771 892 992 962 1023 1222 1172 1043 973 972 813 916 931
0 0 0 0 0 0 0 0 0 0 0 0 0 0 0 0 0 0 0 0 0 0 0 0 0 86 178 296 546 733 910 956 1066 1193 1245 1205 1144 1244 1255 1144 1192 946 865 976
0 0 0 0 0 0 0 0 0 0 0 0 0 0 0 0 0 0 0 0 0 0 0 0 0 182 268 464 691 849 1004 1138 1304 1386 1454 1525 1426 1297 1253 1234 1228 1064 1016 985
0 0 0 0 0 0 0 0 0 0 0 0 0 0 0 0 0 0 0 0 0 0 0 0 0 23 283 415 757 1108 1142 1210 1448 1620 1647 1658 1709 1599 1488 1360 1304 1248 1122 1021
0 0 0 0 0 0 0 0 0 0 0 0 0 0 0 0 0 0 0 0 0 0 0 0 0 19 283 565 912 1205 1422 1448 1593 1755 1825 1848 1915 1898 1802 1647 1467 1480 1304 1044
0 0 0 0 0 0 0 0 0 0 0 0 0 0 0 0 0 0 0 0 0 0 0 0 0 88 372 653 1043 1207 1665 1727 1812 1906 1902 1926 2117 2107 2035 1926 1751 1737 1374 1087
0 0 0 0 3 1 0 0 0 1 0 0 0 0 0 163 432 392 811 492 0 0 0 0 0 245 497 609 978 1342 1580 1835 1946 2083 2175 2097 2237 2337 2358 2295 2115 1926 1612 1417
0 0 0 0 36 96 0 0 1 1 0 0 0 89 265 64 46 34 234 653 613 577 776 985 119 260 514 624 841 1149 1530 1861 2013 2228 2324 2291 2450 2480 2548 2568 2569 2117 1839 1785
0 0 0 1 0 8 0 1 1 1 0 0 11 30 27 0 0 0 0 0 0 0 0 13 396 358 490 558 780 495 1124 1527 2130 2272 2513 2598 2611 2620 2637 2642 2592 2281 1976 2031
27 20 6 64 37 0 0 0 0 0 1 0 0 0 0 0 0 0 0 0 0 0 0 0 0 0 0 0 592 927 554 1022 1492 2141 2443 2725 2681 2615 2713 2740 2717 2309 2213 1839
0 0 78 191 14 0 0 0 0 0 0 0 0 0 0 0 0 0 0 0 0 0 0 0 0 0 0 0 0 321 1271 607 1136 1600 1733 2560 2613 2469 2678 2796 2659 2549 2136 1074
0 0 44 84 4 0 6 0 0 0 0 0 0 0 0 1 1 1 1 1 5 66 61 0 0 0 0 0 0 0 580 1465 960 1418 1736 2326 196 1 27 1356 1138 1005 730 416
45 117 92 105 0 0 8 9 0 0 0 0 0 0 0 0 0 0 0 0 0 4 120 245 255 12 0 0 0 0 0 1184 1548 1463 1212 181 512 316 0 0 1 4 40 85
37 105 238 112 33 0 0 0 0 0 0 0 0 0 0 0 0 1 0 1 0 0 22 156 198 117 26 0 26 7 0 104 478 603 385 568 273 295 128 154 49 0 0 1
14 52 125 49 14 1 0 0 0 0 0 0 0 0 0 0 0 0 0 0 0 0 0 0 24 12 45 305 316 2 0 52 3 18 57 264 119 93 20 11 1 1 3 3
51 30 10 19 10 1 0 0 0 0 3 0 0 0 0 0 0 0 0 0 3 2 1 0 0 0 1 108 169 3 0 0 0 0 2 1 0 1 2 0 1 1 2 1
40 25 103 1 0 0 0 0 0 0 0 2 0 0 0 0 0 0 0 0 0 0 0 1 1 0 0 0 51 198 4 3 0 8 1 2 2 21 3 2 1 2 0 0
11 0 0 0 0 2 0 0 0 1 0 0 0 0 0 0 0 0 0 0 0 0 0 0 0 0 0 0 0 1 1 4 11 3 4 3 2 2 1 0 0 0 3 1
12 3 0 0 0 0 7 0 0 1 0 0 0 0 0 0 0 0 0 0 0 0 0 0 0 0 0 0 0 0 0 0 1 1 2 0 1 2 2 1 0 0 0 0
9 5 0 0 0 0 0 0 0 0 0 0 0 0 0 0 0 0 0 0 0 0 0 0 0 0 0 0 0 0 0 0 0 0 0 1 7 1 0 0 0 0 0 0
0 0 0 0 0 0 0 0 0 0 0 0 0 0 0 0 0 0 0 0 0 0 0 0 0 0 0 0 0 0 0 0 0 0 0 0 0 1 1 1 0 0 0 0
0 0 0 0 0 0 0 0 0 0 0 0 0 0 0 0 0 0 0 0 0 0 0 0 0 0 0 0 0 0 0 0 0 0 0 0 0 0 0 0 0 0 0 0
0 0 0 0 0 0 0 0 0 0 0 0 0 0 0 0 0 0 0 0 0 0 0 0 0 0 0 0 0 0 0 0 0 0 0 0 2 0 0 0 0 0 0 0
0 0 0 0 0 0 0 0 0 0 0 0 0 0 0 0 0 0 0 0 0 0 0 0 0 0 0 0 0 0 0 0 0 0 0 0 0 0 0 0 0 0 0 0
0 0 0 0 0 0 0 0 0 0 0 0 0 0 0 0 0 0 0 0 0 0 0 0 0 0 0 0 0 0 0 0 0 0 0 0 0 0 0 0 0 0 0 0
0 0 0 0 0 0 0 0 0 0 0 0 0 0 0 0 0 0 0 0 0 0 0 0 0 0 0 0 0 0 0 0 0 1 1 0 0 0 0 0 0 0 0 0
0 0 0 0 0 0 0 0 0 0 0 0 0 0 0 0 0 0 0 0 0 0 0 0 0 0 0 0 0 0 0 0 0 0 1 2 2 2 0 0 0 0 0 0

GFSNGP_con_sbcape_021.txt.gz
CAPE
0 0 0 0 0 0 0 0 0 0 0 0 0 0 0 0 0 0 0 0 0 2 662 913 893 1035 1075 1084 1404 1502 1774 1741 2058 2327 2394 2447 2453 2452 2448 2486 2382 2461 2607 2616
0 0 0 0 0 0 0 0 0 0 0 0 0 0 0 0 0 0 0 0 0 0 171 446 849 1122 1090 1158 1334 1590 1878 1873 1954 2312 2512 2518 2554 2567 2541 2497 2482 2514 2507 2586
0 0 0 0 0 0 0 0 0 0 0 0 0 0 0 0 0 0 0 0 0 0 81 554 632 1108 1133 1260 1411 1656 1570 2019 2198 2280 2447 2512 2537 2602 2553 2534 2494 2547 2510 2576
0 0 0 0 0 0 0 0 0 0 0 0 0 0 0 0 0 0 0 0 0 0 0 774 337 360 1010 1139 1584 1754 1956 2189 2325 2387 2423 2497 2462 2555 2678 2644 2576 2655 2554 2582
0 0 0 0 0 0 0 0 0 0 0 0 0 0 0 0 0 0 0 0 0 0 0 333 598 1083 1398 1434 1685 1867 1983 2202 2366 2442 2456 2578 2615 2592 2623 2708 2768 2692 2698 2684
0 0 0 0 0 0 0 0 0 0 2 0 0 0 0 0 0 0 0 0 0 0 0 29 182 279 1276 1292 1672 2060 2170 2248 2364 2652 2708 2754 2807 2891 2820 2738 2723 2593 2771 2774
0 0 0 0 0 65 10 0 0 0 0 68 88 0 0 0 10 215 316 0 0 10 394 510 658 486 1517 1643 1986 1864 2024 2314 2825 2867 2910 2984 3082 3100 3120 3081 2828 2875 2856 2813
1 0 0 0 0 0 91 62 38 25 0 2 56 256 0 375 1036 1589 1496 604 396 1133 1439 1310 987 1458 1582 1877 1882 2134 2345 2680 3179 3198 2880 2904 3362 3412 3380 3176 3034 3002 2909 2771
0 0 0 0 0 11 117 87 65 26 1 3 56 356 311 1005 1076 933 545 650 1563 1479 1017 1093 1472 1890 2047 2042 1885 2159 2500 3096 3273 3306 3489 3488 3539 3519 3481 3333 2906 2803 2507 2337
14 0 0 0 0 20 82 60 42 23 11 20 183 218 566 300 87 17 0 0 0 1 123 329 518 656 947 951 2228 2314 2467 2908 3196 3294 3646 3767 3352 3420 3449 3247 2871 2981 2703 2523
51 4 0 0 0 25 95 29 68 10 3 5 24 16 0 0 0 0 0 0 17 287 399 284 335 285 126 137 218 511 1564 2353 2344 2698 3067 3581 3806 3718 3601 3603 3224 3115 3131 2783
4 24 30 0 25 100 93 133 36 0 37 17 19 2 1 2 3 2 27 335 598 818 792 482 89 91 114 179 153 212 344 426 803 1440 2041 2576 3253 3524 10 277 2121 2394 2463 2392
46 13 6 10 7 14 97 208 59 49 87 40 8 4 1 3 13 7 0 1 7 64 163 603 859 822 705 602 685 513 448 334 552 1344 1484 1393 2650 2948 1995 294 1 163 542 275
37 13 1 3 4 123 216 197 36 38 5 4 4 40 76 57 74 110 130 157 217 250 474 804 645 92 228 778 413 540 206 22 586 3 0 164 638 1216 1540 176 666 0 1 0
4 1 3 10 48 91 78 154 22 8 0 0 0 0 0 3 11 10 69 98 49 42 37 106 261 172 301 791 434 213 197 328 174 0 0 0 0 0 0 98 371 0 1 0
12 27 37 29 80 37 52 16 0 0 0 0 0 0 0 0 0 0 1 11 41 37 54 131 107 118 270 304 616 224 259 0 30 169 17 0 0 0 0 0 1 3 0 0
5 4 29 25 105 75 24 37 18 12 12 4 4 0 0 0 0 0 0 0 0 0 3 11 66 162 185 328 367 259 43 69 0 40 38 25 1 5 0 0 0 0 13 0
22 47 0 0 46 52 39 50 29 25 4 0 0 0 0 0 0 0 0 0 0 0 0 4 7 147 158 76 250 156 42 57 18 7 13 8 9 7 3 14 5 1 2 2
43 16 0 36 78 91 76 23 24 6 0 0 0 0 0 0 0 0 0 0 0 0 2 3 0 3 11 0 37 49 180 59 5 9 16 5 11 12 11 7 3 3 2 3
4 3 6 4 4 6 9 4 0 0 0 0 0 0 0 0 0 0 0 0 4 2 0 0 0 0 0 0 0 0 5 15 15 35 36 15 31 10 5 1 8 12 6 2
3 2 1 0 1 0 0 0 0 0 0 0 0 0 0 0 0 0 0 0 0 0 0 0 0 0 0 0 0 0 0 1 3 1 0 3 15 8 6 6 6 5 2 1
1 2 1 0 0 0 0 0 0 0 0 0 0 0 0 0 0 0 0 0 0 0 0 0 0 0 0 0 0 0 0 0 0 1 3 4 4 4 4 1 1 2 2 0
0 0 0 0 0 0 0 0 0 0 0 0 0 0 0 0 0 0 0 0 0 0 0 0 0 0 0 0 0 0 0 0 0 0 0 0 0 0 1 3 4 5 2 3
0 0 0 0 0 0 0 0 0 0 0 0 0 0 0 0 0 0 0 0 0 0 0 0 0 0 0 0 0 0 0 0 0 0 0 0 0 0 0 0 0 0 2 0
0 0 0 0 0 0 0 0 0 0 0 0 0 0 0 0 0 0 0 0 0 0 0 0 0 0 0 0 0 0 0 0 3 1 0 0 0 0 0 0 0 0 0 0
0 0 0 0 0 0 0 0 0 0 0 0 0 0 0 0 0 0 0 0 0 0 0 0 0 0 0 0 0 0 0 0 0 0 1 3 3 1 0 0 0 0 0 0
0 0 0 0 0 0 0 0 0 0 0 0 0 0 0 0 0 0 0 0 0 0 0 0 0 0 0 0 0 0 0 0 0 0 0 0 0 1 3 3 3 2 2 1

GFSNGP_con_sbcape_024.txt.gz
CAPE
0 0 0 0 0 0 0 0 0 0 0 0 0 0 0 0 0 0 0 0 0 47 400 966 1112 1816 2448 1913 1976 1845 2559 2154 3165 3581 3817 3829 3836 3937 3869 4042 3965 4086 4048 4112
0 0 0 0 0 0 0 0 0 0 0 0 0 0 0 0 0 0 0 0 0 0 57 349 914 1355 1446 2260 1893 2122 2885 2826 3153 3729 3999 3985 4071 4112 4102 4058 4102 4166 3980 4092
0 0 0 0 0 0 0 0 0 0 0 0 0 0 0 0 0 0 0 0 0 0 0 58 136 857 1315 1720 1815 2554 2907 3275 3509 3859 3969 4129 4059 4184 4147 4154 4156 4213 4167 4155
0 0 0 0 0 0 0 0 0 0 0 0 0 0 0 0 0 0 0 0 0 0 0 0 3 2 927 1388 2597 2791 3275 3401 3628 3560 3827 3815 4179 4179 4206 4134 4016 4130 4131 4180
0 0 0 0 0 0 0 0 0 0 0 0 0 0 0 0 0 0 0 0 0 0 0 77 0 46 386 1449 1830 2207 3311 3425 3568 3482 3524 3769 4153 4213 4189 4073 4095 4082 4089 4269
0 0 0 0 0 0 0 0 0 0 0 0 35 0 0 0 0 0 0 0 0 0 0 0 15 70 627 1188 1661 2424 3127 2921 3575 3826 3919 3879 4046 4280 4297 4238 3987 3341 3824 4109
1 0 0 0 0 41 1 94 28 5 1 87 299 180 511 544 217 6 1 16 15 0 0 41 390 420 619 1310 1792 2263 2410 2453 3307 3898 4107 4100 4291 4390 4181 4078 3638 4119 4088 4134
2 1 0 0 0 0 53 63 22 22 4 36 271 562 627 703 886 262 83 325 797 6 78 774 1443 1508 1402 2811 2191 2583 2836 2733 3625 4005 3385 3028 4475 4524 4221 4140 4221 4208 4173 3995
8 0 0 0 0 0 0 0 0 0 0 0 1 320 794 1200 822 651 855 1283 1488 799 1623 1966 2277 2369 2469 2454 2427 2547 2759 3175 3162 3370 3398 3921 4378 4243 3663 4337 3465 3640 3401 3406
27 0 9 3 0 0 0 0 0 0 0 0 0 188 923 1193 1082 1152 808 891 1103 1580 1601 2071 2834 3096 3317 3097 2920 3072 3267 3406 3425 3596 3582 3511 3290 3419 3453 3379 3552 3362 3347 3567
62 54 19 12 0 0 0 9 1 0 2 1 4 25 993 1077 833 550 353 506 998 1128 1196 1295 1265 1139 1061 1198 1538 2956 3161 3181 3408 3402 3520 3571 3936 3400 3350 3883 3188 3595 3515 3326
37 22 38 34 22 9 21 3 2 2 0 60 29 72 70 108 253 514 729 1018 1183 1146 1125 865 902 1185 1481 1474 1569 1359 1152 1041 1178 1624 1939 2663 2889 3468 877 1127 510 271 228 2470
46 83 82 74 51 0 0 0 0 4 83 100 73 56 66 145 193 126 401 375 536 724 1105 1380 698 305 485 1399 1268 1312 1249 1203 1244 1203 1688 1568 1747 2031 2344 1366 868 653 531 395
22 22 29 22 18 11 36 19 16 85 129 5 113 64 66 217 347 422 675 659 835 985 1064 1089 491 264 752 887 1050 1109 945 173 665 677 883 1166 1231 1136 1129 1349 1519 1924 951 0
13 8 9 28 27 4 12 163 137 105 1 0 174 284 110 219 109 202 218 142 181 283 356 423 652 786 419 1143 1077 890 726 711 406 70 0 0 129 99 5 51 38 124 2 0
12 8 11 49 43 25 33 50 0 27 1 13 18 74 92 38 19 12 8 5 1 8 54 257 508 405 731 601 816 691 551 0 40 477 338 347 315 251 0 1 12 22 6 6
19 10 16 79 120 70 28 0 4 5 17 15 15 1 0 0 1 1 4 3 4 12 30 12 323 349 280 668 476 385 462 149 0 27 13 34 159 10 6 8 1 19 31 2
7 4 73 132 61 23 31 82 73 43 25 0 0 1 2 1 7 3 4 4 2 4 12 16 45 201 82 334 373 484 290 65 69 45 25 17 15 16 21 22 35 18 6 0
11 7 45 78 18 22 11 4 7 0 4 1 0 2 5 4 6 6 4 1 4 2 2 0 0 0 1 0 68 153 233 405 154 177 138 5 8 8 10 9 8 5 8 1
5 13 2 1 4 2 3 5 5 2 20 5 1 2 8 15 9 3 0 1 5 2 0 0 0 0 3 0 0 0 6 42 18 17 12 68 78 29 21 1 4 4 4 3
4 4 2 3 4 4 4 5 1 0 1 6 1 0 0 0 0 0 0 0 0 0 0 0 0 0 0 1 0 0 0 0 7 12 13 17 18 14 15 13 9 10 5 4
1 3 3 1 2 3 1 0 0 1 0 0 0 0 0 0 0 0 0 0 0 0 0 0 0 0 0 0 1 0 0 0 0 0 0 0 1 2 5 6 10 6 5 7
0 0 0 0 0 0 0 0 0 0 0 0 0 0 0 0 0 0 0 0 0 0 0 0 0 0 0 0 0 0 2 0 0 0 0 0 0 0 0 1 5 5 3 2
0 0 0 0 0 0 0 0 0 0 0 0 0 0 0 0 0 0 0 0 0 0 0 0 0 0 0 0 0 0 0 4 5 3 4 0 0 0 0 0 0 0 1 1
0 0 0 0 0 0 0 0 0 0 0 0 0 0 0 0 0 0 0 0 0 0 0 0 0 0 0 0 0 0 0 0 0 2 8 7 6 6 5 3 0 0 0 0
0 0 0 0 0 0 0 0 0 0 0 0 0 0 0 0 0 0 0 0 0 0 0 0 0 0 0 0 0 0 0 0 0 0 0 0 0 0 0 0 2 6 10 8
0 0 0 0 0 0 0 0 0 0 0 0 0 0 0 0 0 0 0 0 0 0 0 0 0 0 0 0 0 0 0 0 0 0 1 1 1 1 0 0 0 0 0 0

GFSNGP_con_sbcape_027.txt.gz
CAPE
0 4 0 0 0 0 0 0 0 0 0 0 0 0 0 0 0 0 0 0 0 18 180 611 1795 2852 3022 2312 2731 2641 3274 3276 3466 4075 4280 4353 4339 4309 4348 4407 4411 4463 4443 4410
0 0 0 0 0 0 0 0 0 0 0 0 0 0 0 0 0 0 0 0 0 0 0 476 848 2085 2558 3291 2740 2674 3536 3382 3734 4110 4402 4489 4520 4526 4632 4496 4550 4546 4510 4401
5 0 1 0 0 0 0 0 0 0 0 0 0 0 0 0 0 0 0 0 0 0 0 47 443 810 1344 2903 3011 3016 3278 3948 3724 4198 4337 4558 4674 4698 4612 4628 4631 4608 4520 4512
19 8 11 0 0 0 0 0 0 0 0 0 0 0 0 0 0 0 0 0 0 0 0 0 0 0 1042 1052 3411 3665 3845 3718 4127 4063 4403 4575 4672 4674 4719 4655 4594 4621 4616 4654
8 16 0 0 0 0 0 0 0 0 0 0 0 0 0 0 0 0 0 0 0 0 0 49 0 0 0 962 2517 3614 3745 4143 3918 4196 4402 4563 4605 4630 4678 4648 4635 4556 4629 4671
12 4 35 12 0 0 0 0 0 0 0 0 0 0 18 425 384 112 23 11 10 0 0 0 8 0 0 120 1393 3443 3843 4067 4257 4447 4460 4573 4618 4731 4720 4705 4654 4486 4562 4620
9 2 3 19 29 12 7 312 180 11 7 11 25 298 674 694 791 703 710 583 258 347 348 84 67 46 978 1129 1539 2618 3011 3685 4483 4609 4724 4678 4693 4812 4855 4804 4512 4685 4583 4602
14 12 2 0 0 55 26 6 12 21 7 6 49 144 228 405 863 1156 1034 661 102 352 828 417 230 789 2248 2740 2981 3726 3900 4010 4497 4657 4190 4002 4873 4854 4902 4877 4810 4717 4726 4502
6 10 9 0 1 1 0 0 0 1 3 0 0 0 1 259 1114 1453 1149 1263 1216 1330 1113 1229 2193 2362 2572 4149 3558 4047 4421 4652 4712 4733 4641 4632 4854 4919 4471 4743 4000 4138 3963 4136
13 1 0 0 0 0 0 0 0 0 0 0 0 0 6 369 1503 1467 1383 1379 1330 1707 1942 2432 3376 3110 3281 3674 3198 3057 3641 4194 4268 4311 4509 4511 3660 3951 3761 3608 3680 3727 3495 3869
8 12 2 2 2 0 0 0 0 0 1 0 0 0 85 482 1747 1521 1278 1076 1662 1865 2230 2264 2304 2179 2145 2342 3354 3575 3778 3775 3926 3697 3899 4317 4346 3437 3536 4096 3328 3602 3607 3375
59 41 30 5 1 0 0 0 0 0 0 0 0 0 113 403 1089 1566 1481 1696 1943 2052 1762 1633 1876 1951 2027 2053 2097 2197 3133 3449 3233 3273 3604 3648 3602 3990 3049 2716 1624 1303 289 839
84 46 41 53 39 26 0 8 0 0 0 0 0 23 200 335 672 539 729 869 1177 1601 1331 1077 603 1071 1643 1810 1894 1941 2055 1996 1506 857 1348 1514 1930 2167 2288 1413 1296 1835 55 0
20 29 99 70 62 81 36 26 5 0 0 0 0 31 67 161 473 788 1091 1649 1735 1233 1352 1025 769 1254 1391 1513 1827 1811 1179 277 1168 1148 1316 1581 1691 1427 1079 800 731 618 35 0
42 29 18 42 26 24 4 59 69 59 37 50 55 34 82 136 625 979 1217 1103 864 591 687 875 787 995 1149 1118 1385 947 973 1024 913 542 229 223 621 693 410 212 172 8 1 0
35 23 19 41 38 22 12 43 25 14 83 13 59 4 160 273 54 76 107 342 346 232 525 429 553 800 701 869 942 773 433 15 146 683 593 705 590 522 170 69 37 43 1 0
24 15 2 8 27 16 16 32 15 109 6 40 4 3 139 26 3 23 11 62 105 40 109 430 500 641 761 634 513 448 374 315 46 366 308 288 361 361 270 236 134 2 1 0
1 3 5 5 16 105 110 128 109 38 25 19 11 3 2 0 7 36 40 44 49 33 11 21 85 57 117 309 352 543 347 201 94 55 40 70 25 16 10 8 7 4 0 7
24 20 33 58 232 182 28 49 10 5 5 8 9 5 6 6 1 0 0 0 3 9 26 20 0 0 0 0 10 33 142 58 32 16 90 32 58 9 10 8 9 9 9 10
4 11 7 7 8 6 13 11 10 7 8 1 0 6 2 29 21 2 0 1 17 3 0 0 15 12 0 0 0 5 17 7 9 7 0 7 2 6 9 1 6 10 8 9
10 5 5 5 5 5 12 6 5 3 2 0 7 0 0 0 0 0 0 0 0 0 0 0 0 14 10 12 4 0 0 1 6 13 9 6 7 6 9 7 6 3 6 2
53 13 5 7 7 8 12 6 6 9 3 0 0 0 0 0 0 0 0 0 0 0 0 0 0 0 0 4 9 10 2 1 1 1 0 0 0 0 2 2 2 1 3 4
5 11 30 0 0 2 0 0 0 0 0 9 6 1 0 0 0 0 0 0 0 0 0 0 0 0 0 0 1 5 13 15 10 2 0 0 0 0 0 0 0 2 6 4
8 32 12 8 6 0 0 0 0 0 0 0 0 0 0 0 0 0 0 0 0 0 0 0 0 0 0 0 0 0 0 3 3 8 10 0 7 11 13 10 7 4 0 0
1 6 4 6 4 1 3 0 0 0 0 0 0 0 0 0 0 0 0 0 0 0 0 0 0 0 0 0 0 0 0 0 0 2 2 2 1 1 1 1 1 0 7 9
0 1 3 2 1 2 8 3 0 0 0 0 0 0 0 0 0 0 0 0 0 0 0 0 0 0 0 0 0 0 0 0 0 0 1 2 4 5 3 0 0 0 0 0
0 0 2 4 2 0 0 0 0 0 0 0 0 0 0 0 0 0 0 0 0 0 0 0 0 0 0 0 0 0 0 0 0 0 0 0 3 5 5 8 10 9 5 1

GFSNGP_con_sbcape_030.txt.gz
CAPE
0 0 7 0 0 0 0 0 0 0 0 0 0 2 0 6 215 309 592 842 1207 1264 1670 1931 2291 2535 2677 2484 2444 2505 2620 3393 3519 3624 3915 3700 3645 3678 3786 3394 3481 3416 3551 3610
6 0 0 4 0 0 0 0 0 0 2 0 0 26 5 33 22 38 71 117 238 494 661 1453 2926 3005 2762 2776 2913 2815 2856 2923 3217 3521 3713 4075 3933 3857 3941 3884 3771 3860 3789 3656
0 0 0 2 2 0 0 0 0 0 11 8 4 22 2 0 0 0 0 0 0 87 588 1014 1441 3500 3232 3052 3090 3470 3296 3377 3355 3583 3736 3932 4094 4111 3970 4049 4023 4004 3992 3968
0 0 2 0 3 1 0 0 0 0 43 200 103 51 0 0 0 0 0 0 68 0 13 496 162 478 1999 3242 3699 3480 4006 3837 4189 4077 3856 4021 4085 4181 4212 4180 4216 4117 4176 4186
0 1 0 10 0 0 0 1 5 4 12 1 0 0 0 0 0 0 0 14 35 0 0 882 435 687 1139 1448 3423 3518 3292 3752 3689 4328 4192 4157 4236 4245 4299 4357 4288 4317 4257 4301
0 0 2 0 0 0 0 1 402 40 0 0 0 0 641 897 763 757 749 991 1329 971 858 455 1589 492 1504 1564 2778 3301 3327 3498 3976 3759 4187 4207 4309 4399 4413 4467 4442 4404 4393 4341
0 0 0 0 0 0 11 121 85 97 113 89 268 839 632 210 446 841 1165 1278 1301 1348 1315 2392 2410 1692 2935 2489 2116 3228 3455 3777 4181 4460 4157 4249 4444 4552 4550 4572 4530 4490 4442 4442
0 0 0 0 0 26 62 0 0 0 0 0 0 0 55 50 291 902 1462 1347 982 1414 1474 2031 1850 2288 2773 3552 4227 4239 4593 4149 4479 4705 4231 4280 4578 4752 4632 4558 4545 4496 4534 4467
0 0 62 0 0 0 0 0 0 0 0 0 0 0 0 277 594 1697 2084 1896 1679 2169 2780 3437 3167 4420 4355 4951 4848 4729 5226 4998 4712 4951 4628 4407 4710 4640 4584 4624 4557 4543 4493 4434
1 0 0 0 0 0 0 0 0 0 0 0 0 0 0 216 475 1314 2315 2031 1510 2116 2816 4430 4845 4804 4775 4964 4386 4626 5171 5377 5159 5109 4847 4702 4555 4590 4536 4459 4452 4428 4257 4309
14 0 0 0 0 0 0 0 0 0 0 0 0 0 0 7 385 653 1769 2463 3102 3361 2996 2888 2878 2903 2840 3321 4160 4356 4562 4849 5083 4746 4748 4802 4663 3992 4532 4386 4012 4159 4086 3915
7 20 49 25 1 0 0 0 0 0 0 0 0 0 0 99 552 733 1106 1526 2364 2724 2215 2400 2309 2241 2574 2555 3146 4330 4902 4560 4356 4096 4431 4137 4403 4407 3757 2245 76 1 0 408
1 0 0 0 0 0 0 0 0 0 0 0 0 0 0 11 369 408 693 1158 1434 2050 1523 1488 1406 1637 1846 2142 2597 3213 3229 3725 2297 2100 3069 4577 4418 4767 4480 157 0 0 0 0
0 5 1 0 0 0 0 0 0 0 0 0 0 0 0 12 73 672 1225 1265 1449 1465 1228 1015 1166 1775 1782 2296 2697 2327 1947 536 2013 2133 2102 1835 1533 1492 1386 1406 1752 843 23 0
11 1 0 1 2 27 13 0 0 0 0 0 0 1 1 7 69 450 1216 869 922 1082 1091 1351 1109 1188 1460 1800 1702 1351 2033 1453 1256 862 718 861 1519 1466 876 874 839 546 246 0
0 4 9 0 3 7 3 1 1 0 0 0 0 0 23 2 38 277 518 412 512 334 501 738 1072 927 1729 1556 1377 567 390 78 522 1294 975 1278 1084 881 754 702 414 287 28 0
11 17 1 22 24 26 24 16 3 0 6 6 24 87 46 58 80 31 0 0 0 0 0 6 421 575 1208 1114 842 594 345 401 192 407 308 278 290 223 181 108 98 44 4 0
23 10 3 1 5 8 13 18 31 86 104 109 106 45 75 35 10 1 3 1 5 0 0 2 4 1 0 109 489 414 289 114 96 55 16 8 3 2 2 5 8 4 0 0
9 12 8 10 21 21 24 7 6 6 4 2 9 4 3 6 5 4 0 0 0 0 0 4 0 0 0 0 1 3 12 3 1 1 0 4 9 13 13 8 4 3 4 6
6 6 6 4 4 15 17 15 14 12 10 4 2 1 2 7 6 4 0 0 0 0 0 0 0 0 0 0 0 9 5 0 0 0 0 0 0 6 2 0 1 0 3 5
48 30 12 7 12 4 11 6 4 6 6 8 6 4 2 3 1 0 0 0 0 0 0 0 0 0 4 9 5 5 9 9 4 0 0 1 0 0 0 0 1 2 4 4
75 56 35 25 28 8 6 3 7 14 10 4 1 10 10 3 2 2 0 0 0 0 0 0 0 0 0 0 0 1 6 8 4 3 1 0 0 0 0 0 0 0 3 2
67 52 36 36 15 27 1 0 0 0 0 2 9 13 0 0 0 0 0 0 0 0 0 0 0 0 0 0 0 0 0 0 1 6 5 8 12 1 0 1 2 2 5 3
51 12 77 42 9 8 18 14 15 14 8 0 0 0 0 0 0 0 0 0 0 0 0 0 0 0 0 0 0 0 0 1 0 0 0 0 0 0 0 0 1 0 0 0
11 38 13 8 35 37 52 63 30 6 5 12 16 5 0 0 0 0 0 0 0 0 0 0 0 0 0 0 0 0 0 0 0 1 4 6 2 0 0 0 0 0 0 0
3 1 19 36 1 0 3 4 0 0 1 0 0 0 0 0 0 0 0 0 0 0 0 0 0 0 0 0 0 0 0 0 0 0 0 0 5 5 5 2 0 0 0 0
5 0 16 10 5 0 0 0 0 0 0 0 0 0 0 0 0 0 0 0 0 0 0 0 0 0 0 0 0 0 0 0 0 0 0 0 0 0 1 12 12 7 1 0

GFSNGP_con_sbcape_033.txt.gz
CAPE
0 0 0 0 0 0 0 0 0 0 0 0 1 6 17 24 20 96 179 509 825 1231 1414 1494 1258 999 1016 1063 1250 1556 2438 2704 2726 2775 2675 2645 2587 2629 2325 1528 2165 2098 2621 2039
0 0 0 0 0 0 0 0 0 0 0 0 2 5 0 0 0 0 174 492 520 845 1291 1528 1582 1341 1209 1204 1333 1473 2166 2581 2837 2856 2818 2753 2772 2619 2784 2599 1892 2427 2369 2369
0 0 1 0 0 0 0 0 0 0 0 1 13 0 0 0 0 0 0 0 26 81 647 1400 1659 1735 1635 1555 1465 1618 1742 2251 2680 2840 2868 2934 2844 2871 2730 2798 2864 2405 2305 2697
0 0 0 0 0 3 0 0 0 0 9 0 42 134 23 0 0 0 0 0 0 0 0 5 929 1986 1901 1926 1925 1759 1819 1941 2105 2764 2968 2971 3121 2933 3067 2940 3051 3137 2988 2656
0 0 0 0 0 0 3 2 9 325 182 93 570 591 426 533 590 595 454 492 520 315 479 100 0 355 2330 2402 2445 2527 2180 2309 2298 2664 2814 3000 3062 3331 3248 3282 3200 3236 3324 3266
0 0 0 0 0 0 0 4 0 163 344 51 476 407 208 224 480 739 865 848 702 542 276 970 701 385 1058 2340 2516 2440 2655 3038 3262 2826 3062 3005 3171 3264 3402 3459 3484 3496 3429 3561
0 0 0 0 0 0 6 0 0 0 1 115 76 69 7 35 295 998 1165 1132 624 620 445 552 902 311 318 1107 2223 2737 2550 2472 3109 3354 3440 3559 3320 3365 3554 3637 3695 3674 3761 3691
0 5 0 0 0 0 0 0 0 0 0 0 0 0 48 120 348 638 1680 1452 1210 1122 1358 656 699 392 781 1999 2190 2285 2649 2780 3075 3288 3225 3520 3648 3745 3827 3920 3966 3932 3888 3864
0 14 1 0 0 0 0 0 0 0 0 0 0 0 0 50 103 63 1039 1767 2086 1964 1830 3845 3468 3254 2777 3142 3462 3083 3764 3136 3274 3427 3855 3242 3706 4157 4107 4028 4089 4022 3964 3940
0 0 0 0 0 0 0 0 0 0 0 0 0 0 0 0 157 146 193 704 1383 2016 2555 2714 2523 2467 2427 2559 2738 3741 3190 4457 3916 4244 4194 3745 4139 4061 4255 4090 4029 3880 3843 3831
0 3 0 0 0 0 0 0 0 0 0 0 0 0 0 0 52 40 0 119 540 868 1697 2241 2193 1916 2070 2258 2413 2604 3779 4594 4446 4370 4238 4287 3839 3584 3820 2900 3485 3766 3709 3392
0 0 4 0 0 0 0 0 0 0 0 0 0 0 0 0 13 174 153 76 97 495 1269 1753 1527 1337 1341 1879 1963 2414 3672 3907 3891 3825 4130 4099 3932 610 0 36 0 0 364 0
0 0 0 0 0 0 0 0 0 0 0 0 0 0 0 0 0 6 109 228 347 746 1235 1230 1255 1286 1302 1707 1759 1817 2279 2785 2974 2723 3361 3416 3748 1958 0 0 0 0 0 0
0 0 0 0 0 0 0 0 0 0 0 0 0 0 0 0 0 0 53 160 355 936 1120 891 1028 949 1382 1781 1135 833 1282 445 1025 971 519 596 798 1968 50 74 3 0 0 0
2 0 0 0 0 0 0 0 0 0 0 0 0 0 0 0 0 0 0 63 562 1304 1169 1040 805 681 1036 898 286 139 130 198 196 200 374 659 486 212 285 85 1 0 0 0
3 0 1 0 0 0 0 0 0 0 0 0 0 0 0 0 0 8 16 255 609 602 432 638 651 421 1022 541 366 272 91 122 368 155 45 16 17 9 2 1 0 0 0 0
16 1 1 2 0 0 0 0 0 0 0 0 0 0 0 11 0 72 42 9 0 0 0 0 0 0 214 562 303 128 8 0 0 0 0 0 0 0 0 0 0 0 0 1
6 18 4 25 11 0 0 3 2 1 0 0 0 0 0 0 6 1 0 0 0 0 0 0 0 0 0 190 0 0 0 0 0 0 0 0 0 0 1 0 1 1 2 1
13 15 10 8 3 7 4 7 2 3 1 1 2 3 2 1 2 0 0 0 0 0 0 0 0 0 0 0 0 0 0 0 0 0 0 0 0 0 0 0 1 2 2 2
0 2 2 6 5 5 10 7 3 6 6 3 4 3 3 4 2 2 2 2 4 2 0 0 0 0 0 0 0 0 0 0 0 0 0 0 0 0 0 0 0 1 2 3
0 0 1 3 21 10 4 17 9 7 10 17 10 12 10 4 2 0 0 2 3 0 0 0 0 0 0 0 0 0 0 0 0 0 0 0 0 0 0 0 0 0 3 1
6 1 2 0 2 16 19 14 8 3 11 6 10 13 7 4 3 3 4 2 1 0 0 0 0 0 0 0 0 0 0 0 0 0 0 0 0 0 0 0 0 0 0 0
48 16 7 0 0 0 3 2 3 0 3 2 6 2 1 4 0 0 0 0 0 0 0 0 0 0 0 0 0 0 0 0 0 0 0 0 0 0 0 0 0 0 0 0
10 52 7 11 8 0 1 17 4 0 0 0 0 9 4 0 0 0 0 0 0 0 0 0 0 0 0 0 0 0 0 0 0 0 0 0 0 0 0 0 0 0 0 0
34 24 9 3 14 42 3 0 0 13 7 9 0 0 0 0 0 0 0 0 0 0 0 0 0 0 0 0 0 0 0 0 0 0 0 0 0 0 0 0 0 0 0 0
35 44 20 4 0 0 0 0 0 0 0 0 0 0 0 0 0 0 0 0 0 0 0 0 0 0 0 0 0 0 0 0 0 0 0 0 0 0 0 0 0 0 0 0
0 0 0 0 1 0 0 0 0 0 0 0 0 0 0 0 0 0 0 0 0 0 0 0 0 0 0 0 0 0 0 0 0 0 0 0 0 0 0 0 0 0 0 0

GFSNGP_con_sbcape_036.txt.gz
CAPE
0 0 0 0 0 0 0 0 0 0 0 0 0 0 0 0 0 0 482 749 756 802 737 747 611 536 907 1068 1493 1874 1903 1921 1823 1634 1817 1925 1774 1299 1147 1336 1655 780 1156 1431
0 0 0 0 0 0 0 0 0 0 0 0 0 0 0 0 0 0 448 937 1074 1016 950 940 805 682 843 973 1335 1853 2015 2064 2086 2117 1932 2023 2142 2089 1604 1399 1171 1667 1551 1904
0 0 0 0 0 0 0 0 0 0 0 0 8 81 26 0 0 4 273 949 1234 1224 1115 1181 1016 813 822 883 1075 1756 2041 2100 2270 2278 2424 2320 2276 2312 2325 2169 1849 1263 1378 1889
0 0 0 0 0 0 0 0 0 0 33 184 512 448 357 361 7 6 0 0 0 491 942 1196 1143 967 864 919 1020 1166 1562 2157 2290 2521 2521 2583 2548 2455 2460 2450 2578 2364 1775 1609
0 0 0 0 0 0 0 0 0 0 328 500 363 298 276 109 438 154 54 0 62 50 6 239 1394 1383 1191 1068 1123 1207 1324 1447 2298 2495 2782 2740 2672 2688 2654 2681 2566 2587 2665 2382
0 0 0 0 0 0 0 0 0 0 109 167 48 244 90 99 756 1068 279 17 3 0 126 130 19 866 1605 1490 1497 1417 1423 1599 1654 2243 2617 2780 2794 2795 2878 2764 2798 2710 2667 2778
0 0 0 0 0 0 0 0 0 0 0 0 39 38 25 17 38 921 1133 791 657 1119 833 67 5 257 1176 1497 1915 1916 1799 1592 1772 1794 2222 2622 2753 2867 2898 3023 2901 2921 2939 2866
0 0 7 3 0 0 0 0 0 0 0 0 0 0 0 0 0 62 473 1068 1843 2623 2422 2352 1508 1071 1921 1993 1921 1548 1909 2123 2410 2535 2255 2450 2574 2692 2875 2886 3094 3120 3114 3253
12 17 1 20 1 0 0 0 0 0 0 0 0 0 0 0 0 0 2 167 588 1582 1887 1916 1847 1840 1932 1944 2195 2532 2122 2034 2157 2342 2718 2823 2934 2784 2865 3089 3126 3249 3357 3421
1 0 0 0 0 0 0 0 0 0 0 0 0 0 0 0 0 0 0 6 178 540 1593 1604 1586 1556 1686 1600 1694 2009 2527 2875 2397 2450 2717 2636 3046 3306 3312 3426 3539 3571 3633 3690
0 0 0 0 0 0 0 0 0 0 0 0 0 0 0 0 0 0 0 0 11 303 978 1292 1024 922 858 1260 1368 1735 1908 3100 3574 3090 2814 2922 659 1550 3212 3409 3468 3785 3740 3820
0 0 0 0 0 0 0 0 0 0 0 0 0 0 0 0 0 0 0 0 37 206 858 1007 901 862 827 1050 1282 1370 1657 2670 3374 3482 3436 2822 185 0 0 0 2 497 831 16
2 0 0 0 0 0 0 0 0 0 0 0 0 0 0 0 0 0 0 0 0 36 365 693 589 693 718 979 905 756 1104 549 1935 2894 3501 3013 76 0 0 0 0 0 0 0
3 0 0 0 0 0 0 0 0 0 0 0 0 0 0 0 0 0 0 0 1 89 317 623 573 559 889 451 190 394 429 313 1012 945 1769 2438 40 0 0 0 0 0 0 0
3 0 1 1 0 0 0 0 0 0 0 0 0 0 0 0 0 0 0 0 0 205 520 753 584 305 424 197 48 4 70 165 130 128 65 294 303 87 10 0 0 0 0 0
4 0 0 1 0 0 0 0 0 0 0 0 0 0 0 0 0 0 0 0 0 0 0 2 0 0 0 103 2 0 0 0 0 0 0 0 0 0 0 0 2 3 1 0
9 5 3 0 0 1 0 0 0 0 0 0 0 0 0 0 0 0 0 0 0 0 0 0 0 0 0 13 0 0 0 0 0 0 0 0 0 0 1 2 4 4 3 0
4 9 8 5 39 2 5 6 0 1 0 0 0 0 0 0 0 0 0 0 0 0 0 0 0 0 2 0 0 0 0 0 0 0 0 0 0 0 0 0 1 1 1 0
0 2 5 8 7 11 7 3 1 2 2 2 2 2 3 2 1 1 0 0 0 0 0 0 0 0 0 0 0 0 0 0 0 0 0 0 0 0 0 0 1 1 1 1
0 0 0 0 3 5 7 11 10 8 8 5 3 2 2 2 4 3 1 1 2 3 0 0 0 0 0 0 0 0 0 0 0 0 0 0 0 0 0 0 0 0 1 1
0 1 1 0 1 2 7 9 10 8 8 8 7 5 5 6 3 1 1 0 1 1 0 1 0 0 0 0 0 0 0 0 0 0 0 0 0 0 0 0 0 0 0 0
0 0 1 0 0 1 1 5 7 8 11 4 4 7 3 2 5 2 3 2 0 0 0 1 1 0 0 0 0 0 0 0 0 0 0 0 0 0 0 0 0 0 0 0
9 0 0 0 0 0 1 2 0 0 10 18 9 8 11 16 11 3 1 0 0 0 0 0 0 0 0 0 0 0 0 0 0 0 0 0 0 0 0 0 0 0 0 0
39 28 16 7 5 6 0 0 0 3 5 21 32 29 21 13 13 7 0 0 0 0 0 0 0 0 0 0 0 0 0 0 0 0 0 0 0 0 0 0 0 0 0 0
2 7 22 25 2 1 0 0 0 0 0 0 0 0 0 5 11 11 11 0 0 0 0 0 0 0 0 0 0 0 0 0 0 0 0 0 0 0 0 0 0 0 0 0
0 0 0 0 0 0 0 0 0 0 0 0 0 0 0 0 0 0 0 0 0 0 0 0 0 0 0 0 0 0 0 0 0 0 0 0 0 0 0 0 0 0 0 0
0 0 0 0 0 0 0 0 0 0 0 0 0 0 0 0 0 0 0 0 0 0 0 0 0 0 0 0 0 0 0 0 0 0 0 0 0 0 0 0 0 0 0 0

GFSNGP_con_sbcape_039.txt.gz
CAPE
0 0 0 0 0 0 0 0 0 0 0 0 0 0 0 0 0 0 0 176 256 198 70 254 317 278 591 986 1236 1065 1043 1241 1301 1327 1277 1113 845 723 1124 1169 721 575 714 1042
0 0 0 0 0 0 0 0 0 0 0 0 0 10 25 0 0 0 0 77 118 231 258 313 349 315 467 967 1495 1438 1341 1325 1329 1265 1373 1382 1250 1012 790 1076 1441 1069 644 849
0 0 0 0 0 0 0 0 0 0 0 0 56 162 114 115 0 0 0 36 95 261 396 404 425 381 493 842 1260 1636 1567 1537 1506 1395 1336 1483 1562 1484 1280 973 1010 1301 1402 1038
0 0 2 0 0 0 0 0 0 0 0 59 299 276 165 104 397 0 0 47 291 457 535 512 556 492 486 869 968 1564 1720 1762 1764 1762 1656 1553 1661 1827 1823 1632 1304 1200 1088 1229
0 0 0 0 0 0 0 0 0 0 10 307 571 497 386 4 485 73 0 0 177 598 657 626 700 638 624 827 988 1302 1686 1868 1950 1982 2001 2048 1992 1933 2063 2107 2101 1949 1732 1332
0 0 0 0 0 0 0 0 0 0 0 31 370 369 71 0 36 755 1241 356 2 128 538 793 740 681 687 834 864 1002 1461 1850 1996 2126 2223 2235 2361 2368 2262 2308 2319 2352 2450 2402
0 8 1 0 0 0 0 0 0 0 0 0 0 1 0 0 0 54 786 1870 1613 433 38 0 265 876 912 887 958 1028 1039 1113 1509 2142 2281 2466 2446 2461 2510 2516 2556 2539 2501 2428
21 11 5 0 0 0 0 0 0 0 0 0 0 0 0 0 0 0 53 546 1455 1585 1567 1532 1203 960 1107 1770 2096 1274 1064 1086 1231 1406 2198 2314 2558 2605 2556 2633 2662 2638 2589 2610
18 18 4 18 18 0 0 0 0 0 0 0 0 0 0 0 0 0 0 89 542 1243 1256 1192 1298 1394 1558 1496 2041 1587 1581 1609 1392 1507 1528 1821 2352 2464 2664 2660 2772 2863 2840 2795
0 0 0 0 0 0 0 0 0 0 0 0 0 0 0 0 0 0 0 1 149 730 808 666 593 773 1003 1122 1338 1670 1994 2201 1680 2086 2274 2056 2126 2301 2416 2607 2746 2775 2884 2987
0 0 0 0 0 0 0 0 0 0 0 0 0 0 0 0 0 0 0 0 2 124 589 575 444 502 632 999 1181 1401 1595 2136 2913 2148 1552 1422 1 657 1859 2357 2197 2999 3081 3193
3 0 0 0 0 0 0 0 0 0 0 0 0 0 0 0 0 0 0 0 0 0 49 367 280 369 575 691 848 993 1253 1077 1714 2868 2164 141 0 0 0 1 3 429 1718 1244
4 0 0 0 0 0 0 0 0 0 0 0 0 0 0 0 0 0 0 0 0 0 7 210 224 288 524 365 358 461 878 707 365 2435 2575 185 0 0 0 0 0 0 0 0
5 5 11 0 0 0 0 0 0 0 0 0 0 0 0 0 0 0 0 0 0 1 65 259 231 158 158 40 3 14 36 169 610 1219 2412 160 0 0 0 0 0 0 0 0
8 6 4 0 0 0 0 0 0 13 1 0 0 0 0 0 0 0 0 0 0 0 0 47 21 0 0 0 0 14 45 7 0 90 679 0 0 0 0 0 0 0 0 0
7 4 3 2 0 0 0 0 0 0 0 0 0 0 0 0 0 0 0 0 0 0 0 0 0 0 0 0 0 0 0 0 0 0 60 83 0 0 1 1 1 0 0 1
7 4 4 2 35 0 0 0 0 0 0 0 3 0 0 0 0 0 0 0 0 0 0 0 0 0 0 0 0 0 0 0 0 0 0 0 0 1 1 1 1 1 1 1
5 3 3 4 7 10 9 6 5 2 1 3 0 0 0 0 0 0 0 0 0 0 0 0 0 0 0 0 0 0 0 0 0 0 0 0 0 0 0 0 1 1 2 0
0 2 0 1 6 10 9 8 6 5 4 3 2 3 3 2 2 1 1 0 0 1 0 0 0 0 0 0 0 0 0 0 0 0 0 0 0 0 0 0 1 1 1 1
0 0 0 0 0 1 4 11 9 5 8 5 4 3 3 3 2 2 2 2 2 2 1 1 0 0 0 0 0 0 0 0 0 0 0 0 0 0 0 0 0 0 0 0
0 0 0 0 0 0 0 1 2 5 4 4 6 8 5 3 3 4 2 3 1 1 0 2 0 0 0 0 0 0 0 0 0 0 0 0 0 0 0 0 0 0 0 0
0 0 0 0 1 0 0 0 0 0 0 5 3 2 3 5 3 3 2 3 2 3 3 1 0 0 0 0 0 0 0 0 0 0 0 0 0 0 0 0 0 0 0 0
0 0 0 0 0 0 1 0 0 0 0 0 8 2 4 6 6 4 3 1 2 4 8 3 0 0 0 0 0 0 0 0 0 1 2 0 0 0 0 0 0 0 0 0
0 0 0 1 2 1 0 0 0 0 3 0 0 2 0 3 4 1 7 1 1 1 9 1 0 0 0 0 0 0 0 0 0 0 0 0 0 0 0 0 0 0 0 0
0 0 0 0 1 0 0 0 0 0 0 0 0 0 0 1 7 20 19 12 3 1 0 0 0 0 0 0 0 0 0 0 0 0 0 0 0 0 0 0 0 0 0 0
0 0 0 0 0 0 0 0 0 0 0 0 0 0 0 0 0 0 2 13 6 21 12 1 0 0 0 0 0 0 0 0 0 0 0 0 0 0 0 0 0 0 0 0
0 0 0 0 0 0 0 0 0 0 0 0 0 0 0 0 0 0 0 0 0 0 0 0 0 0 0 0 0 0 0 0 0 0 0 0 0 0 0 0 0 0 0 0

GFSNGP_con_sbcape_042.txt.gz
CAPE
1 1 0 0 0 0 0 0 0 0 0 0 0 0 0 0 0 0 0 2 32 66 104 144 182 153 374 351 251 253 357 612 602 606 636 697 905 1136 741 287 392 453 578 656
0 0 0 0 0 0 0 0 0 0 0 0 0 0 0 0 0 0 0 0 7 86 143 115 194 210 388 578 520 428 405 671 758 773 749 710 619 640 1189 1094 853 657 605 739
0 0 0 0 0 0 0 0 0 0 0 0 0 94 47 13 17 116 0 0 0 57 150 96 224 271 372 652 809 765 681 796 993 1069 1116 1050 931 778 733 1011 1252 1125 856 898
0 0 0 0 0 0 0 0 0 0 0 0 12 107 45 7 1 112 121 0 0 90 174 121 244 307 287 723 1184 1148 1069 1100 1235 1295 1299 1308 1288 1192 1041 909 951 1283 1397 1186
0 0 0 0 0 0 0 0 0 0 0 0 6 51 122 0 0 82 790 0 0 50 177 176 251 306 420 854 1386 1479 1447 1442 1454 1452 1371 1369 1462 1506 1458 1413 1195 1066 1137 1326
4 0 25 0 0 0 0 0 0 0 0 0 17 138 22 0 10 93 794 638 1 93 163 209 299 310 575 822 1186 1599 1647 1669 1697 1693 1653 1563 1544 1599 1747 1829 1856 1754 1574 1484
22 7 3 2 0 0 0 0 0 0 0 0 0 0 0 0 18 136 760 1187 395 291 334 316 366 397 638 805 980 1148 1482 1761 1835 1901 1927 1943 1935 1913 1910 2053 2155 2255 2308 2280
25 20 13 15 0 0 0 0 0 0 0 0 0 0 0 0 2 18 283 723 1112 1116 998 596 414 569 677 777 799 771 1117 1610 1885 1995 2128 2201 2225 2322 2404 2364 2405 2478 2510 2562
20 26 0 9 0 0 0 0 0 0 0 0 0 0 0 0 0 0 0 64 470 573 732 900 1123 1411 1588 1539 2000 1072 868 1075 1224 1870 2157 2374 2493 2512 2553 2623 2684 2681 2714 2745
7 2 1 3 0 0 0 0 0 0 0 0 0 0 0 0 0 0 0 0 14 353 401 382 505 781 950 1221 1590 1451 1477 1295 1201 1333 1645 2211 2426 2641 2771 2732 2740 2871 2938 2933
4 0 0 0 0 0 0 0 0 0 0 0 0 0 0 0 0 0 0 0 0 1 133 134 204 401 560 734 1063 1465 1994 2589 1890 1817 1576 1075 7 574 1718 1892 2039 2874 2913 3060
7 0 2 0 0 0 0 0 0 0 0 0 0 0 0 0 0 0 0 0 0 3 3 71 82 360 421 401 482 835 1295 1361 2372 2016 1536 78 0 0 0 1 3 695 2061 2096
10 13 3 0 0 0 0 0 0 0 0 0 0 0 0 0 0 0 0 0 0 1 1 31 20 24 79 1 42 265 558 572 494 2120 850 22 1 0 0 0 0 0 0 0
6 5 1 0 1 1 0 0 0 0 0 0 0 0 0 0 0 0 0 0 0 0 0 0 3 0 0 0 3 6 14 4 380 2255 1043 25 0 0 0 0 0 0 0 0
5 3 2 0 0 0 0 0 0 0 2 0 0 0 0 0 0 0 0 0 0 0 0 0 0 0 0 0 0 4 3 0 72 1029 138 0 0 0 0 0 0 1 2 0
8 3 2 4 1 0 0 0 0 0 0 0 0 0 0 0 0 0 0 0 0 0 0 0 0 0 0 0 0 0 0 0 4 112 0 0 0 2 3 3 2 1 0 0
6 6 5 5 7 7 6 5 0 0 0 23 23 2 0 0 2 0 0 0 0 0 0 0 0 0 0 0 0 0 0 1 0 0 1 0 1 3 3 2 1 1 1 1
0 8 6 5 8 9 8 7 6 6 6 4 4 3 3 3 3 2 2 1 3 1 0 1 1 1 1 1 0 0 0 1 0 0 0 0 1 1 1 1 1 1 1 0
0 0 1 6 6 4 5 5 3 4 5 6 3 4 4 4 5 5 4 2 1 4 3 2 3 2 1 0 0 0 0 1 0 0 0 0 0 0 0 1 1 1 1 1
0 0 0 0 0 0 0 1 2 2 3 3 4 5 4 4 4 4 3 4 5 4 3 2 5 2 0 0 0 0 0 0 0 0 0 0 0 1 0 0 1 1 1 1
0 0 0 0 0 0 0 0 0 4 4 3 4 5 5 3 2 4 3 2 3 4 7 4 3 2 0 0 0 0 0 0 0 1 1 1 1 1 1 0 0 0 0 0
0 0 0 0 0 0 0 0 0 0 2 1 1 2 4 3 2 3 5 7 8 11 5 4 3 3 0 0 0 0 0 0 0 0 0 0 0 0 0 0 0 0 0 0
0 0 0 0 0 0 0 0 0 0 0 0 0 0 5 5 6 3 3 4 11 14 5 5 5 1 1 0 0 1 0 0 0 0 0 0 0 0 0 0 0 0 0 0
0 0 0 0 0 0 0 0 0 0 0 0 0 0 2 5 4 11 6 3 8 9 11 13 7 1 1 3 1 0 2 1 0 0 0 0 0 0 0 0 0 0 0 0
0 0 0 0 0 0 0 0 0 0 0 0 0 0 0 1 1 8 22 17 12 4 3 12 12 5 1 2 0 1 2 0 0 0 0 0 0 0 0 0 0 0 0 0
0 0 0 0 0 0 0 0 0 0 0 0 0 0 0 0 0 0 0 12 18 9 8 7 2 2 2 1 1 0 0 0 1 0 0 0 0 0 0 0 0 0 0 0
0 0 0 0 0 0 0 0 0 0 0 0 0 0 0 0 0 0 0 1 10 2 7 10 2 0 0 0 0 0 0 0 0 0 0 0 0 0 0 0 0 0 0 0

GFSNGP_con_sbcape_045.txt.gz
CAPE
0 0 0 0 0 0 0 0 25 1 5 0 0 0 0 0 0 0 0 3 264 352 540 874 1188 1149 1237 1160 1205 1034 1297 1210 1335 1479 1609 1765 1940 2011 1762 1741 1976 2018 1905 1743
0 0 0 0 0 0 0 0 0 0 1 0 0 0 0 0 4 24 50 1 26 296 654 781 1092 1143 1144 1235 1300 1359 1509 1498 1623 1737 1855 1941 2108 2182 2040 1971 1953 2180 1835 2059
3 0 7 17 0 0 0 0 0 0 0 0 0 244 160 124 132 141 209 446 250 3 682 910 1092 1292 1218 1327 1417 1472 1594 1780 1939 2022 2040 2139 2246 2401 2534 2298 2061 2213 1922 1983
9 13 41 3 15 0 5 0 0 0 0 0 77 503 315 10 1 30 118 318 604 314 36 1001 790 881 1246 1277 1571 1595 1726 1892 2128 2198 2173 2260 2320 2382 2575 2514 2608 2519 2198 2295
69 57 5 130 6 5 31 0 0 0 0 0 249 853 672 0 0 3 55 135 922 890 0 849 1049 1360 1520 1703 1732 1747 1837 1961 2215 2324 2357 2427 2402 2402 2197 2084 2151 2419 2321 2486
38 49 23 7 1 0 0 0 0 0 0 0 356 771 188 0 0 39 440 1111 772 180 5 817 1220 1234 1630 1694 2004 2018 2071 2133 2379 2531 2611 2690 2809 2824 2820 2466 2136 2003 2115 2396
40 36 3 13 6 0 34 1 0 0 0 6 6 2 1 2 0 2 194 879 726 493 1038 1222 1450 1471 1814 2099 2312 2170 2078 2183 2717 2819 2899 3000 3114 3202 2839 2631 2832 2669 2494 2596
25 25 6 7 0 1 2 0 0 0 0 10 0 0 0 0 0 0 77 444 1205 946 1092 1336 1591 1766 2029 2344 2713 2950 3037 2941 3118 3159 2587 2569 3165 3028 2937 3163 3000 3135 3051 2973
10 5 4 14 11 3 1 0 0 0 0 0 0 0 0 0 0 0 1 458 816 1357 1547 1500 1284 1848 1997 2184 2723 2936 3202 3315 3159 3136 2929 3356 3169 3201 2857 3061 2919 3036 3047 3095
11 10 22 7 6 5 0 0 0 0 0 0 0 0 0 0 0 0 0 40 581 1039 1281 1545 1891 2122 2286 2479 1972 2390 2995 3261 3299 3268 3058 3269 2930 3001 3016 3088 3125 3180 3257 3318
11 7 1 0 0 7 3 0 0 0 0 0 0 0 0 0 0 0 0 0 101 534 901 1007 1420 1371 1322 1771 2630 2300 2231 2503 2646 2704 2815 3181 3287 1937 3191 3497 2745 3387 3518 3570
16 15 23 8 8 12 3 1 0 0 0 0 0 0 0 0 0 0 0 0 0 21 612 679 723 657 632 585 1228 2390 3255 2691 2139 2068 2194 2730 993 24 0 0 2 499 2364 3266
24 10 6 1 1 1 4 2 0 0 0 0 0 0 0 0 0 0 0 0 0 0 0 251 308 147 123 424 634 1156 1497 1211 2383 1813 1838 1995 1498 1206 190 0 1 2 3 27
17 5 2 3 10 12 1 0 0 0 0 1 0 0 0 0 0 0 0 0 0 0 0 0 4 9 0 167 534 942 1055 88 1830 2211 1979 1369 1426 1782 1208 834 618 0 0 0
22 6 9 7 14 8 5 3 0 0 0 0 0 1 3 10 7 3 0 0 0 0 0 0 0 0 1 1 457 403 773 1321 2212 1491 1034 1240 1550 1387 1369 568 43 1 1 0
9 8 9 10 10 7 6 8 6 5 3 9 8 9 18 10 10 2 0 0 0 0 0 2 1 1 3 5 145 437 538 11 444 137 159 544 713 675 560 429 90 13 5 8
11 8 10 10 11 12 13 9 8 9 6 5 7 4 2 3 6 7 7 3 3 1 2 7 5 2 3 5 9 347 357 77 2 132 0 1 1 2 5 5 3 3 3 0
3 8 10 17 18 16 10 9 7 7 11 14 8 5 4 5 9 7 8 9 4 0 0 1 2 3 1 2 5 219 132 117 21 17 6 2 1 2 2 2 2 2 1 0
0 0 0 2 6 10 14 11 9 7 11 12 10 8 6 6 8 7 4 8 6 8 4 3 5 2 1 0 3 47 2 1 1 0 1 0 0 1 0 0 1 0 0 0
0 0 0 0 0 0 2 12 16 10 9 11 13 7 5 6 8 8 7 7 9 13 15 3 6 1 3 1 1 1 3 2 1 0 1 1 1 1 0 0 1 2 3 3
11 6 3 0 1 2 1 4 6 9 14 6 10 13 10 7 7 8 5 7 12 16 13 7 9 3 3 2 0 3 0 0 0 1 0 0 1 1 1 0 0 0 0 0
36 28 24 25 28 31 34 20 2 2 16 22 12 7 9 9 7 7 10 9 9 9 12 10 10 7 3 4 0 0 1 0 1 0 0 0 0 0 1 0 0 0 0 0
91 97 78 72 84 104 83 41 21 0 2 11 21 19 21 14 15 10 8 9 8 7 20 13 10 5 0 4 1 1 1 0 0 1 0 0 0 0 0 0 0 0 0 0
86 136 131 144 121 94 21 13 3 25 1 0 5 19 13 20 31 29 17 9 3 2 16 18 11 7 2 2 9 3 2 3 0 0 0 0 0 0 0 0 0 0 0 0
42 10 0 51 33 0 0 0 0 7 20 15 2 1 9 27 25 38 35 13 9 4 4 15 12 8 2 4 9 9 8 11 8 6 2 0 0 0 0 0 0 0 0 0
3 0 0 1 0 0 0 0 0 0 0 0 0 1 1 11 24 34 44 20 9 13 5 3 2 5 3 2 2 3 5 4 3 1 0 0 0 0 0 0 0 0 0 0
0 0 0 0 0 0 0 0 3 2 0 0 4 5 6 8 10 12 7 42 18 15 41 16 8 3 3 2 2 3 2 0 0 0 0 0 0 0 0 0 0 0 0 0

GFSNGP_con_sbcape_048.txt.gz
CAPE
0 0 0 0 0 0 0 4 4 1 36 3 15 0 0 0 0 0 0 12 149 293 734 1627 2038 2512 2154 1441 1699 1418 2055 1288 1994 2458 2441 2509 2778 2746 2336 2708 2456 2427 2413 2252
5 1 0 0 0 0 0 0 0 0 0 0 5 0 0 0 0 0 0 0 0 70 329 806 1362 2230 2536 2532 1956 1922 2548 2185 2482 3012 3033 3057 3239 3339 3164 2898 2840 2617 2481 2417
18 0 1 2 0 0 0 0 0 0 0 13 16 4 0 0 0 37 88 123 236 130 79 448 941 1765 2157 2664 2259 2377 2795 2727 2952 3216 3288 3357 3383 3586 3478 3420 3005 2869 2606 2773
59 29 84 1 0 0 0 0 0 0 0 8 22 24 824 526 397 364 334 357 471 548 657 137 544 857 1489 1699 2769 2813 2997 3027 3188 3404 3253 3539 3631 3702 3858 3273 3453 3294 2894 3398
166 103 30 0 0 9 0 0 0 2 0 0 1 102 1076 499 259 333 430 568 774 862 924 1124 289 723 1500 1444 2019 2626 2992 3226 3308 3405 3333 3362 3484 3638 3428 3243 3312 3209 2980 3532
153 57 36 12 0 0 34 63 95 58 114 40 20 210 375 109 38 117 271 526 876 1398 1639 1392 1397 525 1044 1532 1896 2736 2909 3154 3460 3571 3572 3592 3673 3728 3798 3347 3204 2877 2995 3378
74 80 36 0 0 14 18 112 7 1 0 197 332 58 0 0 0 0 20 407 1205 1626 1727 1543 1177 629 2064 2110 2299 2636 2214 2318 3058 3437 3822 3680 4051 4039 3914 3382 3378 3686 3376 3697
69 47 26 1 5 17 27 4 1 0 0 0 0 0 0 0 0 0 0 813 1682 1224 841 699 562 1774 2847 2827 2782 3047 3111 3070 3566 3839 2883 2856 4149 3936 3781 3737 3843 3935 3691 3391
35 27 3 1 10 49 7 11 4 0 1 0 0 0 0 0 0 0 0 23 1515 1589 1150 1151 1470 1846 2265 3089 3177 3055 3139 3654 3438 3445 3355 3975 3969 3998 3463 3803 3320 3245 3226 3163
10 6 13 13 35 56 26 13 4 4 0 2 1 0 0 0 0 0 0 0 217 1223 1922 2028 1773 1815 2094 2538 3586 3205 3305 3579 3326 3350 3280 3314 3331 3380 3261 3239 3238 3137 3208 3240
6 7 11 30 30 61 27 10 3 2 1 0 3 2 0 0 0 0 0 0 0 132 842 1059 1326 1636 2259 2655 2698 2984 3164 3240 3366 3382 3293 3390 3290 1806 3181 3667 2250 3314 3323 3460
17 17 17 5 39 42 25 6 5 0 0 4 0 0 0 0 2 0 0 0 0 0 32 279 435 728 1102 1865 2709 2447 2530 2735 2927 2939 3255 3293 3445 1893 0 0 1 55 1029 2129
27 17 41 50 22 16 13 7 9 2 8 0 0 0 1 10 10 8 0 3 1 6 2 26 49 72 344 1480 1951 2836 2848 3544 2583 2448 2803 2330 2342 2225 1889 984 0 0 3 97
20 12 11 25 20 8 15 7 8 2 0 0 22 12 10 16 8 5 0 7 11 8 8 12 14 16 26 209 1391 1849 2145 2179 3895 2677 2199 2056 558 62 42 443 1993 2786 0 0
22 23 24 12 10 14 11 10 13 18 17 27 18 17 11 9 5 7 5 2 3 4 4 2 1 4 8 4 133 1456 1601 1331 1540 1339 1084 743 45 2 9 145 1985 2 1 0
16 14 17 15 9 8 11 9 7 9 14 11 14 12 6 7 5 5 4 3 3 3 6 6 6 3 6 10 45 787 911 141 296 978 1012 1851 2068 1766 1904 2037 586 82 6 1
18 14 7 15 18 19 14 20 16 14 10 12 15 14 13 11 9 3 8 4 4 2 3 4 7 3 4 5 20 73 974 816 200 135 154 246 1311 1843 2071 928 259 4 4 0
28 24 24 19 14 16 18 21 17 17 13 14 14 17 14 12 17 12 10 6 3 0 0 2 4 2 0 1 4 106 409 602 709 395 60 1 1 0 1 2 4 1 1 0
31 37 32 32 32 22 18 19 19 15 12 15 15 16 15 10 11 15 21 10 10 7 5 4 0 0 0 0 0 96 40 312 213 168 16 0 7 7 8 5 4 1 0 0
51 39 38 44 49 50 37 31 26 17 17 10 14 11 10 12 17 10 17 15 21 26 16 10 6 0 0 0 0 6 9 3 60 31 9 2 2 1 0 0 1 2 1 1
59 64 51 46 45 47 50 50 37 38 13 22 9 11 12 14 17 15 9 1 13 19 12 7 10 5 0 0 0 15 2 0 0 0 1 1 1 1 1 1 1 1 2 1
58 58 50 49 54 46 49 44 50 47 40 26 20 23 18 16 14 18 16 23 20 8 13 14 7 7 6 2 2 8 17 5 2 0 0 1 2 1 1 0 0 0 0 0
51 52 45 48 33 43 24 21 34 50 50 46 27 18 24 35 33 16 12 16 23 13 21 14 15 3 2 19 11 11 2 2 2 1 0 0 0 0 0 0 0 0 0 0
49 43 42 47 36 21 22 23 25 47 58 43 45 22 19 17 34 29 11 6 7 9 22 22 14 6 3 7 5 4 9 9 8 5 4 0 0 0 0 0 0 0 0 0
55 31 22 34 22 14 20 15 23 26 24 44 48 35 20 13 51 69 19 7 6 6 13 18 17 13 11 13 12 11 9 8 11 10 11 5 3 8 1 0 0 0 0 0
78 51 54 15 8 16 17 14 24 19 26 28 36 41 23 26 14 32 30 16 11 6 13 15 15 15 11 11 11 13 13 7 6 7 4 2 1 0 0 0 0 0 0 0
58 2 55 36 32 28 6 2 28 30 17 31 38 45 49 37 14 34 31 27 19 20 14 36 16 3 2 3 3 1 2 5 2 10 11 4 4 7 8 3 3 1 0 0

GFSNGP_con_sbcape_051.txt.gz
CAPE
0 0 0 0 0 0 0 0 10 11 10 22 27 26 55 9 0 0 0 80 235 573 1427 2261 2289 2718 2621 1750 1961 1413 1795 1665 2160 2647 2528 2676 2586 3199 3256 3579 3629 3930 3955 3740
41 7 0 0 0 0 0 0 0 0 0 0 0 0 0 13 30 0 0 0 33 164 430 1319 2423 2816 2886 2535 2340 1938 2258 1966 2160 2715 2756 2765 2826 3277 3643 3760 3838 3987 3941 3918
43 41 14 6 0 0 0 0 0 0 0 0 0 0 0 11 38 16 21 0 22 0 190 372 906 2405 2488 2939 2418 2639 2836 2491 2717 3146 3153 3179 3211 3544 3763 3865 4080 4223 4114 4035
150 71 48 17 0 0 0 0 0 0 0 0 0 0 0 79 804 745 516 154 223 240 191 110 429 810 1800 2148 3205 3170 2949 3471 3000 3496 3449 3616 3706 3741 3914 3955 4008 4174 4275 4288
250 140 43 21 8 0 11 0 0 0 0 0 0 0 0 0 970 799 830 827 812 808 720 778 332 408 1834 1910 3356 3179 3554 3548 3480 3582 3743 3927 3968 3992 4080 4111 4138 4173 4311 4440
287 134 114 22 18 65 1 1 0 0 0 0 0 0 0 774 1072 885 751 746 898 1020 1057 1130 1254 868 668 1645 2391 3322 3632 3526 3751 3725 3956 4004 4079 4207 4353 4268 4250 3707 4116 4362
372 207 154 47 70 7 7 3 4 18 7 0 0 0 46 166 296 211 533 807 1022 1402 1454 1684 1791 1459 1633 1782 2409 3104 3374 3695 4015 3965 4135 4187 4331 4378 4417 4381 3702 4356 4199 4285
114 109 119 47 47 31 33 0 0 9 49 101 264 501 64 0 1 0 26 115 602 2126 2244 2229 2223 2653 2735 2327 2741 3370 3622 3712 4061 4235 3789 3599 4467 4458 4488 4489 4468 4624 4512 4312
106 59 79 43 17 8 2 16 10 62 376 620 309 103 1 0 0 0 0 1 71 1763 2547 1508 2331 2797 3160 2416 3887 3725 3907 3935 4135 4282 4269 4213 4405 4555 4065 4443 3358 3537 3437 3160
10 9 27 21 5 24 29 25 68 13 0 6 1 1 0 1 0 1 1 0 0 512 2722 2708 2671 2161 2648 4450 4035 4188 4149 4092 4254 4222 4268 4206 3681 3740 3253 3162 3215 2913 2935 2661
14 8 9 14 27 28 50 54 47 7 7 7 7 6 8 10 2 1 3 1 2 2 96 523 1268 1968 2388 3221 3887 3525 4077 4137 3934 3618 3404 3952 3968 2808 3337 1051 1572 2920 2239 1834
28 12 25 10 24 45 48 26 16 17 6 0 0 16 29 44 11 6 0 1 1 1 4 4 5 2 4 397 3651 3524 3696 3336 3481 3036 3404 3548 1957 1136 0 143 1 3 3 465
12 21 18 30 21 10 45 46 28 3 0 21 17 23 58 45 39 19 3 7 8 11 6 8 2 1 2 11 1187 3270 3343 4075 3341 2895 3269 3721 3442 2749 2176 128 2 3 0 0
34 27 13 18 29 18 6 10 21 8 8 7 5 5 12 24 61 22 17 29 16 14 11 9 1 2 1 30 194 2992 3347 2326 3304 3279 3445 3715 3669 3626 2817 2443 1690 1286 0 0
17 36 25 29 28 29 33 26 10 11 6 7 15 11 16 24 8 15 26 9 7 10 9 13 4 4 0 1 15 1115 3036 2988 3030 3434 3386 2879 2610 1771 1118 1075 1236 519 30 1
19 14 15 16 32 33 26 23 24 24 13 14 13 12 9 22 22 17 8 14 3 2 5 13 5 3 2 0 68 180 1145 476 906 1160 955 979 1066 1205 637 550 425 481 86 14
42 31 23 17 20 18 15 31 35 35 38 23 16 13 9 8 8 17 8 5 5 6 2 3 1 1 3 0 0 177 694 614 608 1703 1559 1037 497 616 1448 1252 506 111 11 0
42 39 36 35 23 24 19 26 25 20 32 36 22 12 11 16 18 16 12 11 5 3 2 1 0 0 0 0 0 88 367 400 165 122 114 258 260 544 452 65 0 0 0 0
23 20 22 23 28 42 29 25 17 15 10 13 14 15 16 16 19 13 24 11 13 6 6 3 0 0 0 0 0 0 385 349 158 11 0 0 6 31 4 6 4 0 0 0
40 24 30 31 19 31 26 45 29 30 22 12 8 11 15 22 26 16 14 16 21 15 13 8 1 0 0 0 0 0 2 83 90 18 13 9 10 7 6 0 3 0 0 0
52 50 33 55 28 30 29 14 16 28 34 23 32 23 20 13 15 22 11 12 16 10 11 8 4 0 0 0 0 12 4 39 12 5 1 0 0 2 2 5 14 4 0 0
29 14 42 29 18 22 36 32 9 18 31 30 19 23 20 14 9 11 12 18 12 8 9 10 14 7 5 3 0 3 11 0 2 1 0 0 0 0 0 0 0 0 0 1
72 70 47 57 37 36 38 36 31 22 18 30 30 41 31 48 23 9 11 12 15 17 11 16 11 5 2 1 1 0 0 0 0 0 0 0 0 0 0 0 0 0 0 0
65 51 48 56 44 35 33 37 34 50 49 35 41 55 49 60 49 4 7 8 18 17 23 20 13 7 2 3 3 4 4 8 3 0 0 0 0 0 0 0 0 0 0 0
48 60 45 58 48 27 27 29 26 28 39 66 51 25 55 22 39 24 2 14 23 13 16 19 17 12 7 5 5 5 4 3 3 6 5 2 0 0 0 0 0 0 0 0
99 52 52 30 36 34 32 29 32 28 40 39 36 30 54 43 16 43 10 7 21 15 15 9 11 12 11 8 6 6 6 5 4 3 3 5 4 3 0 0 0 0 0 0
75 2 76 63 55 45 29 31 42 41 23 49 50 34 39 59 19 26 14 22 9 16 42 50 14 2 9 14 21 12 1 0 0 1 1 1 3 3 1 1 3 1 0 0

GFSNGP_con_sbcape_054.txt.gz
CAPE
0 0 0 0 0 0 0 0 0 0 0 0 0 0 1 6 28 66 102 68 192 346 418 1158 1799 1649 1516 1555 1379 1386 1682 1753 2001 2214 1902 1685 1705 1943 1549 2086 2545 2854 2844 3113
9 1 0 0 0 0 0 0 0 0 0 0 0 0 0 0 0 0 0 149 197 25 1758 1548 2064 1888 1790 1680 1619 1498 1521 1664 1893 2166 2090 2106 1799 2045 2206 2128 2561 2852 3060 3067
13 9 7 5 0 0 0 0 0 0 0 0 0 0 0 0 0 0 0 2 182 257 271 641 1589 2168 2072 1936 1831 1735 1803 1791 1901 2309 2451 2165 2374 1919 2436 2329 2526 2847 3080 3255
71 58 53 0 0 0 0 0 0 0 0 0 0 0 0 0 0 0 0 1 1099 140 367 653 266 719 2562 2392 2202 2221 1977 2279 2047 2384 2385 2499 2294 2424 2131 2523 2550 2877 3142 3273
160 138 21 1 1 0 23 5 0 0 0 0 0 0 0 0 0 0 0 0 905 615 659 1229 1172 1263 2358 2883 2484 2354 2372 2372 2304 2224 2420 2405 2376 2355 2335 2675 2848 2888 3135 3417
260 121 49 0 0 0 0 0 0 0 0 0 0 0 0 0 0 20 940 941 792 689 688 853 1270 1232 1326 2195 3019 2364 2375 2543 2829 2210 2706 2564 2542 2575 2650 2837 2980 3009 3127 3307
216 177 25 20 6 41 12 0 2 0 0 0 0 0 0 0 0 493 531 741 820 1008 1273 1527 1620 1660 1702 1644 2152 3102 2493 2780 2977 2880 2731 3071 3139 3107 3104 3238 3218 3306 3238 3357
115 105 63 96 69 75 46 1 0 0 0 0 0 0 0 5 277 377 382 330 456 892 1158 2187 2540 1881 1847 2287 2431 2962 3323 2850 3679 3587 2973 3346 3522 3649 3570 3543 3678 3616 3723 3757
34 55 6 9 20 7 11 2 0 0 0 0 0 0 0 577 377 131 31 78 94 531 1512 3364 2682 3210 2236 2616 2982 3897 3794 3215 3605 3701 3731 3423 3774 3781 3831 3852 3758 3636 3715 3632
13 2 9 6 3 6 10 3 0 0 1 15 0 0 294 179 2 1 2 2 0 78 342 344 351 1085 3584 3098 3370 3458 3567 3681 3589 3948 3792 3537 3840 3786 3880 3805 3834 3734 3391 3566
13 8 11 8 18 31 30 25 22 22 35 4 14 120 2 0 2 4 3 3 2 5 5 4 2 325 845 1252 3149 2842 3926 3705 3573 3695 3430 3814 3499 3727 3797 3668 3404 3514 3361 3147
16 11 12 12 31 19 13 29 55 60 31 14 8 20 6 1 1 6 9 10 5 2 2 3 4 4 34 333 992 4105 3749 3693 3488 3568 3615 3744 3301 1740 0 481 53 771 1215 2679
15 36 18 22 26 28 31 35 41 22 20 10 6 5 28 12 3 20 17 14 3 6 3 1 4 8 3 4 249 2055 3896 3632 3519 3242 3436 3553 3159 1851 645 0 1 2 8 913
6 2 9 10 19 24 10 11 13 9 7 9 6 6 7 4 4 19 18 29 17 8 5 10 3 5 3 4 3 516 3261 2858 3418 3033 3066 3411 3110 2618 1663 976 1037 219 0 0
13 4 12 27 29 24 21 24 15 13 11 9 8 10 8 8 8 10 10 4 17 4 5 13 3 2 2 2 4 451 956 1126 1679 2991 2902 3307 3299 3026 2948 2627 2724 1390 24 1
22 27 10 1 25 20 12 16 17 25 24 29 10 11 15 8 6 7 8 1 7 5 8 12 8 3 2 1 4 21 170 249 760 1633 1980 2706 2887 2409 2654 1922 1558 720 553 160
24 9 15 17 12 29 15 18 31 33 23 34 29 15 12 10 6 15 4 4 11 9 1 4 6 2 2 1 0 3 88 61 149 443 871 1015 1263 1242 1012 836 809 672 261 75
13 8 7 11 24 15 7 18 24 28 23 22 32 32 19 11 15 8 10 6 8 8 1 3 1 0 0 0 0 0 6 3 4 3 94 197 165 537 230 316 28 0 0 0
12 15 29 13 36 48 24 11 5 21 18 29 28 35 33 18 14 10 9 5 6 8 5 1 1 0 0 0 0 0 86 5 4 8 9 1 1 3 3 4 2 1 2 3
96 41 51 37 48 30 37 58 23 5 13 12 23 18 14 14 17 9 8 8 7 3 8 6 5 0 0 0 0 0 11 10 11 10 3 5 4 1 1 0 0 0 0 0
90 85 90 47 39 74 41 29 15 24 19 4 15 31 26 5 13 16 7 4 4 5 8 9 10 5 4 0 0 0 0 0 0 4 0 4 7 5 4 5 1 2 2 0
90 49 76 59 53 52 69 34 28 20 24 41 36 25 3 11 5 6 12 13 18 10 8 7 9 9 0 0 0 0 0 2 1 0 0 0 1 3 7 9 6 7 3 0
98 97 46 75 54 56 32 44 31 53 32 89 37 23 8 9 4 8 10 14 13 15 10 10 11 6 2 0 0 0 0 0 0 0 0 0 0 0 0 0 0 0 0 0
52 67 83 76 59 26 61 67 80 93 65 90 29 9 10 8 5 10 10 8 10 13 15 11 6 3 1 1 1 0 0 0 0 0 0 0 0 0 0 0 0 0 0 0
90 78 61 49 33 26 108 106 66 132 61 51 4 21 0 0 0 2 4 2 0 2 8 7 5 4 1 1 1 2 4 2 1 0 0 0 0 0 0 0 0 0 0 0
107 92 39 56 62 41 20 37 34 29 82 47 42 15 18 1 3 0 2 1 0 0 0 0 0 0 0 0 0 0 0 1 1 1 0 0 0 0 0 0 0 0 0 0
54 0 60 79 29 20 5 23 50 23 42 38 80 63 12 19 8 4 10 18 29 11 13 11 3 0 0 0 0 0 0 0 0 0 0 0 1 1 1 1 0 0 0 0

GFSNGP_con_sbcape_057.txt.gz
CAPE
0 0 0 0 0 0 0 0 0 0 0 0 0 0 0 0 0 0 19 128 19 13 2 309 154 295 415 658 525 1020 1223 1322 1167 914 661 630 204 143 0 1117 553 1430 1498 2090
0 0 0 0 0 0 0 0 0 0 0 0 0 0 0 0 0 0 0 0 0 0 0 150 74 28 0 351 692 636 1271 1422 1327 1102 891 772 741 846 212 107 1461 1011 1247 1637
0 0 0 0 0 0 0 0 0 0 0 0 0 0 0 0 0 0 0 0 0 0 29 35 3 6 0 1 833 815 857 1344 1360 1202 1191 909 835 715 1025 328 465 1497 1633 1728
0 4 1 0 0 0 0 0 0 0 0 0 0 0 0 0 0 0 0 0 150 35 376 394 304 6 0 5 193 911 924 1062 1285 1321 1324 1278 1106 843 942 1089 740 830 1423 1814
6 10 0 0 0 0 0 0 0 0 0 0 0 0 0 0 0 0 0 0 7 0 7 399 187 1 0 3 4 0 1012 1030 1268 1295 1355 1464 1176 1200 898 1195 1311 1113 1466 1768
9 8 0 0 0 1 0 0 0 0 0 0 0 0 0 0 0 0 0 0 0 0 0 61 564 29 1 2 0 14 244 1299 1237 1231 1493 1494 1419 1236 1425 976 1133 1515 1368 1700
23 118 32 0 0 22 10 0 0 0 0 0 0 0 0 0 0 0 0 0 52 178 154 287 504 747 488 168 38 889 1105 1448 1638 1309 1491 1544 1589 1461 1369 1462 1263 1365 1623 1648
6 42 2 0 0 3 1 0 0 0 0 0 0 0 0 0 0 0 0 0 81 60 54 140 692 581 1084 852 841 1542 1854 1660 1543 1636 1472 1696 1559 1586 1486 1473 1513 1533 1794 1885
4 0 0 0 1 0 1 1 0 2 0 0 0 0 0 0 0 0 0 0 0 0 0 88 141 204 674 859 1528 1730 2453 1871 2177 2314 1578 1843 1733 1703 1746 1766 1777 1934 1980 2101
0 0 0 0 2 2 4 14 4 0 4 4 2 0 0 0 0 1 0 0 0 5 37 24 0 0 177 486 712 1310 2422 2874 1945 2463 2187 1636 2280 2052 2170 2215 2222 2134 2275 2266
8 3 13 3 1 12 9 5 7 8 0 0 1 0 0 1 3 4 0 0 0 1 0 0 0 0 0 1 17 521 1770 2922 2514 2455 2270 2248 2440 2469 2514 2532 2486 2441 2407 2439
1 7 17 8 15 14 14 14 15 7 7 2 36 30 7 3 38 4 2 1 0 0 1 1 0 0 0 0 0 27 933 2284 2849 2350 2550 2660 2389 241 2 162 701 1924 2467 2565
0 0 24 5 10 19 28 23 11 18 11 32 7 4 4 27 53 26 17 10 4 4 1 3 0 0 0 1 2 2 405 1874 2833 2408 2618 2705 2621 1791 877 1 2 2 1 960
0 2 2 6 17 6 25 20 26 17 5 17 11 8 11 7 8 5 3 3 1 0 1 2 2 0 0 2 3 2 28 852 2417 2438 2435 2685 2743 2310 1424 234 450 93 1 0
0 0 0 0 12 9 24 23 15 24 21 17 6 9 6 11 9 6 3 1 0 3 1 1 4 1 1 1 4 1 8 344 1348 1722 2405 2578 2689 1949 705 582 611 300 0 1
0 0 8 14 1 10 3 0 5 16 15 13 16 11 12 11 5 8 1 1 1 3 0 1 2 1 2 2 3 2 2 95 235 1450 1705 1904 2389 2124 919 969 895 147 169 24
0 0 0 0 9 3 0 0 0 4 10 14 17 18 28 12 5 3 8 1 3 2 3 2 3 2 3 4 3 1 3 2 59 342 649 1223 1085 546 1272 1297 538 272 105 1
0 0 1 2 8 0 3 1 7 21 21 18 21 17 21 22 10 5 4 5 0 1 1 3 4 8 7 5 5 1 4 3 0 1 1 0 1 12 2 1 2 1 1 1
14 4 26 48 0 15 12 1 2 12 0 4 15 19 22 27 17 5 3 5 3 2 6 6 14 10 3 6 5 1 9 4 3 2 2 1 2 3 1 0 0 0 1 0
39 42 35 34 15 0 9 9 0 0 1 7 29 25 18 16 18 10 8 8 7 10 4 13 12 6 6 3 0 0 14 6 9 3 2 2 6 6 5 3 3 0 0 0
87 67 65 13 28 16 13 5 0 10 11 4 12 4 5 7 14 20 8 6 8 9 7 6 9 4 6 0 0 4 0 0 2 5 7 6 1 4 4 7 6 4 3 0
58 14 34 35 48 47 45 29 6 14 19 13 0 0 0 4 10 12 16 13 11 13 5 4 5 13 2 0 0 0 0 0 0 0 0 1 1 3 1 0 1 1 0 0
46 83 92 1 0 68 64 35 39 9 6 5 0 0 0 0 2 3 6 13 11 14 6 6 9 8 2 0 0 0 0 0 0 0 1 1 1 1 0 0 0 0 0 0
24 186 129 123 6 0 36 41 70 9 1 0 0 0 0 0 0 0 0 1 3 3 1 5 4 3 1 0 0 1 0 0 0 0 0 0 0 0 0 0 0 0 0 0
250 119 98 143 159 0 79 50 26 19 0 0 0 0 0 0 0 0 0 0 0 0 0 5 0 0 0 0 0 0 0 0 0 0 0 0 0 0 0 0 0 0 0 0
96 3 0 113 60 23 15 24 10 17 3 0 0 0 0 0 0 0 0 0 0 0 0 0 0 0 0 0 0 0 0 0 0 0 0 0 0 0 0 0 0 0 0 0
139 0 9 0 14 4 17 8 3 26 44 31 2 6 0 3 0 5 4 2 0 0 0 0 0 0 0 0 0 0 0 0 0 0 0 0 0 0 0 0 0 0 0 0

GFSNGP_con_sbcape_060.txt.gz
CAPE
0 0 0 0 0 0 0 0 0 0 0 0 0 0 0 0 0 8 119 111 0 0 0 0 0 0 26 158 418 611 538 543 394 572 611 176 0 107 2 163 13 134 856 1379
0 0 0 0 0 0 0 0 0 0 0 0 0 0 0 0 0 0 0 0 0 0 1 53 1 0 45 59 250 788 820 810 785 499 662 608 207 0 0 0 337 194 984 1237
0 0 0 0 0 0 0 0 0 0 0 0 0 0 0 0 0 0 0 0 0 0 56 177 90 22 23 3 0 167 903 950 1019 990 757 633 578 218 27 4 0 527 327 1080
0 0 0 0 0 0 0 0 0 0 0 0 0 0 0 0 0 0 0 0 0 0 0 12 29 56 22 0 19 5 47 1027 1252 1216 1065 823 618 634 430 322 11 0 718 525
10 0 0 0 0 0 0 0 0 0 0 0 0 0 0 0 0 0 0 0 0 0 0 57 7 12 3 138 88 15 0 3 803 1450 1253 1039 825 718 700 749 602 37 293 1242
0 0 0 0 0 0 0 0 0 0 0 0 0 0 0 0 0 0 0 0 0 0 0 10 387 69 15 98 203 14 0 7 0 578 1320 1160 1090 891 839 695 791 784 428 375
1 13 0 0 0 0 5 0 0 1 0 0 1 0 0 0 0 0 0 0 0 0 0 39 145 71 14 18 8 8 3 0 40 73 736 1269 1221 1166 1061 928 823 948 945 790
0 17 1 0 0 0 0 0 2 1 0 1 1 0 0 0 0 0 0 0 0 0 0 4 154 310 694 405 243 54 0 1 26 154 612 1159 1267 1289 1160 1150 986 849 1077 1226
0 0 0 0 4 0 0 4 1 1 0 2 1 0 0 0 0 0 0 0 0 0 0 0 90 36 12 155 572 531 422 784 505 1178 1294 1136 1251 1255 1256 1162 1319 1194 945 1061
0 0 0 2 4 10 11 10 2 0 3 6 3 0 0 0 0 0 0 0 0 0 0 0 0 0 0 0 0 10 89 310 1340 1640 1594 1262 1220 1183 1353 1310 1268 1324 1330 1270
1 0 0 0 1 15 18 18 5 6 9 4 9 0 0 0 0 0 2 0 0 0 0 0 0 0 0 0 0 2 1 71 717 1635 1137 1524 1390 1365 1342 1421 1380 1370 1356 1419
0 0 0 0 0 27 21 20 23 15 11 4 8 20 27 14 2 0 0 3 3 0 0 0 0 0 0 0 0 2 3 2 569 1995 1809 2020 1532 402 1 78 677 1055 1076 1575
0 0 0 0 0 16 10 15 16 16 20 18 6 13 12 7 4 0 2 55 13 0 0 0 0 0 0 0 0 1 2 3 4 647 2315 2202 2347 1487 1240 1 2 2 27 690
0 0 0 0 0 1 4 15 9 14 15 13 18 7 14 4 6 7 8 4 1 0 0 0 0 0 0 0 0 1 3 1 2 86 1702 2394 2503 2457 1570 1489 1151 508 2 25
0 0 0 0 0 0 1 5 3 6 14 17 14 17 24 14 14 11 10 3 0 0 0 0 0 0 0 0 1 1 4 4 7 160 1078 2362 2606 2567 1943 1113 1386 1468 1 1
0 0 0 0 0 0 0 3 1 5 13 17 18 22 30 36 32 8 10 7 3 3 1 0 1 0 0 2 1 2 4 2 1 4 752 1260 1904 1974 1153 832 890 227 163 172
0 0 0 0 0 0 0 2 0 10 5 10 9 16 20 21 17 7 4 5 4 0 2 3 1 0 2 1 1 2 5 2 3 1 451 1041 1293 1597 721 743 629 209 114 1
0 0 0 0 0 0 0 0 0 0 0 0 14 14 15 18 16 10 8 11 6 6 4 4 3 1 1 2 1 2 5 4 1 1 1 217 376 250 211 44 0 0 1 1
0 0 0 0 4 0 0 0 0 0 0 0 15 16 13 13 17 11 5 8 6 6 4 3 9 2 2 1 5 1 4 4 2 2 1 1 1 0 1 1 1 0 0 0
1 0 2 3 0 0 0 0 0 0 0 0 10 8 14 13 20 11 6 7 8 9 9 6 1 3 5 2 9 2 5 7 3 1 1 1 0 0 0 0 0 0 0 1
18 17 19 24 0 0 0 0 0 0 0 0 0 2 11 12 19 14 7 5 8 10 11 13 5 4 4 4 4 7 7 8 3 2 3 3 2 1 0 1 1 0 0 0
0 0 0 0 0 1 0 0 0 0 0 0 0 0 0 3 9 12 12 15 12 18 8 7 6 14 8 8 5 9 3 5 11 2 4 2 6 2 2 1 1 1 7 3
0 0 0 0 0 0 0 0 0 0 0 0 0 0 0 0 0 3 10 21 24 18 8 11 15 13 9 3 5 3 2 4 2 1 2 2 1 1 1 2 1 0 0 0
0 0 0 0 0 0 0 0 0 0 0 0 0 0 0 0 0 0 0 21 41 25 17 15 15 8 5 3 2 3 2 3 3 0 1 0 0 0 0 1 1 1 0 0
0 0 0 0 0 0 0 0 0 0 0 0 0 0 0 0 0 0 6 13 35 18 20 22 16 14 3 0 0 1 1 1 1 3 1 0 0 0 0 0 0 0 0 0
0 0 0 0 0 0 0 0 0 0 0 0 0 0 0 0 0 0 0 2 0 0 0 1 0 0 3 4 0 0 0 0 0 0 0 0 0 0 0 0 0 0 0 0
0 0 0 0 0 0 0 0 0 0 0 0 0 0 0 0 0 0 0 0 0 0 0 0 0 0 0 0 0 0 0 0 0 0 0 0 0 0 0 0 0 0 0 0

GFSNGP_con_sbcape_063.txt.gz
CAPE
0 0 0 0 0 0 0 0 0 0 0 0 0 0 0 0 0 0 0 0 0 0 0 0 0 0 0 0 3 42 35 161 307 267 105 0 0 0 0 0 0 0 73 1091
0 0 0 0 0 0 0 0 0 0 0 0 0 0 0 0 0 0 0 0 0 0 0 0 0 16 0 0 0 146 152 108 212 292 299 93 0 0 0 0 0 0 0 56
0 0 0 0 0 0 0 0 0 0 0 0 0 0 0 0 0 0 0 0 0 0 0 0 0 7 25 0 9 234 325 227 224 263 312 433 186 0 0 0 0 0 4 132
0 0 0 0 0 0 0 0 0 0 0 0 0 0 0 0 0 0 0 0 0 0 0 0 0 0 30 30 3 18 524 508 451 466 306 416 475 208 0 0 0 0 0 24
0 0 0 0 0 0 0 0 0 0 0 0 0 0 0 0 0 0 0 0 0 0 0 0 0 90 113 36 91 68 49 287 736 721 713 465 499 478 348 53 0 0 0 0
0 0 0 0 0 0 0 0 0 0 0 2 1 0 0 0 0 0 0 0 0 0 0 0 0 0 2 3 122 136 53 12 8 417 952 910 728 561 494 384 217 85 1 0
0 10 0 0 0 0 0 0 0 0 0 0 0 1 0 0 0 0 0 0 0 0 0 0 0 0 0 18 25 24 19 11 0 4 12 928 988 766 617 548 532 513 461 84
0 0 0 0 0 0 0 0 1 0 0 0 0 1 0 0 0 0 0 0 0 0 0 0 0 0 0 2 28 372 431 21 2 2 45 153 379 1028 845 680 536 564 569 607
0 0 0 0 0 3 7 5 1 0 1 4 4 1 9 0 0 0 0 0 0 0 0 0 0 0 1 0 0 1 5 29 211 427 41 49 274 649 1149 1055 904 790 703 710
0 0 0 0 0 0 2 3 6 12 13 9 7 1 3 3 0 0 0 0 0 0 0 0 0 0 0 0 0 0 1 5 3 18 400 1077 898 739 779 1200 1193 1093 983 874
0 0 0 0 0 0 0 9 11 15 20 12 14 13 8 17 18 8 10 1 0 0 0 0 0 0 0 0 0 0 0 1 0 2 181 1052 1196 1000 1064 1164 1215 1207 1162 1105
0 0 0 0 0 0 0 18 17 20 13 18 21 14 11 8 9 2 16 1 0 0 0 0 1 0 0 0 0 0 0 0 0 2 2 171 1312 978 1 236 829 771 864 1113
0 0 0 0 0 0 0 11 19 19 12 21 17 12 15 13 19 7 6 2 7 0 1 3 0 0 0 0 0 0 0 0 0 0 2 13 613 1686 1219 79 2 1 0 76
0 0 0 0 0 0 0 0 24 3 14 16 19 12 17 15 17 4 6 6 6 6 1 0 0 0 0 0 0 0 0 0 0 0 1 4 210 1330 1914 1372 1222 728 43 1
0 0 0 0 0 0 0 0 6 0 1 5 11 14 19 21 10 10 12 7 7 3 2 0 0 0 0 0 0 0 0 1 2 2 4 7 37 668 2013 1788 1635 1362 230 1
0 0 0 0 0 0 0 0 0 0 0 0 2 13 16 19 19 12 18 8 9 4 2 2 0 0 0 0 0 0 0 0 1 2 1 5 0 428 1772 2136 1801 1666 887 661
0 0 0 0 0 0 0 0 0 0 0 0 0 4 4 12 13 8 13 12 8 7 5 6 5 5 2 3 2 0 1 2 1 3 2 4 14 571 1679 1652 1460 1403 1019 261
0 0 0 0 0 0 0 0 0 0 0 0 0 24 11 14 13 13 10 5 6 4 4 5 4 4 5 0 1 2 5 0 2 1 5 11 122 673 1327 1268 1126 795 31 1
0 0 0 0 0 0 0 0 0 0 0 0 0 6 16 19 20 12 11 10 9 5 3 4 11 9 4 5 11 4 4 1 3 3 1 0 46 397 648 919 419 28 0 0
0 0 0 0 0 3 0 0 0 0 0 0 0 3 6 8 10 11 10 12 15 13 11 4 9 5 4 6 8 3 2 3 2 1 1 0 0 0 3 15 7 0 1 0
1 5 7 6 0 0 0 0 0 0 0 0 0 0 1 5 11 17 11 9 14 26 11 20 9 7 8 4 3 4 3 3 3 4 2 1 1 0 0 0 0 0 0 0
0 0 4 0 0 0 0 0 0 0 0 0 0 0 0 0 1 12 18 22 20 33 19 13 15 21 12 7 3 2 4 3 3 3 3 3 1 0 0 0 0 1 0 1
0 0 0 0 0 0 0 0 0 0 0 0 0 0 0 0 1 14 16 20 22 25 21 18 23 21 14 2 3 2 3 2 2 4 5 3 1 1 1 1 1 1 1 1
0 0 0 0 0 0 0 0 0 0 0 0 0 0 0 0 0 6 13 38 31 20 21 24 14 16 8 2 3 2 1 2 2 1 7 5 9 2 1 1 0 1 3 2
0 0 0 0 0 0 0 0 0 0 0 0 0 0 0 0 0 0 0 2 20 12 10 17 19 9 3 3 2 1 1 2 3 2 6 3 2 2 1 3 1 1 1 1
0 0 0 0 0 0 0 0 0 0 0 0 0 0 0 0 0 0 0 0 0 0 1 3 1 0 2 4 6 6 4 4 3 2 3 2 2 1 2 1 1 1 1 1
0 0 0 0 0 0 0 0 0 0 0 0 0 0 0 0 0 0 0 0 0 0 0 0 0 0 0 0 0 3 7 8 6 6 5 2 1 1 1 1 0 0 0 0

GFSNGP_con_sbcape_066.txt.gz
CAPE
0 0 0 0 0 0 0 0 0 0 0 0 0 0 0 0 0 0 0 0 0 0 0 0 0 30 31 0 18 15 78 107 50 2 0 0 0 0 32 0 0 0 8 496
0 0 0 0 0 0 0 0 0 0 0 0 0 0 0 0 0 0 0 0 0 0 0 0 0 0 0 5 0 39 46 97 269 180 59 0 0 0 0 22 0 0 0 71
0 0 0 0 0 0 0 0 0 0 0 0 0 0 0 0 0 0 0 0 0 0 0 0 0 0 0 1 39 1 101 121 125 301 289 209 24 0 0 0 5 0 0 0
0 0 0 0 0 0 0 0 0 0 0 0 0 0 0 0 0 0 0 0 0 0 0 0 0 0 0 24 27 20 60 248 182 175 275 321 300 27 0 0 0 3 8 3
0 0 0 0 0 0 0 0 0 0 0 0 0 0 0 0 0 0 0 0 0 0 0 0 0 0 0 1 3 75 75 120 502 296 260 277 369 430 175 0 0 0 0 1
0 0 0 0 0 0 0 0 0 0 1 1 0 0 0 0 0 0 0 0 0 0 0 0 0 0 0 0 0 10 61 66 33 119 647 500 283 401 417 322 85 2 9 0
0 0 0 0 0 0 0 0 0 0 1 1 1 0 0 0 0 0 0 0 0 0 0 0 0 0 0 0 0 62 214 92 12 4 35 789 813 561 571 545 507 297 150 90
1 0 0 0 0 0 0 0 0 0 0 0 1 0 0 0 0 0 0 0 0 0 0 0 0 0 0 0 0 27 3 2 13 8 5 131 392 992 769 619 546 567 509 429
0 0 0 0 0 0 0 0 0 4 1 6 11 2 1 0 0 0 3 0 0 0 0 0 0 0 0 0 3 0 0 0 1 2 102 89 137 207 991 942 830 746 710 699
0 0 0 0 0 0 0 0 1 3 7 7 18 9 5 1 1 10 11 5 0 0 0 0 0 0 0 0 7 0 0 0 0 2 3 37 376 192 195 865 1045 1022 905 873
0 0 0 0 0 0 0 0 0 10 1 0 10 17 19 20 14 12 6 14 13 4 2 3 2 0 0 0 15 0 0 0 2 3 6 2 202 602 674 338 754 1166 1136 1105
0 0 0 0 0 0 0 0 0 0 0 4 14 14 10 13 10 12 13 15 18 2 0 4 0 2 1 1 12 0 1 1 1 2 2 6 6 74 456 269 95 37 858 1114
0 0 0 0 0 0 0 0 0 0 0 0 0 19 26 20 10 17 21 21 25 16 5 5 2 4 1 11 0 0 0 2 1 1 2 3 6 6 69 393 2 2 0 3
0 0 0 0 0 0 0 0 0 0 0 0 0 0 1 12 15 18 15 18 21 26 14 8 10 0 3 6 0 0 2 2 3 2 1 3 2 6 53 259 1143 1000 38 1
0 0 0 0 0 0 0 0 0 0 0 0 0 0 0 8 5 15 25 14 19 26 12 10 11 6 0 0 1 2 5 6 3 0 1 2 6 5 5 4 206 1379 910 1
0 0 0 0 0 0 0 0 0 0 0 0 0 0 9 14 2 9 16 15 17 13 15 12 12 16 6 5 7 5 6 8 3 1 0 0 7 8 6 12 149 1070 1759 1422
0 0 0 0 0 0 0 0 0 0 0 0 0 0 11 19 20 14 18 11 10 11 12 9 9 13 9 8 4 6 7 3 0 0 0 0 0 7 5 12 108 967 1407 1696
0 0 0 0 0 0 0 0 0 0 0 0 0 0 11 15 10 6 6 9 12 12 8 7 10 16 11 11 12 10 7 9 6 0 0 0 0 8 4 9 104 568 1370 1448
0 0 0 0 0 0 0 0 0 0 0 0 0 0 8 10 15 15 11 15 14 10 8 14 22 25 12 11 17 14 13 7 3 3 0 0 1 0 17 16 67 472 1218 574
0 0 0 0 0 0 0 0 0 0 0 0 0 0 0 5 11 21 13 16 12 16 21 15 19 6 10 6 16 10 11 9 4 5 0 0 0 1 7 4 24 351 478 65
0 0 0 0 0 0 0 0 0 0 0 0 0 0 0 0 15 19 7 8 12 29 19 22 16 10 14 15 6 5 3 3 4 3 2 2 2 2 1 1 1 1 0 0
0 0 0 0 0 0 0 0 0 0 0 0 0 0 0 0 0 0 10 9 10 37 18 15 22 29 21 21 12 6 4 3 3 2 2 3 2 1 1 1 0 0 1 1
0 0 0 0 0 0 0 0 0 0 0 0 0 0 0 0 0 7 0 12 15 18 15 18 31 32 25 7 12 12 8 6 4 4 3 3 2 3 2 2 1 1 1 1
0 0 0 0 0 0 0 0 0 0 0 0 0 0 0 0 0 1 7 18 27 12 15 31 29 27 18 12 16 10 6 7 5 4 3 1 2 2 2 4 5 4 1 1
0 0 4 9 0 0 0 0 0 0 0 0 0 0 0 0 0 0 0 4 3 4 12 21 24 25 13 11 11 9 12 7 7 5 3 2 2 2 3 2 3 5 3 1
0 0 14 8 0 0 0 0 0 0 0 0 0 0 0 0 0 0 0 0 0 0 1 13 16 12 15 15 10 8 7 7 8 4 2 1 1 1 1 1 1 3 3 4
0 0 0 0 0 0 0 0 0 0 0 0 0 0 0 0 0 0 0 0 0 0 0 0 2 8 13 20 17 10 6 2 1 5 5 5 1 1 1 0 1 1 2 1

GFSNGP_con_sbcape_069.txt.gz
CAPE
0 0 0 0 0 0 0 0 0 0 0 0 0 0 0 0 0 0 0 0 0 0 0 0 0 0 2 76 98 301 555 587 620 863 795 500 758 1435 1121 946 1078 1175 1143 1272
0 0 0 0 0 0 0 0 0 0 0 0 0 0 0 0 0 0 0 0 0 0 0 0 0 0 0 6 37 144 213 664 912 1203 1202 1141 1070 1005 1412 1179 1057 1165 998 1053
0 0 0 0 0 0 0 0 0 0 0 0 0 0 0 0 0 0 0 0 0 0 0 0 0 0 0 10 37 142 239 215 644 1021 1174 1335 1011 1095 1315 1310 1386 1256 1015 1125
0 0 0 0 0 0 0 0 0 0 0 0 0 0 0 0 0 0 0 0 0 0 0 0 0 0 0 0 0 23 614 233 466 830 954 1170 1062 1144 1274 1062 1303 1374 1126 1209
0 0 0 0 0 0 0 0 1 0 0 0 0 0 0 0 0 0 0 0 0 0 0 0 0 0 0 0 0 0 90 532 774 805 880 934 1085 1469 1158 912 977 988 993 1197
0 0 0 0 0 0 0 0 1 0 0 0 0 0 0 0 0 0 0 0 0 0 0 0 0 0 0 0 0 0 2 74 229 659 464 1256 1096 1188 1249 1230 980 817 723 861
1 0 0 0 0 0 0 0 0 0 0 0 0 0 0 0 0 0 0 0 0 0 0 0 0 0 0 0 0 0 0 75 22 48 402 365 605 1576 1317 1299 1335 1298 1025 1069
2 1 0 0 0 0 0 0 0 0 0 0 0 0 0 0 0 0 0 0 0 0 0 0 0 0 0 0 0 0 0 7 0 6 40 255 537 424 1635 1825 1864 1679 1673 1320
0 0 0 0 0 0 0 0 0 0 0 0 0 2 1 2 2 2 7 6 8 6 7 0 1 5 3 3 5 0 0 9 2 0 10 40 438 611 681 965 1674 1893 1603 1488
0 0 0 0 0 0 0 0 0 0 0 0 6 7 3 4 8 11 10 10 11 16 19 11 4 6 5 3 12 6 0 9 3 0 4 10 37 214 474 573 976 1394 1668 1644
0 0 0 0 0 0 0 0 0 0 0 4 9 8 13 14 11 5 12 7 7 8 17 24 23 10 7 2 5 15 3 7 18 0 1 9 5 21 412 836 695 693 1187 1525
0 0 0 0 0 0 0 0 0 1 3 12 25 18 14 21 8 0 5 24 34 28 27 27 25 24 13 8 19 25 17 9 14 7 2 7 6 0 0 0 17 149 101 162
0 0 0 0 0 0 0 0 0 0 0 0 1 12 13 25 32 28 18 27 31 36 35 28 27 22 26 14 19 40 22 33 19 11 8 7 5 8 2 0 20 24 3 2
0 0 0 0 0 0 0 0 0 0 0 12 22 16 19 23 26 25 35 18 33 37 31 26 36 51 29 16 29 19 24 15 25 16 8 6 8 13 9 5 1 50 15 1
0 0 0 0 0 0 0 0 0 0 12 24 17 11 10 16 19 28 33 24 29 33 34 22 19 22 14 15 24 22 23 12 9 12 6 5 9 11 17 5 0 4 34 70
0 0 0 0 0 0 0 0 0 0 15 11 4 7 2 2 7 18 21 27 14 13 14 28 23 23 24 19 23 12 21 19 12 6 8 14 9 10 14 9 0 0 26 183
0 0 0 0 0 0 0 0 1 19 30 9 0 0 0 2 12 17 21 23 24 24 31 26 19 18 27 16 10 18 18 14 9 26 22 14 2 1 9 20 10 4 12 116
0 1 1 0 0 2 0 0 7 29 35 17 0 0 0 6 21 22 29 41 21 18 23 24 32 36 38 31 25 23 27 22 19 7 6 9 13 14 7 10 21 19 5 13
0 2 5 0 0 0 19 32 32 34 16 0 0 0 0 11 12 27 48 19 16 11 13 29 33 41 25 24 31 32 28 20 15 16 13 8 15 17 13 4 7 22 65 97
51 45 25 18 24 7 39 89 64 23 4 0 0 0 1 13 18 41 40 14 38 17 35 19 30 22 25 27 26 29 22 18 19 14 18 14 10 13 13 5 7 23 61 175
47 82 89 104 81 82 81 122 67 29 0 0 0 0 17 45 9 58 18 14 39 29 39 42 26 24 35 40 19 15 14 15 15 20 14 11 10 3 3 3 0 3 3 8
16 8 25 81 102 171 140 60 45 66 7 0 0 0 16 43 49 76 38 19 40 26 26 24 26 47 29 22 12 14 14 9 9 9 9 8 4 3 3 3 4 2 2 2
19 0 1 0 0 10 16 18 60 94 52 0 0 2 29 60 77 111 70 32 84 28 23 29 52 41 27 12 12 8 11 14 11 8 6 7 6 5 4 3 4 2 2 2
60 77 16 20 2 0 3 0 49 102 39 3 0 22 33 83 86 77 108 48 5 8 20 41 40 40 24 10 5 5 4 7 11 10 7 3 6 8 6 4 3 3 4 3
48 50 1 2 2 15 4 10 28 61 26 13 16 50 69 63 64 64 46 68 10 18 14 18 32 28 22 15 6 2 5 5 3 7 8 13 6 4 3 4 4 5 7 5
76 172 167 55 22 27 15 58 88 58 42 40 40 25 41 25 28 39 14 8 45 19 35 36 57 46 38 23 18 9 3 3 3 0 1 4 9 9 3 4 4 6 5 5
23 8 142 116 144 11 21 17 30 51 42 34 25 7 5 2 14 19 0 6 14 27 41 36 36 38 51 34 26 19 16 5 4 1 0 0 2 6 1 2 3 2 3 2

GFSNGP_con_sbcape_072.txt.gz
CAPE
0 0 0 0 0 0 0 0 1 0 0 0 0 0 0 0 0 0 0 0 0 0 0 0 0 0 0 3 46 609 927 1199 1205 1312 1370 1402 1542 1787 1723 1648 1622 1621 1624 1765
0 0 0 0 0 0 0 0 0 0 0 0 0 0 0 0 0 0 0 0 0 0 0 0 0 0 0 0 4 4 754 799 1089 1500 1574 1598 1592 1538 1796 1888 1869 1761 1636 1439
0 0 0 0 0 0 0 0 0 0 0 0 0 0 0 0 0 0 0 0 0 0 0 0 0 0 0 0 0 0 0 727 885 1125 1572 1695 1779 1788 1704 1626 2045 2299 1862 1772
0 0 0 0 0 0 0 0 0 0 0 0 0 0 0 0 0 0 0 0 0 0 0 0 0 0 0 0 0 0 0 12 529 710 1050 1545 2168 1931 1868 1812 1854 1994 2169 2489
0 0 0 0 0 0 0 0 0 0 0 0 0 0 0 0 0 0 0 0 0 0 0 0 0 0 0 0 0 0 0 0 35 39 1082 1209 1397 2062 1969 2043 1921 1759 1772 2302
0 1 0 0 0 0 0 0 0 0 0 0 0 0 0 0 0 0 0 0 0 0 0 0 0 0 0 0 0 0 0 0 0 71 94 548 1279 2072 2548 2165 2021 1764 1765 1856
5 7 1 0 0 0 0 0 0 0 0 0 0 0 0 0 0 0 0 0 0 0 0 0 0 0 0 0 0 0 0 0 0 1 24 5 409 1746 1843 2300 2563 2397 2111 2148
15 21 12 0 0 0 0 0 0 0 0 0 0 0 0 0 0 0 0 0 0 0 0 0 0 1 0 0 0 0 0 0 0 0 1 0 37 41 1006 2297 2528 2487 2815 2167
7 18 0 0 0 0 0 0 0 0 0 0 0 0 0 0 0 0 2 1 1 1 3 1 1 3 6 5 6 3 0 0 0 0 0 2 12 38 48 997 1547 2451 2865 1990
0 0 0 0 0 0 0 0 0 0 0 0 0 0 0 0 1 1 3 6 6 6 6 9 14 15 10 11 14 9 3 1 0 0 0 0 0 0 0 11 436 958 1511 2495
0 0 0 0 0 0 0 0 0 0 0 0 2 3 4 6 9 10 20 17 12 14 13 14 14 19 13 12 11 10 8 1 0 0 0 0 0 0 0 0 53 358 1230 1661
15 0 0 0 0 0 0 0 0 0 3 10 14 17 22 23 26 23 24 18 19 19 21 17 16 17 26 27 18 13 16 7 0 0 0 0 0 0 0 0 0 0 0 0
8 0 0 0 0 0 0 0 2 3 10 17 17 12 16 13 12 18 11 13 20 24 22 24 20 18 21 41 29 22 12 28 19 11 13 3 0 0 0 0 0 0 0 0
1 0 0 0 0 0 0 1 0 0 10 20 26 33 26 29 28 23 8 11 21 22 19 22 23 26 29 30 49 46 26 7 25 19 11 19 25 9 1 0 0 0 0 0
0 0 2 0 0 0 1 2 6 11 15 22 46 47 38 35 25 14 12 14 19 28 19 22 27 20 22 24 33 34 46 24 8 19 26 15 20 21 13 7 3 0 0 0
53 1 0 0 1 6 6 5 7 7 6 31 37 47 42 28 16 16 10 13 25 31 32 33 25 19 20 25 33 25 27 21 28 24 22 23 28 25 22 18 6 0 0 0
37 44 0 0 4 16 36 34 29 14 13 26 45 61 34 10 12 25 18 15 29 44 32 32 26 21 39 32 18 32 29 30 16 18 27 19 27 26 26 22 21 5 0 0
1 2 17 12 37 65 79 76 63 23 24 31 58 48 38 20 19 22 23 28 34 35 35 39 36 53 53 35 33 33 37 34 41 31 27 22 23 19 10 20 28 17 3 1
39 76 79 122 117 116 123 106 124 42 49 84 80 73 36 8 19 13 16 38 42 56 38 53 45 41 29 19 42 40 42 38 41 32 29 24 25 25 17 13 12 21 15 8
266 230 213 186 210 211 192 197 195 158 108 112 83 59 45 21 28 38 38 36 13 67 38 44 48 33 29 30 33 40 44 37 35 34 39 39 27 20 19 5 9 24 23 21
210 160 176 226 193 217 238 293 232 247 157 174 110 76 26 30 56 64 71 66 8 35 30 32 40 34 46 47 24 20 21 29 29 26 25 24 22 21 24 24 33 32 24 26
106 81 104 168 200 202 230 274 260 247 235 209 115 43 6 48 63 55 63 88 58 3 51 45 41 54 44 30 16 13 11 11 24 27 22 21 20 16 15 18 22 29 33 23
38 40 86 95 121 84 17 60 264 287 252 261 94 12 15 54 42 38 60 89 45 13 55 80 45 38 40 19 16 20 18 12 8 12 6 11 18 19 20 17 13 8 1 3
62 33 55 38 40 85 201 110 105 186 304 143 50 10 42 56 34 18 64 14 0 11 56 38 52 42 23 32 26 24 26 26 16 14 10 5 8 7 15 5 4 4 3 2
72 86 116 109 37 17 5 70 285 77 141 63 57 40 67 60 58 56 56 64 1 12 73 4 0 28 72 49 39 33 19 11 24 26 15 7 4 5 7 8 7 7 6 5
99 106 122 147 135 7 34 37 172 23 152 92 71 48 36 36 29 29 31 22 47 33 63 60 72 10 104 84 63 41 35 25 6 10 29 17 11 4 5 6 5 5 5 6
73 4 97 246 112 46 39 42 102 110 57 77 69 32 30 28 17 17 5 40 32 34 55 62 61 39 85 70 61 61 50 46 11 7 4 10 13 5 1 4 3 5 5 7

GFSNGP_con_sbcape_075.txt.gz
CAPE
0 0 1 7 0 0 0 0 76 176 109 4 0 0 0 0 0 0 0 0 0 0 0 0 0 0 1 0 6 7 216 1187 1760 1709 2046 1774 2240 2894 2595 2847 2764 2648 2670 2765
0 0 0 0 0 0 0 0 2 120 34 8 0 0 0 0 0 0 0 0 0 0 0 0 0 0 0 0 0 1 0 150 1341 1479 1827 2315 2297 2282 2810 3027 3201 3276 2544 2659
28 0 0 0 0 0 0 0 7 104 7 0 1 0 0 0 0 0 0 0 0 0 0 0 0 0 0 0 0 0 0 0 14 565 1545 1633 2404 2471 2712 2734 3027 3600 3194 2843
67 57 7 0 0 0 0 0 1 0 0 0 0 0 0 0 0 0 0 0 0 0 0 0 0 0 0 0 0 0 0 0 0 0 113 847 1985 1945 2373 2610 2612 2996 2997 3528
37 109 34 0 0 0 0 0 0 0 0 0 0 0 0 0 0 0 0 0 0 0 0 0 0 0 0 0 0 0 0 0 0 0 0 27 81 1275 2609 2367 2242 2243 2547 3291
7 32 61 34 0 0 0 0 0 0 0 0 0 0 3 0 0 0 0 0 0 0 0 0 0 0 0 0 0 0 0 0 0 0 0 9 22 0 832 2333 2165 1960 2321 2564
32 34 66 0 0 0 0 0 0 0 0 0 0 0 0 0 0 0 0 0 0 0 0 0 0 0 0 0 0 0 0 0 0 0 0 0 2 0 66 629 2011 2264 2031 2527
40 72 192 0 0 0 0 0 0 0 0 0 0 0 0 0 0 0 0 0 0 0 0 0 0 0 0 0 0 0 0 0 0 0 0 0 0 0 1 71 424 2001 2668 2532
54 123 23 0 0 1 0 0 0 0 0 0 0 0 0 0 0 0 0 0 0 0 0 0 0 0 0 1 7 6 2 1 0 0 0 0 0 0 0 75 101 190 1621 1894
4 1 0 0 0 0 0 0 0 0 0 0 0 0 0 0 0 0 0 1 2 3 3 4 8 5 1 1 4 4 5 1 0 0 0 0 0 0 0 0 0 0 374 1741
1 0 0 0 0 0 0 0 0 0 0 0 0 0 1 2 4 6 2 2 2 4 7 10 11 11 11 9 6 4 3 0 0 0 0 0 0 0 0 0 0 0 5 82
177 29 24 2 1 0 0 0 0 0 0 0 0 2 4 10 18 4 17 10 4 6 9 13 9 12 13 14 20 15 6 0 0 0 0 0 0 0 0 0 0 0 0 0
115 55 29 28 1 0 0 0 0 0 2 3 4 6 13 19 21 5 27 16 10 6 10 9 9 9 12 11 13 25 16 15 8 4 1 0 0 0 0 0 0 0 0 0
150 23 19 7 0 0 0 0 0 5 6 8 13 19 21 20 21 28 32 15 13 18 17 14 13 9 14 13 22 17 16 14 20 14 11 6 1 0 0 0 0 0 0 0
149 40 46 38 7 6 2 4 6 7 7 19 31 25 17 11 12 33 28 18 13 13 8 5 9 11 15 17 17 18 16 23 21 27 31 19 13 10 6 0 0 0 0 0
46 39 75 39 42 15 20 21 27 34 38 33 40 26 25 17 12 20 30 21 20 17 12 11 11 13 10 23 25 18 16 22 32 33 18 19 33 25 15 15 1 0 0 0
3 57 71 57 46 54 53 43 58 50 49 48 39 45 42 28 34 30 22 25 26 21 29 17 16 28 33 31 33 43 28 30 25 48 38 41 46 36 31 27 21 15 0 0
132 104 71 48 59 43 41 40 65 63 61 74 58 48 57 30 31 33 21 18 20 30 32 26 15 28 32 20 18 29 33 32 25 28 24 28 46 38 23 35 38 33 13 5
206 237 209 192 117 137 133 74 65 88 100 80 160 92 85 52 33 20 18 20 36 38 25 23 4 20 18 24 49 57 42 36 30 29 30 30 45 34 29 24 34 40 34 14
385 480 461 405 331 238 201 193 129 194 101 199 220 153 121 63 25 42 68 55 54 17 12 19 18 27 37 28 42 43 27 23 32 23 23 39 40 44 32 13 19 16 34 32
235 257 290 360 340 450 425 336 397 319 320 205 227 210 196 101 46 37 56 52 39 7 12 16 24 26 24 33 17 17 23 17 20 17 29 29 23 26 18 13 38 44 34 29
49 61 61 58 90 170 210 277 370 393 92 271 305 231 254 86 65 57 80 67 41 0 5 26 22 13 35 24 19 16 20 27 14 20 15 17 17 20 21 17 14 27 32 26
44 50 55 64 82 82 95 120 186 243 105 102 253 174 107 64 44 41 63 83 32 11 5 28 1 0 6 69 42 20 22 20 20 13 22 13 14 13 16 19 19 23 22 19
46 43 71 76 79 115 85 82 137 261 108 52 270 110 69 53 40 42 36 0 0 0 21 5 3 0 0 40 41 29 14 12 14 19 21 12 14 12 9 12 20 20 20 17
49 62 81 106 123 152 103 27 31 81 123 93 57 36 56 60 41 35 40 58 16 21 84 6 0 0 84 69 38 16 25 14 12 23 19 20 10 16 9 6 8 12 12 9
47 80 75 238 234 58 33 32 38 112 262 3 8 54 64 69 62 31 56 13 40 32 56 94 107 82 112 87 45 26 25 21 13 14 18 15 5 7 16 13 3 4 6 5
53 13 52 283 269 45 20 20 0 36 31 49 81 41 30 44 31 15 1 24 27 36 58 65 58 53 69 50 43 61 53 49 14 12 12 19 10 17 20 18 15 9 4 2

GFSNGP_con_sbcape_078.txt.gz
CAPE
2 0 0 0 0 0 0 0 129 341 373 19 3 0 0 0 0 0 0 0 0 0 0 0 0 0 0 1 1 2 2 55 50 133 2389 3128 2904 2707 3013 2910 2960 2987 2886 2644
0 0 0 0 0 6 0 0 39 180 191 7 0 0 0 0 0 0 0 0 0 0 0 0 0 0 0 0 0 0 0 3 0 343 857 1377 2278 2629 3405 3012 2943 2802 2880 2788
10 0 0 0 0 0 0 0 377 320 55 1 0 1 1 0 0 0 0 0 0 0 0 0 0 0 0 0 0 0 0 0 0 1 7 286 1540 2471 3029 2994 3037 2933 2888 2845
47 1 0 0 0 0 0 20 221 201 36 9 1 0 0 0 0 0 0 0 0 0 0 0 0 0 0 0 0 0 0 0 0 0 0 29 295 81 939 2534 2778 2769 2670 2853
84 1 7 1 0 0 0 30 68 32 1 4 0 0 0 0 0 0 0 0 0 0 0 0 0 0 0 0 0 0 0 0 0 0 0 0 40 54 85 718 1938 2238 2231 2442
68 55 47 37 0 0 0 38 1 0 0 0 0 0 0 0 0 0 0 0 0 0 0 0 0 0 0 0 0 0 0 0 0 0 0 0 0 0 11 164 490 1574 1961 2189
61 94 179 1 0 0 0 6 0 1 0 0 0 0 0 0 0 0 0 0 0 0 0 0 0 0 0 0 0 0 0 0 0 0 0 0 0 0 1 2 72 539 698 1930
36 157 318 0 0 0 2 0 0 0 0 0 0 0 0 0 0 0 0 0 0 0 0 0 0 0 0 0 1 0 0 3 5 3 0 0 0 0 0 0 1 122 352 1016
160 377 178 1 1 0 0 0 0 0 0 0 0 0 0 0 0 0 0 0 0 0 0 0 0 0 0 12 9 10 10 6 1 0 0 0 0 0 0 0 0 0 20 16
83 68 74 70 7 0 0 0 0 0 0 0 0 0 0 0 0 0 0 0 0 0 0 0 2 1 1 8 16 13 12 11 8 1 0 0 0 0 0 0 0 0 0 1
18 3 3 0 4 0 0 0 0 0 0 0 0 0 0 0 0 0 0 2 0 0 1 3 8 8 1 10 7 1 3 2 0 0 0 0 0 0 0 0 0 0 0 0
473 112 160 114 26 14 0 0 0 0 0 0 0 0 0 0 4 0 1 6 3 1 1 4 7 8 22 21 15 3 0 0 0 0 0 0 0 0 0 0 0 0 0 0
250 352 287 113 214 28 9 5 0 0 5 6 1 1 1 9 6 6 5 14 0 1 4 3 6 10 17 18 16 12 5 4 1 0 0 0 0 0 0 0 0 0 0 0
242 145 263 240 84 9 0 8 4 4 7 4 5 11 12 20 26 18 46 5 0 4 5 2 5 6 26 9 25 8 6 6 7 7 6 5 7 9 10 5 1 0 0 0
142 138 81 246 88 8 4 23 12 1 7 12 12 9 16 5 6 11 27 7 1 3 6 4 8 13 12 10 16 9 3 3 7 11 15 14 19 14 11 8 1 0 0 0
245 107 25 19 33 27 6 20 34 32 18 15 25 53 29 15 11 11 15 7 0 4 0 14 10 5 0 11 19 15 12 10 13 21 19 22 20 17 24 22 16 14 1 0
160 96 136 118 73 59 69 74 90 37 57 30 68 47 47 14 14 35 49 12 4 0 24 26 16 1 0 4 6 9 17 16 14 12 15 21 23 34 35 32 32 25 6 6
241 170 184 2 25 29 3 102 116 115 102 65 105 71 89 47 28 46 50 8 0 1 16 18 2 0 7 4 6 6 10 23 27 27 25 20 15 17 37 35 39 38 23 4
176 215 125 93 111 303 165 184 145 266 261 256 203 194 158 98 29 32 33 7 3 21 39 4 0 2 10 5 6 1 0 3 9 15 18 14 17 19 27 26 30 30 31 32
308 319 297 316 268 216 158 192 226 49 54 37 387 205 219 177 70 23 33 7 42 27 4 0 0 8 11 5 4 2 2 6 10 12 15 19 19 21 22 11 15 32 44 33
361 262 76 59 227 455 363 249 302 34 15 0 0 48 484 341 148 12 82 18 94 5 1 0 3 9 0 1 2 4 2 7 10 19 15 14 7 12 15 14 21 28 31 19
20 15 58 33 36 100 139 64 50 84 202 521 616 118 26 72 81 43 74 40 29 7 1 1 7 0 0 0 8 14 8 8 6 6 7 14 15 9 12 17 16 14 19 21
39 31 23 37 28 30 45 55 55 80 47 217 176 216 85 0 64 29 53 127 33 0 5 11 2 0 0 0 30 21 32 18 12 4 7 12 13 18 17 17 14 16 15 16
27 36 111 76 70 88 81 122 80 75 148 117 176 176 145 5 54 63 24 44 2 0 8 19 5 0 0 1 44 0 2 18 14 13 17 11 11 10 14 9 13 11 13 11
12 52 56 84 211 186 92 11 5 10 27 112 56 269 9 33 46 45 43 28 17 15 31 31 13 5 2 98 88 35 4 16 10 11 11 13 14 13 11 10 10 10 8 9
57 61 63 187 160 11 10 51 29 57 48 15 3 36 41 22 114 59 61 16 11 38 39 60 97 86 73 83 35 76 48 10 7 6 7 10 12 8 10 11 9 9 6 4
35 7 22 179 67 12 33 12 6 63 105 66 48 98 44 74 19 3 0 17 8 9 23 22 10 11 15 31 44 56 36 63 0 2 4 2 5 5 5 7 4 7 10 5

GFSNGP_con_sbcape_081.txt.gz
CAPE
0 0 0 0 0 0 0 0 178 164 51 0 0 0 0 0 0 0 0 0 0 0 0 0 0 0 0 0 0 1 0 0 2 28 0 0 150 1048 1944 2085 2169 1962 1656 1890
0 0 0 0 0 0 0 217 295 275 16 0 0 0 0 0 0 0 0 0 0 0 0 0 0 0 0 0 0 0 0 0 0 0 111 176 110 356 1005 1547 1924 2117 1975 1802
0 0 0 0 0 0 129 277 196 73 0 0 0 0 0 0 0 0 0 0 0 0 0 0 0 0 0 0 0 0 0 0 1 1 0 0 64 38 18 1008 1455 1800 1921 2049
0 0 0 0 0 0 0 128 47 0 0 0 0 0 0 0 0 0 0 0 0 0 0 0 0 0 0 0 0 0 0 0 0 0 0 0 10 11 0 112 494 1527 1388 1534
0 0 0 0 0 0 0 22 198 15 0 0 0 0 0 0 0 0 0 0 0 0 0 0 0 0 0 0 0 0 0 0 0 0 0 0 0 0 0 1 20 285 1214 1428
5 19 0 0 0 0 0 0 166 32 0 0 0 0 0 0 0 0 0 0 0 0 0 0 0 0 0 0 0 0 0 0 0 0 0 0 0 0 0 0 0 0 163 344
0 29 32 0 0 0 0 16 7 0 0 0 0 0 0 0 0 0 0 0 0 0 0 0 0 0 0 0 0 0 0 0 0 0 0 0 0 0 0 0 0 0 0 34
0 3 14 0 0 0 0 0 0 0 0 0 0 0 0 0 0 0 0 0 0 0 0 0 0 0 0 0 0 0 0 0 0 0 0 0 0 0 0 0 0 0 0 2
57 32 0 0 0 3 0 0 0 0 0 0 0 0 0 0 0 0 0 0 0 0 0 0 0 0 0 0 0 0 0 0 0 0 0 0 0 0 0 0 0 0 0 0
0 118 46 0 0 0 0 0 0 0 0 0 0 0 0 0 0 0 0 0 0 0 0 0 0 0 0 0 0 0 0 0 0 0 0 0 0 0 0 0 0 0 0 0
0 0 0 2 0 0 0 0 0 0 0 0 0 0 0 0 0 0 0 0 0 0 0 0 0 0 0 0 0 0 0 0 0 0 0 0 0 0 0 0 0 0 0 0
22 124 201 86 17 0 0 0 0 0 0 0 0 0 0 0 0 0 0 0 0 0 0 0 0 0 0 0 0 0 0 0 0 0 0 0 0 0 0 0 0 0 0 0
33 75 133 141 65 140 0 0 0 0 0 0 0 0 0 0 0 0 0 0 0 0 0 0 0 0 0 0 0 0 0 0 0 0 0 0 0 0 0 0 0 0 0 0
0 27 136 123 176 12 92 0 0 0 0 0 0 0 0 0 0 0 0 0 0 0 0 0 0 0 0 0 0 0 0 1 0 0 0 0 0 0 0 0 0 0 0 0
48 72 51 103 77 54 87 92 0 0 0 0 0 0 0 0 0 0 0 0 0 0 0 0 0 0 0 0 0 0 0 0 0 0 0 0 0 0 0 0 0 0 0 0
30 24 82 79 39 43 7 29 5 0 0 14 7 1 0 0 0 0 0 0 0 0 0 0 0 0 0 0 0 0 0 0 0 0 1 0 0 3 3 2 2 0 0 0
5 33 35 16 18 23 31 0 6 24 5 0 0 2 13 17 0 0 0 0 0 0 0 0 0 0 0 0 0 0 0 0 0 0 0 2 8 13 11 9 7 11 6 1
17 90 117 65 66 23 3 3 0 7 48 121 69 36 11 12 0 0 0 0 0 0 0 0 0 0 0 0 0 0 0 0 0 0 0 0 2 2 3 9 14 16 12 9
120 205 168 142 28 9 5 0 2 36 29 72 108 75 39 23 10 1 0 0 0 0 0 0 0 0 0 0 0 0 0 0 0 0 0 0 0 6 8 11 9 15 22 18
93 36 83 221 152 80 36 121 109 106 70 38 3 0 0 37 37 10 0 0 0 0 0 0 0 0 0 0 0 0 0 0 0 0 0 3 1 8 10 7 10 15 17 17
53 122 43 36 21 28 246 66 92 96 81 25 0 0 0 0 1 1 0 0 0 0 0 0 0 0 0 0 0 0 0 0 0 0 0 0 0 2 3 11 10 12 7 8
2 3 1 0 0 2 1 5 17 15 84 41 72 6 4 0 0 4 0 9 21 0 0 0 0 0 0 0 0 0 0 0 0 0 0 0 0 5 2 4 11 11 5 8
0 0 2 5 5 12 18 24 19 14 34 32 32 54 51 15 21 1 0 0 5 0 0 0 0 35 15 0 0 0 0 0 0 0 0 0 2 8 7 9 9 13 11 6
0 2 2 23 50 30 14 1 0 0 1 0 27 71 77 14 0 0 0 0 0 0 0 0 1 15 12 0 0 0 0 0 0 0 0 2 1 4 6 8 8 12 8 9
17 23 28 28 0 0 0 0 0 0 2 1 2 51 164 16 0 0 0 1 0 3 0 0 16 33 0 0 0 5 0 0 0 0 0 0 1 4 6 6 6 6 8 8
5 27 16 0 0 0 3 7 11 15 21 1 7 31 26 20 3 16 11 12 5 0 2 1 0 1 0 6 6 10 0 0 0 0 0 1 3 5 5 5 5 6 6 6
0 0 0 0 0 0 0 0 23 21 2 9 30 49 15 29 41 34 11 1 1 19 11 21 18 24 13 5 5 8 12 0 0 0 0 1 2 0 2 4 5 3 2 3

GFSNGP_con_sbcape_084.txt.gz
CAPE
0 0 0 0 0 0 0 0 7 0 0 0 0 0 0 0 0 0 0 0 0 0 0 0 0 2 2 0 0 1 1 1 1 9 3 64 24 0 0 241 801 369 252 251
0 0 0 0 0 0 26 197 14 0 0 0 0 0 0 0 0 0 0 0 0 0 0 0 0 0 3 0 0 0 0 0 1 0 0 0 31 14 6 23 482 977 1052 1111
0 0 0 0 0 0 20 230 8 8 0 0 0 0 0 0 0 0 0 0 0 0 0 0 0 0 0 0 0 0 0 0 0 0 0 0 1 23 0 5 96 457 981 1013
0 0 0 0 0 0 28 15 0 0 0 0 0 0 0 0 0 0 0 0 0 0 0 0 0 0 0 0 0 0 0 0 0 0 0 0 0 0 0 4 30 78 260 625
0 0 0 0 0 0 0 0 0 0 0 0 0 0 0 0 0 0 0 0 0 0 0 0 0 0 0 0 0 0 0 0 0 0 0 0 0 0 0 0 0 0 0 75
0 0 0 0 0 0 0 0 0 0 0 0 0 0 0 0 0 0 0 0 0 0 0 0 0 0 0 0 0 0 0 0 0 0 0 0 0 0 0 0 0 0 0 0
0 0 0 0 0 0 0 0 0 0 0 0 0 0 0 0 0 0 0 0 0 0 0 0 0 0 0 0 0 0 0 0 0 0 0 0 0 0 0 0 0 0 0 0
0 0 0 0 0 0 0 0 0 0 0 0 0 0 0 0 0 0 0 0 0 0 0 0 0 0 0 0 0 0 0 0 0 0 0 0 0 0 0 0 0 0 0 0
0 0 0 0 0 0 0 0 0 0 0 0 0 0 0 0 0 0 0 0 0 0 0 0 0 0 0 0 0 0 0 0 0 0 0 0 0 0 0 0 0 0 0 0
0 0 0 0 0 0 0 0 0 0 0 0 0 0 0 0 0 0 0 0 0 0 0 0 0 0 0 0 0 0 0 0 0 0 0 0 0 0 0 0 0 0 0 0
0 0 0 0 0 0 0 0 0 0 0 0 0 0 0 0 0 0 0 0 0 0 0 0 0 0 0 0 0 0 0 0 0 0 0 0 0 0 0 0 0 0 0 0
0 0 0 0 0 0 0 0 0 0 0 0 0 0 0 0 0 0 0 0 0 0 0 0 0 0 0 0 0 0 0 0 0 0 0 0 0 0 0 0 0 0 0 0
0 0 0 0 1 2 0 0 0 0 0 0 0 0 0 0 0 0 0 0 0 0 0 0 0 0 0 0 0 0 0 0 0 0 0 0 0 0 0 0 0 0 0 0
0 0 0 0 0 10 3 0 0 0 0 0 0 0 0 0 0 0 0 0 0 0 0 0 0 0 0 0 0 0 0 0 0 0 0 0 0 0 0 0 0 0 0 0
0 0 0 0 0 0 0 0 0 0 0 0 0 0 0 0 0 0 0 0 0 0 0 0 0 0 0 0 0 0 0 0 0 0 0 0 0 0 0 0 0 0 0 0
0 2 1 0 0 0 0 0 0 0 0 0 0 0 0 0 0 0 0 0 0 0 0 0 0 0 0 0 0 0 0 0 0 0 0 0 0 0 0 1 1 1 1 0
0 0 0 0 0 0 0 7 0 0 0 0 0 0 0 0 0 0 0 0 0 0 0 0 0 0 0 0 0 0 0 0 0 0 0 0 0 0 0 0 0 0 0 0
0 0 0 0 0 5 0 0 0 0 0 0 0 0 0 0 0 0 0 0 0 0 0 0 0 0 0 0 0 0 0 0 0 0 0 0 0 1 0 0 1 3 1 2
0 0 0 7 14 4 1 0 0 0 4 3 4 6 1 0 0 0 0 0 0 0 0 0 0 0 0 0 0 0 0 0 0 0 0 0 0 0 0 1 3 3 2 0
0 0 12 15 47 16 16 3 0 0 0 10 14 1 4 0 2 0 0 0 0 0 0 0 0 0 0 0 0 0 0 0 0 0 0 0 0 0 0 1 2 2 2 7
0 0 1 7 45 92 64 36 55 38 27 20 27 0 0 0 0 0 0 0 0 0 0 0 0 0 0 0 0 0 0 0 0 0 0 0 0 0 1 0 4 4 6 8
0 0 0 0 0 3 0 0 0 0 1 36 47 39 14 0 0 0 0 0 0 0 0 0 0 0 0 0 0 0 0 0 0 0 0 0 0 0 1 0 2 6 6 8
0 0 0 0 0 0 0 0 0 0 0 0 0 3 3 0 0 0 0 0 0 0 0 0 0 0 14 0 0 0 0 0 0 0 0 0 0 0 0 1 2 5 4 3
0 0 0 0 0 0 0 0 0 0 0 0 0 0 0 0 0 0 0 0 0 0 0 0 0 12 29 0 0 0 0 0 0 0 0 0 0 0 0 0 2 2 3 6
0 0 0 0 0 0 0 0 0 0 0 1 0 0 0 0 0 0 0 0 0 2 0 0 9 47 0 0 0 0 0 0 0 0 0 0 0 0 0 0 0 2 6 6
0 0 0 0 0 0 0 0 0 0 0 4 0 19 1 0 0 0 0 0 9 10 33 0 0 6 0 0 0 0 0 0 0 0 0 0 0 0 1 0 1 1 1 4
0 0 0 0 0 0 0 0 0 0 0 0 2 9 2 6 2 8 17 21 9 4 0 0 0 0 0 0 0 0 0 0 0 0 0 0 0 0 1 0 1 0 0 3

GFSNGP_con_sbcape_087.txt.gz
CAPE
0 0 0 0 0 0 0 0 0 0 0 0 0 0 0 0 0 0 0 0 0 0 0 0 0 1 1 2 1 1 1 2 1 2 0 0 10 0 0 0 109 509 206 59
0 0 0 0 0 0 0 0 0 0 0 0 0 0 0 0 0 0 0 0 0 0 0 0 0 0 1 0 0 0 0 2 1 0 0 0 14 0 0 0 34 70 340 428
0 0 4 0 0 0 0 0 0 0 0 0 0 0 0 0 0 0 0 0 0 0 0 0 0 0 0 0 0 0 0 0 1 1 1 0 0 0 0 0 0 0 0 170
0 0 0 0 0 0 0 0 0 0 0 0 0 0 0 0 0 0 0 0 0 0 0 0 0 0 0 0 0 0 0 0 0 0 0 0 0 0 0 0 0 0 0 0
0 0 0 0 0 0 0 0 0 0 0 0 0 0 0 0 0 0 0 0 0 0 0 0 0 0 0 0 0 0 0 0 0 0 0 0 0 0 0 0 0 0 0 0
0 0 0 0 0 0 0 0 0 0 0 0 0 0 0 0 0 0 0 0 0 0 0 0 0 0 0 0 0 0 0 0 0 0 0 0 0 0 0 0 0 0 0 0
0 0 0 0 0 0 0 0 0 0 0 0 0 0 0 0 0 0 0 0 0 0 0 0 0 0 0 0 0 0 0 0 0 0 0 0 0 0 0 0 0 0 0 0
0 0 0 0 0 0 0 0 0 0 0 0 0 0 0 0 0 0 0 0 0 0 0 0 0 0 0 0 0 0 0 0 0 0 0 0 0 0 0 0 0 0 0 0
0 0 0 0 0 0 0 0 0 0 0 0 0 0 0 0 0 0 0 0 0 0 0 0 0 0 0 0 0 0 0 0 0 0 0 0 0 0 0 0 0 0 0 0
0 0 0 0 0 0 0 0 0 0 0 0 0 0 0 0 0 0 0 0 0 0 0 0 0 0 0 0 0 0 0 0 0 0 0 0 0 0 0 0 0 0 0 0
0 0 0 0 0 0 0 0 0 0 0 0 0 0 0 0 0 0 0 0 0 0 0 0 0 0 0 0 0 0 0 0 0 0 0 0 0 0 0 0 0 0 0 0
0 0 0 0 0 0 0 0 0 0 0 0 0 0 0 0 0 0 0 0 0 0 0 0 0 0 0 0 0 0 0 0 0 0 0 0 0 0 0 0 0 0 0 0
0 0 0 0 0 0 0 0 0 0 0 0 0 0 0 0 0 0 0 0 0 0 0 0 0 0 0 0 0 0 0 0 0 0 0 0 0 0 0 0 0 0 0 0
0 0 0 0 0 0 0 0 0 0 0 0 0 0 0 0 0 0 0 0 0 0 0 0 0 0 0 0 0 0 0 0 0 0 0 0 0 0 0 0 0 0 0 0
0 0 0 0 0 0 0 0 0 0 0 0 0 0 0 0 0 0 0 0 0 0 0 0 0 0 0 0 0 0 0 0 0 0 0 0 0 0 0 0 0 0 0 0
0 0 0 0 0 0 0 0 0 0 0 0 0 0 0 0 0 0 0 0 0 0 0 0 0 0 0 0 0 0 0 0 0 0 0 0 0 0 0 0 0 0 0 0
0 0 0 0 0 0 0 0 0 0 0 0 0 0 0 0 0 0 0 0 0 0 0 0 0 0 0 0 0 0 0 0 0 0 0 0 0 0 0 0 0 0 0 0
0 0 0 0 0 0 0 0 0 0 0 1 0 0 0 0 0 0 0 0 0 0 0 0 0 0 0 0 0 0 0 0 0 0 0 0 0 0 0 0 0 0 0 0
0 0 0 0 0 0 4 0 0 0 0 0 6 0 0 0 0 0 0 0 0 0 0 0 0 0 0 0 0 0 0 0 0 0 0 0 0 0 0 0 0 0 0 0
0 0 0 0 4 20 30 21 1 0 0 0 4 1 0 1 0 0 0 0 0 0 0 0 0 0 0 0 0 0 0 0 0 0 0 0 0 0 0 0 0 0 0 0
0 0 0 0 0 17 35 36 27 28 12 0 5 3 1 10 6 0 0 0 0 0 0 0 0 0 0 0 0 0 0 0 0 0 0 0 0 0 0 0 0 0 0 0
0 0 0 0 0 0 0 0 0 0 0 0 0 4 0 2 0 0 4 0 0 0 0 0 0 0 0 0 0 0 0 0 0 0 0 0 0 0 0 0 0 0 0 0
0 0 0 0 0 0 0 0 0 0 0 0 0 0 0 0 0 0 6 0 0 0 0 0 0 0 0 0 0 0 0 0 0 0 0 0 0 0 0 0 0 0 0 0
0 0 0 0 0 0 0 0 0 0 0 0 0 0 0 0 0 0 0 0 0 0 0 0 0 0 18 0 0 0 0 0 0 0 0 0 0 0 0 0 0 0 0 0
0 0 0 0 0 0 0 0 0 0 0 0 3 0 0 0 0 0 0 0 0 0 0 0 19 39 12 0 0 0 0 0 0 0 0 0 0 0 0 0 0 0 0 0
0 0 0 0 0 0 0 0 0 0 0 1 3 10 2 0 0 0 0 0 0 0 0 0 2 3 0 0 0 0 0 0 0 0 0 0 0 0 0 0 0 0 0 0
0 0 0 0 0 0 0 0 0 0 0 0 0 0 0 0 0 0 0 0 0 0 0 0 0 0 0 0 0 0 0 0 0 0 0 0 0 0 0 0 0 0 0 0

GFSNGP_con_sbcape_090.txt.gz
CAPE
0 0 0 0 0 0 0 0 0 0 0 0 0 0 0 0 0 0 0 0 0 0 1 1 1 1 1 1 11 17 37 37 6 0 0 0 0 0 0 0 11 239 420 215
0 0 0 0 0 0 7 0 0 0 0 0 0 0 0 0 0 0 0 0 0 0 0 1 1 2 1 1 1 0 1 3 3 1 0 0 0 0 0 0 0 14 50 272
0 0 2 0 0 0 0 0 0 0 0 0 0 0 0 0 0 0 0 0 0 0 0 0 0 0 1 0 0 0 1 1 1 1 1 0 0 0 0 0 0 0 0 0
0 0 0 0 0 0 0 0 0 0 0 0 0 0 0 0 0 0 0 0 0 0 0 0 0 0 0 0 0 0 0 0 0 0 0 0 0 0 0 0 0 0 0 0
0 0 0 0 0 0 0 0 0 0 0 0 0 0 0 0 0 0 0 0 0 0 0 0 0 0 0 0 0 0 0 0 0 0 0 0 0 0 0 0 0 0 0 0
0 0 0 0 0 0 0 0 0 0 0 0 0 0 0 0 0 0 0 0 0 0 0 0 0 0 0 0 0 0 0 0 0 0 0 0 0 0 0 0 0 0 0 0
0 0 0 0 0 0 0 0 0 0 0 0 0 0 0 0 0 0 0 0 0 0 0 0 0 0 0 0 0 0 0 0 0 0 0 0 0 0 0 0 0 0 0 0
0 0 0 0 0 0 0 0 0 0 0 0 0 0 0 0 0 0 0 0 0 0 0 0 0 0 0 0 0 0 0 0 0 0 0 0 0 0 0 0 0 0 0 0
0 0 0 0 0 0 0 0 0 0 0 0 0 0 0 0 0 0 0 0 0 0 0 0 0 0 0 0 0 0 0 0 0 0 0 0 0 0 0 0 0 0 0 0
0 0 0 0 0 0 0 0 0 0 0 0 0 0 0 0 0 0 0 0 0 0 0 0 0 0 0 0 0 0 0 0 0 0 0 0 0 0 0 0 0 0 0 0
0 0 0 0 0 0 0 0 0 0 0 0 0 0 0 0 0 0 0 0 0 0 0 0 0 0 0 0 0 0 0 0 0 0 0 0 0 0 0 0 0 0 0 0
0 0 0 0 0 0 0 0 0 0 0 0 0 0 0 0 0 0 0 0 0 0 0 0 0 0 0 0 0 0 0 0 0 0 0 0 0 0 0 0 0 0 0 0
0 0 0 0 0 0 0 0 0 0 0 0 0 0 0 0 0 0 0 0 0 0 0 0 0 0 0 0 0 0 0 0 0 0 0 0 0 0 0 0 0 0 0 0
0 0 0 0 0 0 0 0 0 0 0 0 0 0 0 0 0 0 0 0 0 0 0 0 0 0 0 0 0 0 0 0 0 0 0 0 0 0 0 0 0 0 0 0
0 0 0 0 0 0 0 0 0 0 0 0 0 0 0 0 0 0 0 0 0 0 0 0 0 0 0 0 0 0 0 0 0 0 0 0 0 0 0 0 0 0 0 0
0 0 0 0 0 0 0 0 0 0 0 0 0 0 0 0 0 0 0 0 0 0 0 0 0 0 0 0 0 0 0 0 0 0 0 0 0 0 0 0 0 0 0 0
0 0 0 0 0 0 0 0 0 0 0 0 0 0 0 0 0 0 0 0 0 0 0 0 0 0 0 0 0 0 0 0 0 0 0 0 0 0 0 0 0 0 0 0
0 0 0 0 0 0 0 0 0 0 0 0 0 0 0 0 0 0 0 0 0 0 0 0 0 0 0 0 0 0 0 0 0 0 0 0 0 0 0 0 0 0 0 0
0 0 0 0 0 0 0 0 0 2 1 1 0 0 0 0 0 0 0 0 0 0 0 0 0 0 0 0 0 0 0 0 0 0 0 0 0 0 0 0 0 0 0 0
0 0 0 0 0 3 5 1 0 3 3 1 0 0 2 0 0 0 0 0 0 0 0 0 0 0 0 0 0 0 0 0 0 0 0 0 0 0 0 0 0 0 0 0
0 0 0 0 0 0 0 0 0 1 0 0 9 23 29 22 3 0 0 2 0 0 0 0 0 0 0 0 0 0 0 0 0 0 0 0 0 0 0 0 0 0 0 0
0 0 0 0 0 0 0 0 0 0 0 0 0 0 0 3 13 15 0 0 12 0 0 0 0 0 0 0 0 0 0 0 0 0 0 0 0 0 0 0 0 0 0 0
0 0 0 0 0 0 0 0 0 0 0 0 0 0 0 0 0 1 17 10 17 1 0 0 0 1 0 0 0 0 0 0 0 0 0 0 0 0 0 0 0 0 0 0
0 0 0 0 0 0 0 0 0 0 0 0 0 0 0 0 0 0 0 0 2 0 0 0 1 5 4 0 0 0 0 0 0 0 0 0 0 0 0 0 0 0 0 0
0 0 0 0 0 0 0 0 0 0 0 1 0 0 2 0 0 0 0 0 0 1 1 2 5 13 1 0 0 0 0 0 0 0 0 0 0 0 0 0 0 0 0 0
0 0 0 0 0 0 0 0 0 0 0 0 0 0 18 1 0 0 1 1 32 1 1 4 14 22 3 0 0 0 0 0 0 0 0 0 0 0 0 0 0 0 0 0
0 0 0 0 0 0 0 0 0 0 0 0 0 0 0 0 0 0 0 9 24 7 3 9 14 13 3 1 0 0 0 0 0 0 0 0 0 0 0 0 0 0 0 2

GFSNGP_con_sbcape_093.txt.gz
CAPE
0 0 0 0 21 38 0 0 0 1 21 86 60 14 0 1 0 0 0 2 3 3 3 3 3 11 48 88 78 37 40 35 53 64 189 242 283 229 224 375 652 1120 1509 1411
0 0 0 0 3 156 78 32 23 23 34 0 29 0 0 1 0 0 0 0 0 1 4 3 3 3 1 2 2 101 117 93 47 52 1 1 103 133 123 134 181 257 624 795
6 0 21 21 0 0 0 27 40 39 27 0 0 0 0 0 0 0 0 0 0 0 0 1 3 2 2 2 2 2 4 4 4 3 4 2 0 0 0 0 0 0 2 83
0 28 23 0 0 0 0 3 3 0 0 2 0 0 0 0 0 0 0 0 0 1 2 0 0 0 0 0 0 0 0 0 0 0 0 0 0 0 0 0 0 0 0 0
5 1 0 0 0 0 0 0 5 1 0 0 0 0 0 0 0 0 0 0 0 0 0 0 0 0 0 0 0 0 0 0 0 0 0 0 0 0 0 0 0 0 0 8
0 0 0 0 0 0 0 0 11 2 9 0 0 161 61 0 0 0 0 0 0 0 0 0 0 0 0 0 0 0 0 0 0 0 0 0 0 0 0 0 0 0 0 0
0 0 0 0 0 0 0 0 0 2 10 0 31 39 0 0 0 0 0 0 0 0 0 0 0 0 0 0 0 0 0 0 0 0 0 0 0 0 0 0 0 0 0 0
0 0 0 0 0 0 0 0 0 8 0 0 0 0 0 0 0 0 0 0 0 0 0 0 0 0 0 0 0 0 0 0 0 0 0 0 0 0 0 0 0 0 0 0
0 0 0 0 0 0 0 0 0 0 21 0 0 0 0 0 0 0 0 0 0 0 0 0 0 0 0 0 0 0 0 0 0 0 0 0 0 0 0 0 0 0 0 0
1 0 0 0 0 0 0 0 0 0 0 0 0 0 0 0 0 0 0 0 0 0 0 0 0 0 0 0 0 0 0 0 0 0 0 0 0 0 0 0 0 0 0 0
0 0 0 0 0 0 0 0 0 0 0 0 0 0 0 0 0 0 0 0 0 0 0 0 0 0 0 0 0 0 0 0 0 0 0 0 0 0 0 0 0 0 0 0
9 0 2 0 0 0 0 0 0 0 0 0 0 0 0 0 0 0 0 0 0 0 0 0 0 0 0 0 0 0 0 0 0 0 0 0 0 0 0 0 0 0 0 0
0 0 0 0 0 0 0 0 0 0 0 0 0 0 0 0 0 0 0 0 0 0 0 0 0 0 0 0 0 0 0 0 0 0 0 0 0 0 0 0 0 0 0 0
0 0 0 0 0 0 0 0 0 0 0 0 0 0 0 0 0 0 0 0 0 0 0 0 0 0 0 0 0 0 0 0 0 0 0 0 0 0 0 0 0 0 0 0
0 0 0 0 0 0 0 0 0 0 0 0 0 0 0 0 0 0 0 0 0 0 0 0 0 0 0 0 0 0 0 0 0 0 0 0 0 0 0 0 0 0 0 0
0 0 0 0 0 0 0 0 0 0 0 0 0 0 0 0 0 0 1 0 0 0 0 0 0 0 0 0 0 0 0 0 0 0 0 0 0 0 0 0 0 0 0 0
0 0 0 0 0 0 0 0 0 0 0 0 0 0 0 0 0 0 0 0 0 0 0 0 0 0 0 0 0 0 0 0 0 0 0 0 0 0 0 0 0 0 0 0
0 0 0 0 0 0 0 0 2 10 19 11 8 2 0 0 0 0 0 0 0 1 0 0 0 0 0 0 0 0 0 0 0 0 0 0 0 0 0 0 0 0 0 0
0 1 4 9 9 10 6 16 22 23 25 30 43 45 43 18 0 0 0 0 0 0 3 0 0 0 0 0 0 0 0 0 0 0 0 0 0 0 0 0 0 0 0 0
0 1 8 7 4 15 32 35 34 29 23 30 62 77 137 154 132 45 0 0 0 0 0 0 0 0 0 0 0 0 0 0 0 0 0 0 0 0 1 0 0 0 0 0
5 5 0 0 0 0 0 0 0 0 0 0 4 33 77 166 208 236 85 5 0 0 0 1 0 0 0 0 0 0 0 0 0 0 0 0 0 0 0 0 0 0 0 0
0 0 0 0 0 0 0 0 0 0 0 0 0 0 0 0 16 51 191 260 14 0 0 2 0 0 0 0 0 0 0 0 0 0 0 0 0 0 0 0 0 0 0 0
0 0 0 0 0 0 0 0 0 0 0 1 4 7 9 10 13 9 7 245 201 13 18 1 0 2 6 6 0 0 0 0 1 2 0 0 0 0 0 0 0 0 0 2
0 0 0 0 0 0 0 0 0 0 1 12 14 23 23 3 5 26 11 3 5 47 177 174 24 6 27 2 0 0 0 3 26 33 16 1 4 4 0 0 0 0 0 0
0 0 0 0 0 0 0 0 0 0 0 6 10 32 37 14 9 18 56 69 8 36 181 39 2 7 9 3 1 1 1 16 33 34 56 25 20 21 12 5 3 0 0 0
0 0 0 0 0 0 0 0 6 22 12 2 18 42 51 77 25 30 109 51 215 128 170 69 20 8 1 0 0 0 2 35 17 13 37 54 57 58 41 22 8 0 0 0
0 0 0 0 0 0 0 0 12 33 19 41 115 113 99 55 53 177 97 349 240 264 77 88 54 27 29 22 25 31 42 76 43 107 94 62 70 79 69 48 19 7 5 1

GFSNGP_con_sbcape_096.txt.gz
CAPE
55 14 3 5 0 0 0 3 46 79 81 527 881 862 605 217 178 104 176 207 33 4 5 6 261 1034 1005 758 653 735 312 121 167 204 253 370 769 875 991 1129 1246 1485 1724 1889
76 44 23 100 120 37 6 0 18 47 74 157 804 828 654 383 27 164 162 126 24 4 5 5 3 25 433 711 521 750 325 246 141 288 173 153 264 439 521 578 650 1050 1254 1542
106 43 104 90 58 62 83 99 138 57 406 361 539 490 499 452 180 185 165 104 7 5 4 5 4 3 3 3 2 2 6 8 5 22 60 6 0 0 102 220 268 256 428 796
113 90 90 83 11 22 55 60 90 158 197 313 405 425 438 441 418 143 61 0 3 3 5 4 2 0 1 1 0 0 0 0 1 2 4 5 0 0 0 16 147 154 190 178
164 170 94 10 0 0 5 57 55 197 243 378 429 247 123 101 186 148 102 45 0 2 1 1 1 3 0 0 0 0 0 0 0 0 0 0 0 0 0 7 36 69 99 19
5 121 127 37 0 0 0 49 45 163 252 247 235 604 431 44 41 19 6 6 11 1 0 0 0 0 0 0 0 0 0 0 0 0 0 0 0 0 0 0 3 7 7 0
87 23 10 0 0 0 38 63 15 182 283 252 358 70 95 25 3 0 1 3 2 1 0 0 0 0 0 0 0 0 0 0 0 0 0 0 0 0 0 0 1 0 3 2
22 25 1 0 0 6 18 0 13 149 263 237 85 21 44 14 1 0 0 1 0 0 0 0 0 0 0 0 0 0 0 0 0 0 0 0 0 0 0 0 0 0 0 0
2 58 43 26 1 0 0 0 0 69 155 204 88 53 32 12 0 0 0 0 0 0 0 0 0 0 0 0 0 0 0 0 0 0 0 0 0 0 0 0 0 0 0 0
21 13 13 24 0 0 0 0 0 5 146 176 129 67 42 24 2 1 1 0 0 0 0 0 0 0 0 0 0 0 0 0 0 0 0 0 0 0 0 0 0 0 0 0
11 1 54 42 23 0 0 0 0 1 75 158 173 119 92 62 24 0 0 0 0 0 0 0 0 0 0 0 0 0 0 0 0 0 0 0 0 0 0 0 0 0 0 0
0 0 0 0 0 10 0 0 0 0 3 52 131 159 133 122 77 20 0 0 0 0 0 0 0 0 0 0 0 0 0 0 0 0 0 0 0 0 0 0 0 0 0 0
0 0 0 12 0 0 0 0 0 0 2 25 12 55 149 226 130 13 0 0 0 0 0 0 0 0 0 0 0 0 0 0 0 0 0 0 0 0 0 0 0 0 0 0
0 0 0 0 0 0 0 0 0 0 0 0 0 18 32 125 192 70 41 24 0 0 0 0 0 0 0 0 0 0 0 0 0 0 0 0 0 0 0 0 0 0 0 0
0 0 1 2 0 0 0 0 0 0 0 0 0 0 0 4 94 171 180 94 22 10 0 0 0 0 0 0 0 0 0 0 0 0 0 0 0 0 0 0 0 0 0 0
0 0 0 1 3 0 0 0 0 0 0 0 0 0 0 0 11 60 105 141 115 41 29 8 0 0 0 0 0 0 0 0 0 0 0 0 0 0 0 0 0 0 0 0
0 0 0 1 1 0 0 0 0 0 0 0 1 0 0 0 0 44 59 72 148 144 112 46 16 0 0 0 0 0 0 0 0 0 0 0 0 0 0 0 0 0 0 0
0 2 7 18 7 0 0 0 0 1 5 10 10 2 7 11 25 52 64 66 92 91 109 124 36 13 0 0 0 0 0 0 0 0 0 0 0 0 0 0 0 0 0 0
0 4 6 2 2 6 1 7 9 8 27 38 54 50 40 38 56 71 77 109 133 132 69 88 43 27 7 0 0 0 0 0 0 0 0 0 0 0 0 0 0 0 0 0
0 21 30 50 70 86 148 77 56 47 51 48 66 75 75 64 72 69 74 160 160 154 46 76 24 12 12 4 0 0 0 0 0 0 0 0 0 0 0 0 0 0 0 0
65 117 153 139 32 1 0 0 0 0 0 0 0 5 11 14 57 87 103 100 154 241 110 1 12 1 4 8 0 0 0 0 0 0 0 0 0 0 0 2 2 1 0 0
51 22 6 3 1 0 0 0 0 0 0 0 3 5 8 5 6 7 19 165 217 29 171 124 109 14 0 0 0 0 0 0 0 2 4 5 2 2 1 4 7 7 6 7
0 0 0 0 0 0 0 0 0 1 6 13 14 14 16 11 20 15 11 35 92 141 196 184 84 0 9 3 6 0 0 0 0 0 4 16 10 6 6 7 11 13 18 21
0 0 0 0 0 0 2 0 2 4 9 12 22 12 44 16 11 9 27 27 1 18 317 250 107 0 12 24 5 2 0 0 0 5 11 1 8 8 11 18 18 24 30 21
0 1 0 0 1 6 2 1 6 10 17 31 33 41 65 64 9 25 51 98 18 26 381 226 127 21 60 9 9 18 5 2 0 8 26 36 39 33 37 25 38 46 48 41
4 13 9 0 6 3 5 7 20 15 25 33 48 59 84 83 160 146 260 130 249 155 373 323 338 272 173 7 1 1 1 1 1 16 32 32 76 65 41 40 49 59 58 46
13 2 1 3 4 5 6 8 22 39 28 33 40 42 35 64 82 393 191 359 295 446 300 150 4 3 3 4 7 8 22 14 17 75 99 129 148 111 98 86 67 68 67 41